[[{"header":{"parameterUnit":"m.s-1","parameterCategory":1,"la1":30.6,"la2":28.766,"lo1":-90.7593,"lo2":-88.6598,"dy":0.0162,"dx":0.0183,"nx":116,"ny":114,"refTime":"2024-06-29T18:00:00:Z","depth":0,"parameterNumber":2,"parameterNumberName":"U-component_of_WINDS"},"data":[0.0,0.0,0.0,0.0,0.0,0.0,0.0,0.0,0.0,0.0,0.0,0.0,0.0,0.0,0.0,0.0,0.0,0.0,0.0,0.0,0.0,0.0,0.0,0.0,0.0,0.0,0.0,0.0,0.0,0.0,0.0,0.0,0.0,0.0,0.0,0.0,0.0,0.0,0.0,0.0,0.0,0.0,0.0,0.0,0.0,0.0,0.0,0.0,0.0,0.0,0.0,0.0,0.0,0.0,0.0,0.0,0.0,0.0,0.0,0.0,0.0,0.0,0.0,0.0,0.0,0.0,0.0,0.0,0.0,0.0,0.0,0.0,0.0,0.0,0.0,0.0,0.0,0.0,0.0,0.0,0.0,0.0,0.0,0.0,0.0,0.0,0.0,0.0,0.0,0.0,0.0,0.0,0.0,0.0,0.0,0.0,0.0,0.0,0.0,0.0,0.0,0.0,0.0,0.0,0.0,0.0,0.0,0.0,0.0,0.0,0.0,0.0,0.0,0.0,0.0,0.0,0.0,0.0,0.0,0.0,0.0,0.0,0.0,0.0,0.0,0.0,0.0,0.0,0.0,0.0,0.0,0.0,0.0,0.0,0.0,0.0,0.0,0.0,0.0,0.0,0.0,0.0,0.0,0.0,0.0,0.0,0.0,0.0,0.0,0.0,0.0,0.0,0.0,0.0,0.0,0.0,0.0,0.0,0.0,0.0,0.0,0.0,0.0,0.0,0.0,0.0,0.0,0.0,0.0,0.0,0.0,0.0,0.0,0.0,0.0,0.0,0.0,0.0,0.0,0.0,0.0,0.0,0.0,0.0,0.0,0.0,0.0,0.0,0.0,0.0,0.0,0.0,0.0,0.0,0.0,0.0,0.0,0.0,0.0,0.0,0.0,0.0,0.0,0.0,0.0,0.0,0.0,0.0,0.0,0.0,0.0,0.0,0.0,0.0,0.0,0.0,0.0,0.0,0.0,0.0,0.0,0.0,0.0,0.0,0.0,0.0,0.0,0.0,0.0,0.0,0.0,0.0,0.0,0.0,0.0,0.0,0.0,0.0,0.0,0.0,0.0,0.0,0.0,0.0,0.0,0.0,0.0,0.0,0.0,0.0,0.0,0.0,0.0,0.0,0.0,0.0,0.0,0.0,0.0,0.0,0.0,0.0,0.0,0.0,0.0,0.0,0.0,0.0,0.0,0.0,0.0,0.0,0.0,0.0,0.0,0.0,0.0,0.0,0.0,0.0,0.0,0.0,0.0,0.0,0.0,0.0,0.0,0.0,0.0,0.0,0.0,0.0,0.0,0.0,0.0,0.0,0.0,0.0,0.0,0.0,0.0,0.0,0.0,0.0,0.0,0.0,0.0,0.0,0.0,0.0,0.0,0.0,0.0,0.0,0.0,0.0,0.0,0.0,0.0,0.0,0.0,0.0,0.0,0.0,0.0,0.0,0.0,0.0,0.0,0.0,0.0,0.0,0.0,0.0,0.0,0.0,0.0,0.0,0.0,0.0,0.0,0.0,0.0,0.0,0.0,0.0,0.0,0.0,0.0,0.0,0.0,0.0,0.0,0.0,0.0,0.0,0.0,0.0,0.0,0.0,0.0,0.0,0.0,0.0,0.0,0.0,0.0,0.0,0.0,0.0,0.0,0.0,0.0,0.0,0.0,0.0,0.0,0.0,0.0,0.0,0.0,0.0,0.0,0.0,0.0,0.0,0.0,0.0,0.0,0.0,0.0,0.0,0.0,0.0,0.0,0.0,0.0,0.0,0.0,0.0,0.0,0.0,0.0,0.0,0.0,0.0,0.0,0.0,0.0,0.0,0.0,0.0,0.0,0.0,0.0,0.0,0.0,0.0,0.0,0.0,0.0,0.0,0.0,0.0,0.0,0.0,0.0,0.0,0.0,0.0,0.0,0.0,0.0,0.0,0.0,0.0,0.0,0.0,0.0,0.0,0.0,0.0,0.0,0.0,0.0,0.0,0.0,0.0,0.0,0.0,0.0,0.0,0.0,0.0,0.0,0.0,0.0,0.0,0.0,0.0,0.0,0.0,0.0,0.0,0.0,0.0,0.0,0.0,0.0,0.0,0.0,0.0,0.0,0.0,0.0,0.0,0.0,0.0,0.0,0.0,0.0,0.0,0.0,0.0,0.0,0.0,0.0,0.0,0.0,0.0,0.0,0.0,0.0,0.0,0.0,0.0,0.0,0.0,0.0,0.0,0.0,0.0,0.0,0.0,0.0,0.0,0.0,0.0,0.0,0.0,0.0,0.0,0.0,0.0,0.0,0.0,0.0,0.0,0.0,0.0,0.0,0.0,0.0,0.0,0.0,0.0,0.0,0.0,0.0,0.0,0.0,0.0,0.0,0.0,0.0,0.0,0.0,0.0,0.0,0.0,0.0,0.0,0.0,0.0,0.0,0.0,0.0,0.0,0.0,0.0,0.0,0.0,0.0,0.0,0.0,0.0,0.0,0.0,0.0,0.0,0.0,0.0,0.0,0.0,0.0,0.0,0.0,0.0,0.0,0.0,0.0,0.0,0.0,0.0,0.0,0.0,0.0,0.0,0.0,0.0,0.0,0.0,0.0,0.0,0.0,0.0,0.0,0.0,0.0,0.0,0.0,0.0,0.0,0.0,0.0,0.0,0.0,0.0,0.0,0.0,0.0,0.0,0.0,0.0,0.0,0.0,0.0,0.0,0.0,0.0,0.0,0.0,0.0,0.0,0.0,0.0,0.0,0.0,0.0,0.0,0.0,0.0,0.0,0.0,0.0,0.0,0.0,0.0,0.0,0.0,0.0,0.0,0.0,0.0,0.0,0.0,0.0,0.0,0.0,0.0,0.0,0.0,0.0,0.0,0.0,0.0,0.0,0.0,0.0,0.0,0.0,0.0,0.0,0.0,0.0,0.0,0.0,0.0,0.0,0.0,0.0,0.0,0.0,0.0,0.0,0.0,0.0,0.0,0.0,0.0,0.0,0.0,0.0,0.0,0.0,0.0,0.0,0.0,0.0,0.0,0.0,0.0,0.0,0.0,0.0,0.0,0.0,0.0,0.0,0.0,0.0,0.0,0.0,0.0,0.0,0.0,0.0,0.0,0.0,0.0,0.0,0.0,0.0,0.0,0.0,0.0,0.0,0.0,0.0,0.0,0.0,0.0,0.0,0.0,0.0,0.0,0.0,0.0,0.0,0.0,0.0,0.0,0.0,0.0,0.0,0.0,0.0,0.0,0.0,0.0,0.0,0.0,0.0,0.0,0.0,0.0,0.0,0.0,0.0,0.0,0.0,0.0,0.0,0.0,0.0,0.0,0.0,0.0,0.0,0.0,0.0,0.0,0.0,0.0,0.0,0.0,0.0,0.0,0.0,0.0,0.0,0.0,0.0,0.0,0.0,0.0,0.0,0.0,0.0,0.0,0.0,0.0,0.0,0.0,0.0,0.0,0.0,0.0,0.0,0.0,0.0,0.0,0.0,0.0,0.0,0.0,0.0,0.0,0.0,0.0,0.0,0.0,0.0,0.0,0.0,0.0,0.0,0.0,0.0,0.0,0.0,0.0,0.0,0.0,0.0,0.0,0.0,0.0,0.0,0.0,0.0,0.0,0.0,0.0,0.0,0.0,0.0,0.0,0.0,0.0,0.0,0.0,0.0,0.0,0.0,0.0,0.0,0.0,0.0,0.0,0.0,0.0,0.0,0.0,0.0,0.0,0.0,0.0,0.0,0.0,0.0,0.0,0.0,0.0,0.0,0.0,0.0,0.0,0.0,0.0,0.0,0.0,0.0,0.0,0.0,0.0,0.0,0.0,0.0,0.0,0.0,0.0,0.0,0.0,0.0,0.0,0.0,0.0,0.0,0.0,0.0,0.0,0.0,0.0,0.0,0.0,0.0,0.0,0.0,0.0,0.0,0.0,0.0,0.0,0.0,0.0,0.0,0.0,0.0,0.0,0.0,0.0,0.0,0.0,0.0,0.0,0.0,0.0,0.0,0.0,0.0,0.0,0.0,0.0,0.0,0.0,0.0,0.0,0.0,0.0,0.0,0.0,0.0,0.0,0.0,0.0,0.0,0.0,0.0,0.0,0.0,0.0,0.0,0.0,0.0,0.0,0.0,0.0,0.0,0.0,0.0,0.0,0.0,0.0,0.0,0.0,0.0,0.0,0.0,0.0,0.0,0.0,0.0,0.0,0.0,0.0,0.0,0.0,0.0,0.0,0.0,0.0,0.0,0.0,0.0,0.0,0.0,0.0,0.0,0.0,0.0,0.0,0.0,0.0,0.0,0.0,0.0,0.0,0.0,0.0,0.0,0.0,0.0,0.0,0.0,0.0,0.0,0.0,0.0,0.0,0.0,0.0,0.0,0.0,0.0,0.0,0.0,0.0,0.0,0.0,0.0,0.0,0.0,0.0,0.0,0.0,0.0,0.0,0.0,0.0,0.0,0.0,0.0,0.0,0.0,0.0,0.0,0.0,0.0,0.0,0.0,0.0,0.0,0.0,0.0,0.0,0.0,0.0,0.0,0.0,0.0,0.0,0.0,0.0,0.0,0.0,0.0,0.0,0.0,0.0,0.0,0.0,0.0,0.0,0.0,0.0,0.0,0.0,0.0,0.0,0.0,0.0,0.0,0.0,0.0,0.0,0.0,0.0,0.0,0.0,0.0,0.0,0.0,0.0,0.0,0.0,0.0,0.0,0.0,0.0,0.0,0.0,0.0,0.0,0.0,0.0,0.0,0.0,0.0,0.0,0.0,0.0,0.0,0.0,0.0,0.0,0.0,0.0,0.0,0.0,0.0,0.0,0.0,0.0,0.0,0.0,0.0,0.0,0.0,0.0,0.0,0.0,0.0,0.0,0.0,0.0,0.0,0.0,0.0,0.0,0.0,0.0,0.0,0.0,0.0,0.0,0.0,0.0,0.0,0.0,0.0,0.0,0.0,0.0,0.0,0.0,0.0,0.0,0.0,0.0,0.0,0.0,0.0,0.0,0.0,0.0,0.0,0.0,0.0,0.0,0.0,0.0,0.0,0.0,0.0,0.0,0.0,0.0,0.0,0.0,0.0,0.0,0.0,0.0,0.0,0.0,0.0,0.0,0.0,0.0,0.0,0.0,0.0,0.0,0.0,0.0,0.0,0.0,0.0,0.0,0.0,0.0,0.0,0.0,0.0,0.0,0.0,0.0,0.0,0.0,0.0,0.0,0.0,0.0,0.0,0.0,0.0,0.0,0.0,0.0,0.0,0.0,0.0,0.0,0.0,0.0,0.0,0.0,0.0,0.0,0.0,0.0,0.0,0.0,0.0,0.0,0.0,0.0,0.0,0.0,0.0,0.0,0.0,0.0,0.0,0.0,0.0,0.0,0.0,0.0,0.0,0.0,0.0,0.0,0.0,0.0,0.0,0.0,0.0,0.0,0.0,0.0,0.0,0.0,0.0,0.0,0.0,0.0,0.0,0.0,0.0,0.0,0.0,0.0,0.0,0.0,0.0,0.0,0.0,0.0,0.0,0.0,0.0,0.0,0.0,0.0,0.0,0.0,0.0,0.0,0.0,0.0,0.0,0.0,0.0,0.0,0.0,0.0,0.0,0.0,0.0,0.0,0.0,0.0,0.0,0.0,0.0,0.0,0.0,0.0,0.0,0.0,0.0,0.0,0.0,0.0,0.0,0.0,0.0,0.0,0.0,0.0,0.0,0.0,0.0,0.0,0.0,0.0,0.0,0.0,0.0,0.0,0.0,0.0,0.0,0.0,0.0,0.0,0.0,0.0,0.0,0.0,0.0,0.0,0.0,0.0,0.0,0.0,0.0,0.0,0.0,0.0,0.0,0.0,0.0,0.0,0.0,0.0,0.0,0.0,0.0,0.0,0.0,0.0,0.0,0.0,0.0,0.0,0.0,0.0,0.0,0.0,0.0,0.0,0.0,0.0,0.0,0.0,0.0,0.0,0.0,0.0,0.0,0.0,0.0,0.0,0.0,0.0,0.0,0.0,0.0,0.0,0.0,0.0,0.0,0.0,0.0,0.0,0.0,0.0,0.0,0.0,0.0,0.0,0.0,0.0,0.0,0.0,0.0,0.0,0.0,0.0,0.0,0.0,0.0,0.0,0.0,0.0,0.0,0.0,-1.2307,0.0,0.0,0.0,0.0,0.0,0.0,0.0,0.0,0.0,0.0,0.0,0.0,0.0,0.0,0.0,0.0,0.0,0.0,0.0,0.0,0.0,0.0,0.0,0.0,0.5698,0.5855,0.6302,0.6342,0.6358,0.635,0.0,0.0,0.0,0.0,0.0,0.6307,0.6307,0.6472,0.6831,0.6692,0.6681,0.6807,0.6824,0.6343,0.5463,0.0,0.0,0.0,0.0,0.0,0.0,0.0,0.0,0.0,0.0,0.0,0.0,0.0,0.0,0.0,0.0,0.0,0.0,0.0,0.0,0.0,0.0,0.0,0.0,0.0,0.0,0.0,0.0,0.0,0.0,0.0,0.0,0.0,0.0,0.0,0.0,0.0,0.0,0.0,0.0,0.0,0.0,0.0,0.0,0.0,0.0,0.0,0.0,0.0,0.0,0.0,0.0,0.0,0.0,0.0,0.0,0.0,0.0,0.0,0.0,0.0,0.0,0.0,0.0,0.0,0.0,0.0,0.0,0.0,0.0,0.0,-1.3183,0.0,0.0,0.0,0.0,0.0,0.0,0.0,0.0,0.0,0.0,0.0,0.0,0.0,0.0,0.0,0.0,0.0,0.0,0.0,0.0,0.0,0.5605,0.6318,0.6531,0.6921,0.7633,0.7694,0.7706,0.7706,0.0,0.0,0.0,0.0,0.7678,0.7598,0.7603,0.761,0.7613,0.7634,0.7519,0.7291,0.8326,0.7849,0.0,0.5902,0.0,0.0,0.0,0.0,0.0,0.0,0.0,0.0,0.0,0.0,0.0,0.0,0.0,0.0,0.0,0.0,0.0,0.0,0.0,0.0,0.0,0.0,0.0,0.0,0.0,0.0,0.0,0.0,0.0,0.0,0.0,0.0,0.0,0.0,0.0,0.0,0.0,0.0,0.0,0.0,0.0,0.0,0.0,0.0,0.0,0.0,0.0,0.0,0.0,0.0,0.0,0.0,0.0,0.0,0.0,0.0,0.0,0.0,0.0,0.0,0.0,0.0,0.0,-1.7769,-1.7733,-1.78,-1.8489,-1.8794,-1.8707,-1.7283,-1.6171,-1.5247,-1.3684,0.0,0.0,0.0,0.0,0.0,0.0,0.0,0.0,0.0,0.0,0.0,0.0,0.0,0.0,0.0,0.0,0.0,0.0,0.0,0.628,0.6378,0.7084,0.7573,0.7691,0.7699,0.7698,0.7702,0.0,0.0,0.0,0.7697,0.7674,0.7604,0.761,0.7886,0.8436,0.9394,0.9628,0.9162,0.0,0.0,0.0,0.7636,0.7064,0.0,0.0,0.0,0.0,0.0,0.0,0.0,0.0,0.0,0.0,0.0,0.0,0.0,0.0,0.0,0.0,0.0,0.0,0.0,0.0,0.0,0.0,0.0,0.0,0.0,0.0,0.0,0.0,0.0,0.0,0.0,0.0,0.0,0.0,0.0,0.0,0.0,0.0,0.0,0.0,0.0,0.0,-0.8116,-0.8129,0.0,0.0,0.0,0.0,0.0,0.0,0.0,0.0,0.0,0.0,0.0,0.0,0.0,-1.6366,-1.7313,-1.8939,-2.0192,-2.109,-2.1761,-2.2076,-2.209,-2.2241,-2.2338,-2.2317,-2.215,0.0,-1.6318,-1.5278,0.0,0.0,0.0,0.0,0.0,0.0,0.0,0.0,0.0,0.0,0.0,0.0,0.0,0.0,0.0,0.0,0.0,0.0,0.0,0.0,0.0,0.8207,0.8636,0.9127,0.9156,0.9157,0.0,0.0,0.0,0.9114,0.9108,0.9061,0.8953,0.8902,0.9088,0.9507,0.996,1.0051,0.0,0.0,0.0,0.0,0.8877,0.8342,0.0,0.0,0.0,0.0,0.0,0.0,0.0,0.0,0.0,0.0,0.0,0.0,0.0,0.0,0.0,0.0,0.0,0.0,0.0,0.0,0.0,0.0,0.0,0.0,0.0,0.0,0.0,0.0,0.0,0.0,0.0,0.0,0.0,0.0,0.0,0.0,0.0,0.0,0.0,0.0,0.0,-0.7698,-0.9058,-0.8677,-0.9552,-0.9922,0.0,0.0,0.0,0.0,0.0,0.0,0.0,0.0,0.0,-1.6161,-1.7874,-1.9214,-2.0088,-2.1308,-2.2114,-2.2503,-2.3335,-2.3714,-2.3718,-2.4266,-2.4241,-2.3801,-2.3823,-2.2461,-2.0118,-1.8226,-1.6875,-1.5867,0.0,0.0,0.0,0.0,-1.5857,-1.6167,0.0,0.0,0.0,0.0,0.0,0.0,0.0,0.0,0.0,0.0,0.0,0.0,0.8827,0.9197,0.9587,1.0233,0.0,0.0,0.0,0.0,0.0,1.0191,1.0208,1.0149,1.0002,1.0107,1.0285,1.0528,1.0667,0.0,0.0,0.0,0.0,0.0,0.0,0.0,0.0,0.0,0.0,0.0,0.0,0.0,0.0,0.0,0.0,0.0,0.0,0.0,0.0,0.0,0.0,0.0,0.0,0.0,0.0,0.0,0.0,0.0,0.0,0.0,0.0,0.0,0.0,0.0,0.0,0.0,0.0,0.0,0.0,0.0,0.0,0.0,0.0,0.0,0.0,0.0,0.0,-0.8644,-0.9816,-0.9227,-1.0168,-1.0545,0.0,0.0,0.0,0.0,0.0,0.0,-1.4868,-1.6556,-1.7931,-1.8867,-2.0586,-2.1806,-2.2466,-2.3327,-2.3771,-2.3764,-2.4411,-2.4706,-2.4687,-2.5351,-2.533,-2.4739,-2.4729,-2.4366,-2.3559,-2.0939,-1.9447,-1.8633,-1.7062,-1.6399,-1.6503,-1.8028,-1.8628,-1.9003,0.0,0.0,0.0,0.0,0.0,0.0,0.0,0.0,0.0,0.0,0.0,0.7987,0.0,0.0,0.0,0.0,0.0,0.0,0.0,0.0,0.0,1.0191,1.0191,1.0144,0.9993,1.0558,0.0,0.0,0.0,0.0,0.0,0.0,0.0,0.0,0.0,0.0,0.0,0.0,0.0,0.0,0.0,0.0,0.0,0.0,0.0,0.0,0.0,0.0,0.0,0.0,0.0,0.0,0.0,0.0,0.0,0.0,0.0,0.0,0.0,0.0,0.0,0.0,0.0,0.0,0.0,0.0,0.0,0.0,0.0,0.0,0.0,0.0,0.0,0.0,0.0,0.0,0.0,0.0,0.0,-1.0202,-1.1639,0.0,0.0,0.0,0.0,-1.3378,-1.5156,-1.6644,-1.7556,-1.9265,-2.0636,-2.1575,-2.3296,-2.422,-2.4271,-2.5132,-2.5562,-2.5564,-2.56,-2.5621,-2.5633,-2.5605,-2.5625,-2.5622,-2.5637,-2.5609,-2.5363,-2.2753,-2.1608,-2.1406,-2.0488,-2.0053,-2.0068,-2.1112,-2.1443,-2.1554,0.0,0.0,0.0,0.4975,0.4898,0.488,0.4965,0.5409,0.6096,0.7054,0.7896,0.0,0.0,0.0,0.0,0.0,0.0,0.0,0.0,0.0,1.0173,1.0135,1.0147,1.029,1.0632,1.0843,1.1318,0.0,0.0,0.0,0.0,0.0,0.0,0.0,0.0,0.0,0.0,0.0,0.0,0.0,0.0,0.0,0.0,0.0,0.0,0.0,0.0,0.0,0.0,0.0,0.0,0.0,0.0,0.0,0.0,0.0,0.0,0.0,0.0,0.0,0.0,0.0,0.0,0.0,0.0,0.0,0.0,0.0,0.0,0.0,0.0,0.0,0.0,0.0,0.0,0.0,0.0,0.0,0.0,-1.208,-1.3538,0.0,-1.3183,-1.4798,-1.5941,-1.6007,-1.8297,-1.9876,-2.0293,-2.1963,-2.3072,-2.3452,-2.4629,-2.5236,-2.5234,-2.5549,-2.5691,-2.57,-2.5703,-2.5683,-2.5623,-2.5616,-2.5641,-2.57,-2.5702,-2.5698,-2.5637,-2.4698,-2.3976,-2.3354,-2.2474,-2.2112,-2.2177,-2.3052,-2.3368,-2.3474,0.5101,0.5018,0.0,0.479,0.4758,0.4766,0.476,0.5517,0.646,0.7506,0.8316,0.9166,0.0,0.0,0.0,0.0,0.0,0.0,0.0,0.0,1.015,1.0079,1.028,1.07,1.1283,1.1616,0.0,0.0,0.0,0.0,0.0,0.0,0.0,0.0,0.0,0.0,0.0,0.0,0.0,0.0,0.0,0.0,1.0107,0.0,0.0,0.0,0.0,0.0,0.0,0.0,0.0,0.0,0.0,0.0,0.0,0.0,0.0,0.0,0.0,0.0,0.0,0.0,0.0,0.0,0.0,0.0,0.0,0.0,0.0,0.0,0.0,0.0,0.0,0.0,0.0,0.0,0.0,0.0,-1.4436,-1.3968,-1.5447,-1.6226,-1.5514,-1.7342,-1.8648,-1.8773,-2.0754,-2.2159,-2.2567,-2.3661,-2.4472,-2.4827,-2.5395,-2.5707,-2.5707,-2.5707,-2.5694,-2.5702,-2.5702,-2.5683,-2.5623,-2.564,-2.5662,-2.5702,-2.5703,-2.57,-2.5705,-2.5701,-2.5356,-2.4787,-2.4202,-2.3988,-2.4046,-2.4572,-2.4778,-2.4851,0.5022,0.5062,0.4979,0.459,0.4723,0.4804,0.4549,0.5439,0.6501,0.7553,0.8349,0.0,0.0,0.0,0.0,0.0,0.0,0.0,0.0,1.0209,1.0147,1.0048,1.0662,1.1296,1.1946,0.0,0.0,0.0,0.0,0.0,0.0,0.0,0.0,0.0,0.0,0.0,0.0,0.0,0.0,0.0,0.0,0.0,1.1663,0.0,0.0,0.0,0.0,0.0,0.0,0.0,0.0,0.0,0.0,0.0,0.0,0.0,0.0,0.0,0.0,0.0,0.0,0.0,0.0,0.0,0.0,0.0,0.0,0.0,0.0,0.0,0.0,0.0,0.0,0.0,0.0,0.0,-1.4023,-1.4972,-1.5716,-1.5826,-1.7349,-1.8184,-1.77,-1.9917,-2.1436,-2.1575,-2.246,-2.3384,-2.4292,-2.4347,-2.4768,-2.5668,-2.5707,-2.5707,-2.5707,-2.5707,-2.5707,-2.5707,-2.5707,-2.5707,-2.5707,-2.5702,-2.5701,-2.5709,-2.5702,-2.57,-2.5701,-2.5701,-2.569,-2.5694,-2.5694,-2.5691,-2.5691,-2.5703,-2.5699,-2.5695,0.3498,0.4285,0.4915,0.4818,0.4779,0.4767,0.4776,0.5906,0.6943,0.7488,0.0,0.0,0.0,0.0,0.0,0.0,0.0,0.0,1.0205,0.0,1.0425,1.0915,1.0975,0.0,0.0,0.0,0.0,0.0,0.0,0.0,0.0,0.0,0.0,0.0,0.0,0.0,0.0,0.0,0.0,0.0,0.0,0.0,1.3155,0.0,0.0,0.0,0.0,0.0,0.0,0.0,0.0,0.0,0.0,0.0,0.0,0.0,0.0,0.0,0.0,0.0,0.0,0.0,0.0,0.0,0.0,0.0,0.0,0.0,0.0,0.0,0.0,0.0,0.0,0.0,0.0,-1.6195,-1.5445,-1.6682,-1.7901,-1.8584,-1.962,-2.0483,-2.0998,-2.2296,-2.3176,-2.3304,-2.427,-2.4963,-2.5235,-2.5288,-2.5432,-2.5687,-2.5707,-2.5707,-2.5707,-2.5707,-2.5707,-2.5707,-2.5707,-2.5707,-2.5707,-2.5702,-2.5701,-2.5709,-2.5702,-2.5701,-2.5705,-2.5705,-2.5703,-2.5698,-2.5701,-2.5707,-2.5703,-2.5699,-2.5699,-2.5699,0.1934,0.3091,0.4002,0.3802,0.4334,0.4772,0.4733,0.6127,0.726,0.7507,0.0,0.0,0.0,0.0,0.0,0.0,0.0,0.0,1.0202,1.0496,1.0799,0.0,0.0,0.0,0.0,0.0,0.0,0.0,0.0,0.0,0.0,0.0,0.0,0.0,0.0,0.0,0.0,0.0,0.0,0.0,0.0,0.0,1.3932,1.2821,1.2226,1.1714,0.9617,0.89,0.8316,0.4297,0.0,0.0,0.0,0.0,0.0,0.0,0.0,0.0,0.0,0.0,0.0,0.0,0.0,0.0,0.0,0.0,0.0,0.0,0.0,0.0,0.0,0.0,0.0,0.0,-1.7098,-1.8437,-1.8651,-1.9162,-1.9726,-2.0282,-2.1437,-2.24,-2.3012,-2.3894,-2.4475,-2.461,-2.5227,-2.561,-2.5595,-2.5671,-2.5693,-2.5689,-2.5707,-2.5707,-2.5709,-2.5707,-2.5707,-2.5707,-2.5707,-2.5707,-2.5707,-2.5697,-2.5697,-2.5707,-2.5698,-2.5697,-2.5707,-2.5707,-2.5705,0.0,0.0,0.0,0.0,0.0,-2.566,-2.5619,0.0389,0.1618,0.2567,0.2318,0.3612,0.4653,0.4574,0.6178,0.7431,0.7546,0.0,0.0,0.0,0.0,0.0,0.0,0.0,0.0,0.0,0.0,0.0,0.0,0.0,0.0,0.0,0.0,0.0,0.0,0.0,0.0,0.0,0.0,0.0,0.0,0.0,0.0,0.0,0.0,0.0,0.0,0.0,0.0,1.4195,1.3343,1.3251,1.3141,0.992,0.8534,0.7605,0.388,0.0,0.0,0.0,0.0,0.0,0.0,0.0,0.0,0.0,0.0,0.0,0.0,0.0,0.0,0.0,0.0,0.0,0.0,0.0,0.0,0.0,0.0,0.0,0.0,-1.9552,-2.0808,-2.2286,-2.1871,-2.14,-2.14,-2.2809,-2.3877,-2.41,-2.4822,-2.5359,-2.5484,-2.5562,-2.5595,-2.5591,0.0,0.0,0.0,0.0,-2.5709,-2.5693,-2.5709,-2.5707,-2.5707,-2.5707,-2.5707,-2.5707,-2.5707,-2.5707,-2.5707,-2.5707,-2.5707,-2.5707,-2.5707,-2.5703,-2.5696,-2.5698,-2.5696,-2.5693,-2.5684,-2.5617,-2.5532,-0.0923,0.0248,0.1405,0.2561,0.3047,0.3678,0.4805,0.6309,0.7324,0.735,0.8712,0.0,0.0,0.0,0.0,0.0,0.0,0.0,0.0,0.0,0.0,0.0,0.0,0.0,0.0,0.0,0.0,0.0,0.0,0.0,0.0,0.0,0.0,0.0,0.0,0.0,0.0,0.0,0.0,0.0,0.0,0.0,1.4183,1.3844,1.3046,1.2024,1.1373,0.9576,0.7014,0.3823,0.1821,0.0264,-0.2019,0.0,0.0,0.0,0.0,0.0,0.0,0.0,0.0,0.0,0.0,0.0,0.0,0.0,0.0,0.0,0.0,0.0,0.0,0.0,0.0,-1.8493,-2.0528,-2.2135,-2.2457,-2.2899,-2.3202,-2.3202,-2.3512,-2.4055,-2.4894,-2.5118,-2.5293,-2.5484,-2.5499,-2.554,-2.56,-2.56,-2.5644,-2.5693,-2.5693,-2.5691,-2.5709,-2.5707,-2.5707,-2.5707,0.0,0.0,-2.5707,-2.5707,-2.5707,-2.5707,-2.5707,-2.5707,-2.5707,-2.5707,-2.5676,-2.5613,-2.5687,-2.5675,-2.5604,-2.5571,-2.5566,-2.5576,-0.1741,-0.0901,-0.0152,0.0486,0.1231,0.2003,0.2729,0.4474,0.584,0.6253,0.8012,0.0,0.0,0.0,0.0,0.0,0.0,0.0,0.0,0.0,0.0,0.0,0.0,0.0,0.0,0.0,0.0,0.0,0.0,0.0,0.0,0.0,0.0,0.0,0.0,0.0,0.0,0.0,0.0,0.0,0.0,0.0,1.1655,1.254,1.2571,1.1978,1.0994,0.9756,0.7891,0.3551,0.1789,0.0711,-0.3292,-0.4355,-0.4447,0.0,0.0,0.0,0.0,0.0,0.0,0.0,0.0,0.0,0.0,0.0,0.0,0.0,0.0,-1.5166,0.0,0.0,-1.9439,-2.0951,-2.2267,-2.3253,-2.3689,-2.4087,-2.4182,-2.3746,-2.4138,-2.4652,-2.5143,-2.5284,-2.5397,-2.5484,-2.5492,-2.5504,-2.5546,-2.5609,-2.5679,-2.5703,-2.5691,-2.5694,-2.5694,-2.5693,-2.5691,-2.5691,-2.5691,-2.5709,-2.5707,-2.5707,-2.5707,-2.5707,-2.5707,-2.5707,-2.5707,-2.5654,-2.5639,-2.5601,-2.5632,-2.5625,-2.5604,-2.5556,-2.5556,-2.5529,-0.2299,-0.1857,-0.15,-0.1421,-0.0383,0.0509,0.0709,0.2746,0.4504,0.5172,0.7378,0.9096,0.9661,0.9838,0.9875,0.0,0.0,0.0,0.0,0.0,0.0,0.0,0.0,0.0,0.0,0.0,0.0,0.0,0.0,0.0,0.0,0.0,0.0,0.0,0.0,0.0,0.0,0.0,0.0,0.0,0.0,0.0,0.7989,0.9722,1.0719,1.098,0.9599,0.8717,0.7476,0.2788,0.1323,0.0593,-0.4648,-0.5643,-0.5312,-0.7486,-0.8108,0.0,0.0,0.0,0.0,0.0,0.0,0.0,0.0,0.0,-1.4152,-1.5147,-1.6122,-1.7224,-1.8659,-1.9681,-2.1076,-2.336,-2.3859,-2.42,-2.4915,-2.501,-2.4745,-2.4056,-2.4698,-2.519,-2.519,-2.5341,-2.5459,-2.5448,-2.5452,-2.5467,-2.5505,-2.5609,-2.5662,-2.5681,-2.5683,-2.5693,-2.5697,-2.5696,-2.5694,-2.5694,-2.5694,-2.5691,-2.5707,-2.5683,-2.5683,-2.5707,-2.5707,-2.5685,-2.5679,-2.5605,-2.5589,-2.5585,-2.5576,-2.5556,-2.5556,-2.558,-2.5546,-2.5479,-0.268,-0.2526,-0.1943,-0.0604,-0.0222,0.0192,0.1084,0.3255,0.4885,0.5094,0.7282,0.9059,0.9714,0.9908,1.0015,1.0047,0.0,0.0,0.0,0.0,0.0,0.0,0.0,0.0,0.0,0.0,0.0,0.0,0.0,0.0,0.0,0.0,0.0,0.0,0.0,0.0,0.0,0.0,0.0,0.0,0.0,0.0,0.4021,0.4704,0.5538,0.6481,0.7334,0.5439,0.2315,0.0965,-0.1121,-0.3805,-0.761,-0.8428,-0.8055,-0.8434,0.0,-0.8885,-0.9788,-1.0755,0.0,-1.3808,-1.3619,-1.3881,0.0,0.0,-1.7606,-1.8554,-1.9959,-2.0888,-2.0526,-2.1782,-2.3042,-2.3455,-2.4266,-2.4896,-2.4991,-2.501,-2.4999,-2.4943,-2.5037,-2.5106,-2.5106,-2.5179,-2.5254,-2.5321,-2.5312,-2.5374,-2.5492,-2.5504,-2.5546,-2.5609,-2.5668,-2.5698,-2.5696,-2.5694,-2.5698,-2.5694,-2.5694,-2.5691,-2.5707,-2.5642,-2.5645,-2.5707,-2.5707,-2.5676,-2.5605,-2.5537,-2.551,-2.551,-2.5446,-2.5418,-2.5425,-2.5499,-2.5479,-2.5387,-0.1981,-0.1853,-0.1503,-0.0741,-0.1119,-0.1398,-0.0972,0.0709,0.2529,0.4188,0.6047,0.7894,0.9658,0.9863,0.9914,0.998,0.9764,0.0,0.0,0.0,0.0,0.0,0.0,0.0,0.0,0.0,0.0,0.0,0.0,0.0,0.0,0.0,0.0,0.0,0.0,0.0,0.0,0.0,0.0,0.0,0.0,0.0,0.4388,0.2566,0.3249,0.4993,0.3516,0.2302,0.0,0.0,-0.3038,-0.4216,-0.7999,-0.8696,-0.8264,-0.9158,-0.9784,0.0,-1.2436,0.0,0.0,0.0,-1.6094,-1.6802,-1.8041,-1.8451,-1.8859,-1.9811,-2.0523,-2.1233,-2.1953,-2.2687,-2.3398,0.0,-2.4557,-2.4875,-2.4972,-2.4999,-2.5012,-2.5095,-2.5137,-2.5153,-2.5157,-2.5293,-2.5378,-2.5357,-2.5395,-2.5437,-2.5493,-2.5505,-2.5504,-2.554,-2.5609,-2.5632,-2.5648,-2.5642,-2.5645,-2.5636,-2.5636,-2.5648,-2.5636,-2.5571,-2.5552,-2.5593,-2.5616,-2.5601,-2.5537,-2.5515,-2.548,-2.5439,-2.5403,-2.5382,-2.5339,-2.5422,-2.541,-2.5398,-0.1432,-0.1277,-0.1121,-0.0984,-0.1533,-0.2062,-0.2233,-0.0989,0.0687,0.2704,0.4416,0.6332,0.8639,0.9471,0.9752,0.9441,0.956,1.0249,0.0,0.0,0.0,0.0,0.0,0.0,0.0,0.0,0.0,0.0,0.0,0.0,0.0,0.0,0.0,0.0,0.0,0.0,0.0,0.0,0.0,0.0,0.0,0.0,0.44,0.2062,0.1678,0.2099,-0.0073,-0.0,0.0,0.0,-0.4689,-0.481,-0.8675,-0.9215,-0.8697,-1.0225,-1.1271,-1.2313,-1.411,0.0,0.0,-1.6806,-1.8212,-1.9269,-1.9041,-1.9439,-2.0039,-2.0706,-2.0868,-2.125,-2.2511,-2.2952,0.0,-2.4204,-2.4569,-2.4813,-2.4999,-2.5025,-2.5051,-2.512,-2.5172,-2.5198,-2.5201,-2.5322,-2.5397,-2.535,-2.5406,-2.5448,-2.5464,-2.5499,-2.5506,-2.5499,-2.554,-2.5571,-2.5571,-2.5585,-2.5604,-2.5595,-2.5595,-2.5605,-2.5609,-2.5554,-2.5511,-2.5479,-2.5537,-2.5532,-2.5473,-2.5473,-2.5446,-2.5406,-2.5382,-2.533,-2.5313,-2.5348,-2.5374,-2.5365,-0.14,-0.1234,-0.1097,-0.1097,-0.09,-0.0947,-0.1536,-0.0488,0.0431,0.0587,0.251,0.4483,0.6132,0.8568,0.9568,0.8268,0.9341,1.0273,1.0698,1.1105,0.0,0.0,0.0,0.0,0.0,0.0,0.0,0.0,0.0,0.0,0.0,0.0,0.0,0.0,0.0,0.0,0.0,0.0,0.0,0.0,0.0,0.0,0.2663,0.3114,0.0301,-0.3797,-0.2872,0.0,0.0,0.0,-0.6068,-0.6841,-1.0468,-1.0855,0.0,-1.1863,-1.2981,0.0,0.0,0.0,-1.6671,-1.8324,-1.9453,-2.0427,-2.1457,-2.1694,-2.173,-2.1766,-2.1766,-2.1784,-2.1839,-2.2585,-2.3238,-2.3412,-2.4189,-2.4865,-2.5057,-2.5101,-2.512,-2.5195,-2.5187,-2.5198,0.0,-2.5217,-2.5198,-2.5198,-2.5271,-2.5332,-2.5387,-2.5456,-2.5492,-2.5492,-2.5506,-2.5504,-2.5504,-2.5576,-2.5598,-2.5604,-2.5604,-2.56,-2.5605,-2.5609,-2.5531,-2.5416,-2.5473,-2.5467,-2.5395,-2.5395,-2.5395,-2.5379,-2.5331,-2.5313,-2.5303,-2.5313,-2.5293,-2.5293,-0.094,-0.0808,-0.069,-0.0643,-0.049,-0.0468,-0.0756,-0.0573,-0.0038,0.0957,0.3067,0.0,0.0,0.0,0.0,0.0,0.7571,0.8547,0.9562,1.0308,0.0,0.0,0.0,0.0,0.0,0.0,0.0,0.0,0.0,0.0,0.0,0.0,0.0,0.0,0.0,0.0,0.0,0.0,0.0,0.0,0.0,0.0,0.4578,0.098,0.0647,0.1256,0.0,0.0,0.0,0.0,0.0,0.0,-0.978,0.0,0.0,-1.1801,0.0,0.0,0.0,0.0,-1.8197,-2.0064,-2.1167,-2.1641,-2.1074,-2.1382,-2.1639,-2.107,-2.0941,-2.109,-2.1641,-2.1987,-2.2423,-2.3093,-2.3534,-2.4095,-2.4869,-2.5038,-2.5113,-2.5203,-2.5203,0.0,0.0,0.0,0.0,-2.5203,-2.5222,-2.5264,-2.5321,-2.5313,-2.5322,-2.5367,-2.5363,-2.5414,-2.549,-2.5518,-2.5499,-2.5466,-2.5466,-2.5478,-2.5476,-2.5468,-2.5448,-2.5407,-2.5473,-2.5432,-2.535,-2.5425,-2.541,-2.5331,-2.5303,-2.5303,-2.5303,-2.5303,-2.5303,-2.5303,-0.0524,-0.0435,-0.0346,-0.0301,-0.0222,0.0,0.0,0.0,0.0,0.0,0.0,0.0,0.0,0.0,0.0,0.0,0.0,0.7167,0.8247,0.0,0.0,0.0,0.0,0.0,0.0,0.0,0.0,0.0,0.0,0.0,0.0,0.0,0.0,0.0,0.0,0.0,0.0,0.0,0.0,0.0,0.0,0.0,0.3339,0.0761,0.0366,0.0,0.0,0.0,0.0,0.0,0.0,0.0,0.0,0.0,0.0,0.0,0.0,-1.5819,0.0,-1.8808,-1.9566,-2.1176,-2.2171,-2.2485,-2.1387,-2.1352,-2.1225,-2.0133,-1.9694,-1.9618,-1.9857,-2.0199,-2.0813,-2.2046,-2.2566,-2.3315,-2.4714,-2.4961,-2.5069,-2.518,-2.5191,-2.5191,0.0,0.0,0.0,-2.5212,-2.5171,-2.5192,-2.5254,-2.5214,-2.5214,-2.5255,-2.5283,-2.5339,-2.544,-2.5476,-2.5484,-2.5429,-2.5429,-2.544,-2.5432,-2.5404,-2.5404,-2.544,-2.5485,-2.5437,-2.533,-2.5425,-2.5406,-2.5303,-2.5303,-2.5303,-2.5303,-2.5303,-2.5303,-2.5303,-0.0202,-0.0147,-0.009,0.0,0.0,0.0,0.0,0.0,0.0,0.0,0.0,0.0,0.0,0.0,0.0,0.0,0.0,0.0,0.0,0.0,0.0,0.0,0.0,0.0,1.0437,1.0206,0.0,0.0,0.0,0.0,0.0,0.0,0.0,0.0,0.0,0.0,0.0,0.0,0.0,0.0,0.0,0.0,-0.0632,0.2128,0.0,0.0,0.0,0.0,0.0,0.0,0.0,0.0,0.0,0.0,0.0,0.0,0.0,-1.8232,-1.8353,-1.9399,-2.0707,-2.1715,-2.2505,-2.2911,-2.2353,-2.1593,-2.0557,-1.9057,-1.8212,-1.7521,0.0,0.0,-1.8658,-2.0348,-2.1399,-2.2675,-2.4601,-2.4888,-2.4942,0.0,0.0,0.0,0.0,0.0,0.0,-2.518,0.0,-2.5115,-2.5187,-2.519,-2.5182,-2.5182,-2.5264,-2.5293,-2.5293,-2.5412,-2.5484,-2.5511,-2.5511,-2.5511,-2.5511,-2.5429,-2.5441,-2.5499,-2.5498,-2.5476,-2.5414,-2.5422,-2.5365,-2.5313,-2.5313,-2.5313,-2.5313,-2.5313,-2.5303,-2.5303,0.0,0.0,0.0,0.0,0.0,0.0,0.0,0.0,0.0,0.0,0.0,0.0,0.0,0.0,0.0,0.0,0.0,0.0,0.0,0.0,0.0,0.0,0.0,0.0,0.0,0.0,0.0,0.0,0.0,0.0,0.0,0.0,0.0,0.0,0.0,0.0,0.0,0.0,0.0,0.0,0.0,0.0,-0.0182,0.0,0.0,0.0,0.0,0.0,0.0,0.0,0.0,0.0,0.0,0.0,-1.4692,0.0,0.0,-1.8506,-1.9566,-2.0556,-2.1537,-2.2538,-2.2505,-2.206,-2.153,-2.0362,-1.9129,-1.823,-1.7485,-1.6769,-1.6082,0.0,0.0,-1.9488,-2.0923,0.0,-2.4202,-2.454,0.0,0.0,0.0,-2.4968,-2.5113,-2.5107,0.0,0.0,-2.507,-2.5038,-2.5044,-2.5051,-2.5076,-2.5118,-2.5153,-2.5179,-2.5224,-2.5303,-2.5404,-2.5511,-2.5511,-2.5511,-2.5511,-2.5429,-2.5449,-2.5493,-2.5549,-2.5531,-2.5485,-2.5537,-2.5485,-2.5369,-2.5369,-2.5379,-2.5361,-2.5361,-2.5351,-2.5303,0.0,0.0,0.0,0.0,0.0,0.0,0.0,0.0,0.0,0.0,0.0,0.0,0.0,0.0,0.0,0.0,0.0,0.0,0.0,0.0,0.0,0.0,0.0,0.0,0.0,0.0,0.0,0.0,0.0,0.0,0.0,0.0,0.0,0.0,0.0,0.0,0.0,0.0,0.0,0.0,0.0,0.0,0.0,0.0,0.0,0.0,0.0,0.0,0.0,0.0,0.0,-1.2399,-1.3037,-1.4529,-1.6047,-1.6277,0.0,-1.9658,-2.0407,-2.119,-2.1951,-2.2695,-2.2277,-2.1416,-2.0482,-1.933,-1.798,-1.6352,-1.5719,0.0,0.0,0.0,0.0,0.0,0.0,0.0,-2.4008,-2.4374,-2.4474,0.0,-2.4747,0.0,-2.4961,-2.5057,-2.5089,0.0,-2.5018,-2.5004,-2.4993,-2.5004,-2.5023,-2.5038,-2.5088,-2.513,-2.5192,-2.5244,-2.5303,-2.5412,-2.5412,-2.5448,-2.5511,-2.5456,-2.5471,-2.554,0.0,-2.5554,-2.5543,-2.5549,-2.5492,-2.5406,-2.5397,-2.5407,-2.5398,-2.5361,-2.5322,-2.5303,0.0,0.0,0.0,0.0,0.0,0.0,0.0,0.0,0.0,0.0,0.0,0.0,0.0,0.0,0.0,0.0,0.0,0.0,0.0,0.0,0.0,0.0,0.0,0.0,0.0,0.0,0.0,0.0,0.0,0.0,0.0,0.0,0.0,0.0,0.0,0.0,0.0,0.0,0.0,0.0,0.0,0.0,0.0,0.0,0.0,0.0,0.0,0.0,0.0,0.0,-1.2255,-1.3355,-1.4766,-1.6359,-1.7681,-1.7592,-1.91,-2.082,-2.1011,-2.1513,-2.2084,-2.2497,-2.1918,-2.0866,-1.9493,-1.8344,-1.6838,-1.4241,0.0,0.0,-1.1911,0.0,-1.5145,-1.7453,0.0,-2.1296,-2.386,-2.4229,-2.4302,-2.4439,-2.4613,-2.4737,-2.4775,-2.4926,-2.4999,-2.498,-2.4972,-2.4991,-2.4999,-2.5004,-2.4991,-2.5023,-2.5051,-2.5118,-2.5182,-2.5201,-2.5224,-2.5302,-2.5302,-2.5376,-2.5511,-2.5511,-2.5525,-2.5576,-2.5529,0.0,-2.5581,-2.5525,-2.5476,-2.5415,-2.5397,-2.5407,-2.5398,-2.5322,-2.5313,-2.5303,0.0,0.0,0.0,0.0,0.0,0.0,0.0,0.0,0.0,0.0,0.0,0.0,0.0,0.0,0.0,0.0,0.0,0.0,0.0,0.0,0.0,0.0,0.0,0.0,0.0,0.0,0.0,0.0,0.0,0.0,0.0,0.0,0.0,0.0,0.0,0.0,0.0,0.0,0.0,0.0,0.0,0.0,0.0,0.0,0.0,0.0,0.0,0.0,0.0,0.0,-1.2931,-1.4467,-1.5397,-1.6386,-1.7453,-1.8614,-1.9247,-1.9926,-2.1406,-2.1898,-2.2084,-2.2443,-2.1438,-2.0174,-1.9303,-1.7164,0.0,0.0,0.0,-1.1924,-1.1107,-1.2844,0.0,-1.665,0.0,0.0,0.0,0.0,-2.3979,0.0,0.0,0.0,0.0,0.0,0.0,0.0,0.0,-2.4884,-2.4991,-2.4999,-2.5031,-2.5089,-2.5038,-2.5038,-2.5126,-2.5111,-2.5179,-2.5302,-2.5302,-2.5376,-2.5511,-2.5511,-2.5517,-2.5515,-2.5504,0.0,-2.551,-2.5498,-2.5492,-2.5476,-2.5421,-2.5404,-2.5397,-2.5398,-2.5351,-2.5303,0.0,0.0,0.0,0.0,0.0,0.0,0.0,0.0,0.2702,0.0,0.0,0.0,0.0,0.0,0.0,0.0,0.0,0.0,0.0,0.0,0.0,0.0,0.0,0.0,0.0,0.0,0.0,0.0,0.0,0.0,0.0,0.0,0.0,0.0,0.0,0.0,0.0,0.0,0.0,0.0,0.0,0.0,0.0,0.0,0.0,0.0,0.0,0.0,0.0,0.0,-1.2135,-1.38,-1.5807,-1.701,-1.7827,-1.8351,-1.9022,-1.9806,-2.0622,-2.1108,-2.1462,-2.184,-2.0766,-1.9268,-1.7967,0.0,0.0,0.0,0.0,-1.0866,-1.0146,0.0,0.0,0.0,0.0,0.0,0.0,0.0,0.0,0.0,0.0,0.0,0.0,0.0,0.0,0.0,0.0,-2.4865,-2.505,-2.5044,-2.507,-2.5101,-2.5025,-2.5019,-2.505,-2.5051,-2.5113,-2.5212,-2.5234,-2.5293,-2.5404,-2.5476,-2.5498,-2.5498,-2.5506,0.0,-2.5498,-2.5506,-2.5503,-2.5484,-2.544,-2.5395,-2.5406,-2.537,-2.5351,-2.5351,0.0,0.0,0.0,0.0,0.0,0.0,0.0,0.256,0.2707,0.2667,0.2465,0.224,0.21,0.21,0.2078,0.0,0.0,0.0,0.0,0.0,0.0,0.0,0.0,0.0,0.0,0.0,0.0,0.0,0.0,0.0,0.0,0.0,0.0,0.0,0.0,0.0,0.0,0.0,0.0,0.0,0.0,0.0,0.0,0.0,0.0,0.0,0.0,0.0,0.0,0.0,-1.1037,-1.2427,-1.5211,-1.6807,-1.7666,-1.7545,-1.8482,-1.9577,-1.9751,-2.0305,-2.0893,-2.1293,-2.0221,-1.8594,-1.672,-1.5031,0.0,0.0,0.0,-0.9971,-0.9386,0.0,0.0,0.0,0.0,0.0,0.0,0.0,0.0,0.0,0.0,0.0,0.0,0.0,0.0,0.0,0.0,0.0,-2.5082,-2.5095,-2.5114,-2.5126,-2.507,-2.5025,-2.5025,-2.5004,-2.5031,-2.5101,-2.5145,-2.5224,-2.5302,-2.5412,-2.5476,-2.5499,-2.5495,0.0,0.0,-2.5495,-2.5511,-2.5484,-2.5432,-2.5395,-2.5387,-2.5341,-2.5341,-2.5379,0.0,0.0,0.0,0.0,0.0,0.0,0.0,0.2308,0.2383,0.2263,0.2289,0.2218,0.203,0.2056,0.2078,0.0,0.0,0.0,0.0,0.0,0.0,0.0,0.0,0.0,0.0,0.0,0.0,0.0,0.0,0.0,0.0,0.0,0.0,0.0,0.0,0.0,0.0,0.0,0.0,0.0,0.0,0.0,0.0,0.0,0.0,0.0,0.0,0.0,0.0,0.0,0.0,-1.0803,-1.2549,-1.4279,-1.5785,-1.6358,0.0,0.0,-1.9531,-2.0305,-2.0877,-2.1214,-2.0221,-1.8583,-1.6649,0.0,0.0,0.0,-0.9724,-0.9286,-0.9216,0.0,0.0,0.0,0.0,0.0,0.0,0.0,0.0,0.0,0.0,0.0,0.0,0.0,0.0,0.0,0.0,0.0,-2.5088,-2.5101,-2.5125,-2.5199,-2.5139,-2.5101,-2.5101,-2.5037,-2.5031,-2.5101,-2.5113,-2.5179,-2.5302,-2.5302,-2.5385,-2.5499,-2.5492,0.0,0.0,-2.5492,-2.5511,-2.5484,-2.5429,-2.5401,-2.5393,-2.5395,-2.5387,-2.5369,0.0,0.0,0.0,0.0,0.0,0.0,0.2247,0.2354,0.2392,0.2332,0.2298,0.2201,0.1964,0.2034,0.2122,0.0,0.0,0.0,0.0,0.0,0.0,0.0,0.0,0.0,0.0,0.0,0.0,0.0,0.0,0.0,0.0,0.0,0.0,0.0,0.0,0.0,0.0,0.0,0.0,0.0,0.0,0.0,0.0,0.0,0.0,0.0,0.0,0.0,0.0,0.0,0.0,0.0,-1.0228,-1.1478,0.0,0.0,-1.6011,-1.7194,-1.8455,-1.9325,-1.9919,-1.997,-1.8935,-1.7314,-1.5032,0.0,0.0,-0.9786,-0.9273,-0.9106,-0.9043,-0.9725,-1.079,0.0,0.0,0.0,0.0,0.0,0.0,0.0,0.0,0.0,0.0,0.0,0.0,0.0,0.0,0.0,-2.4856,-2.4934,-2.5044,-2.521,-2.512,-2.5101,-2.5101,-2.5037,-2.5018,-2.5032,-2.5088,-2.5122,-2.5184,-2.5265,-2.533,-2.5376,-2.5456,0.0,0.0,-2.5511,-2.5511,-2.5484,-2.5429,-2.5401,-2.5401,-2.5395,-2.5395,-2.5376,0.0,0.0,0.0,0.0,0.0,0.2048,0.2347,0.2384,0.2395,0.2431,0.2417,0.2275,0.1964,0.2078,0.2214,0.2355,0.0,0.0,0.0,0.0,0.0,0.0,0.0,0.0,0.0,0.0,0.0,0.0,0.0,0.0,0.0,0.0,0.0,0.0,0.0,0.0,0.0,0.0,0.0,0.0,0.0,0.0,0.0,0.0,0.0,0.0,0.0,0.0,0.0,0.0,0.0,0.0,0.0,0.0,0.0,0.0,-1.4692,-1.6022,-1.7166,-1.8175,-1.8881,-1.8801,-1.7761,-1.6197,0.0,0.0,-1.0926,-0.9226,-0.8925,-0.8942,-0.8869,-0.9395,-1.0161,0.0,-1.2135,-1.3669,-1.6335,0.0,0.0,0.0,0.0,0.0,0.0,0.0,0.0,0.0,0.0,0.0,-2.461,-2.4716,-2.4861,-2.5113,-2.5095,-2.5101,-2.5095,-2.5018,-2.5004,-2.5025,-2.5051,-2.5082,-2.5096,-2.5215,-2.5274,-2.5302,-2.544,0.0,0.0,-2.5511,-2.5511,-2.5511,-2.5456,-2.5429,-2.5421,-2.5359,-2.535,-2.5321,0.0,0.0,0.0,0.0,0.0,0.0,0.0,0.2342,0.2357,0.2483,0.2543,0.2448,0.2034,0.217,0.2355,0.2496,0.0,0.0,0.0,0.0,0.0,0.0,0.0,0.0,0.0,0.0,0.0,0.0,0.0,0.0,0.0,0.0,0.0,0.0,0.0,0.0,0.0,0.0,0.0,0.0,0.0,0.0,0.0,0.0,0.0,0.0,0.0,0.0,0.0,0.0,0.0,0.0,0.0,0.0,0.0,0.0,-1.3442,-1.516,-1.5844,-1.7,-1.8003,-1.8003,-1.7,-1.556,0.0,-1.226,-1.0755,-0.9134,-0.87,-0.8636,-0.8783,-0.8857,-0.944,-1.1041,-1.2135,0.0,0.0,0.0,0.0,0.0,0.0,0.0,0.0,0.0,0.0,0.0,0.0,0.0,-2.4408,-2.4407,-2.4556,-2.4902,-2.5025,-2.5095,-2.5101,-2.5031,-2.5037,-2.5101,-2.5037,-2.5038,-2.5096,-2.5171,-2.5244,0.0,0.0,0.0,0.0,-2.5511,-2.5511,-2.5511,-2.5511,-2.5511,-2.5476,-2.5284,-2.5196,-2.5154,0.0,0.0,0.0,0.0,0.0,0.0,0.0,0.2135,0.2116,0.2335,0.235,0.2285,0.2214,0.2355,0.2531,0.2766,0.0,0.0,0.0,0.0,0.0,0.0,0.0,0.0,0.0,0.0,0.0,0.0,0.0,0.0,0.0,0.0,0.0,0.0,0.0,0.0,0.0,0.0,0.0,0.0,0.0,0.0,0.0,0.0,0.0,0.0,0.0,0.0,0.0,0.0,0.0,0.0,0.0,0.0,0.0,-0.9555,-1.1308,0.0,-1.3688,-1.4571,-1.516,-1.4637,-1.4338,-1.3636,-1.1598,-1.0959,-1.0399,-0.8951,-0.8689,-0.8748,-0.8794,-0.8818,-0.9664,-1.2183,0.0,0.0,0.0,0.0,0.0,0.0,0.0,0.0,0.0,0.0,0.0,0.0,0.0,0.0,-2.3981,-2.4117,-2.4355,-2.4682,-2.4749,-2.4808,-2.4888,-2.4875,-2.495,-2.5088,-2.5031,-2.5031,-2.5101,-2.5118,-2.5168,0.0,0.0,0.0,0.0,-2.5511,-2.5511,-2.5511,-2.5511,-2.5448,-2.5359,-2.5245,-2.5173,-2.5096,0.0,0.0,0.0,0.0,0.0,0.0,0.0,0.2138,0.2106,0.2286,0.233,0.2333,0.2311,0.2543,0.2793,0.2934,0.0,0.0,0.0,0.0,0.0,0.0,0.0,0.0,0.0,0.0,0.0,0.0,0.0,0.0,0.0,0.0,0.0,0.0,0.0,0.0,0.0,0.0,0.0,0.0,0.0,0.0,-0.8959,0.0,0.0,0.0,0.0,0.0,0.0,0.0,0.0,0.0,0.0,0.0,0.0,0.0,-0.9598,-1.0952,0.0,-1.2629,-1.3045,-1.2592,-1.2423,-1.1969,-1.0499,-1.0094,-0.9761,-0.8827,-0.8665,-0.8696,-0.8748,-0.8788,-0.9584,-1.1988,0.0,0.0,0.0,0.0,0.0,0.0,0.0,0.0,0.0,0.0,0.0,0.0,0.0,0.0,-2.3649,-2.386,-2.4079,-2.4265,-2.4491,-2.4654,-2.4764,-2.4798,-2.487,-2.5019,-2.4999,-2.5018,-2.507,-2.5088,-2.5118,0.0,0.0,0.0,0.0,-2.5397,-2.5395,-2.5412,-2.5406,-2.5331,-2.5236,-2.5091,-2.5005,-2.4923,0.0,0.0,0.0,0.0,0.0,0.0,0.0,0.0,0.2285,0.2297,0.2494,0.2542,0.2392,0.2837,0.3119,0.3058,0.0,0.0,0.0,0.0,0.0,0.0,0.0,0.0,0.0,0.0,0.0,0.0,0.5078,0.4971,0.5193,0.0,0.0,0.0,0.0,0.0,0.0,0.0,0.0,0.0,0.0,-0.8896,0.0,0.0,0.0,0.0,0.0,0.0,0.0,0.0,0.0,0.0,0.0,0.0,0.0,0.0,0.0,0.0,0.0,-1.1087,-1.158,-1.1536,-1.1102,-1.058,-1.0211,-0.9607,0.0,-0.8742,-0.8575,-0.8567,-0.8813,-0.8861,-0.938,-1.1035,0.0,0.0,0.0,0.0,0.0,0.0,0.0,0.0,0.0,0.0,0.0,0.0,0.0,0.0,-2.3387,-2.3628,-2.3735,-2.3714,-2.4265,-2.4591,-2.4657,-2.4746,-2.4804,-2.4898,-2.4966,-2.4993,-2.4993,-2.5057,-2.5101,0.0,0.0,0.0,0.0,-2.5192,-2.5244,-2.5283,-2.5224,-2.5184,-2.5143,-2.4898,-2.4752,-2.4666,0.0,0.0,0.0,0.0,0.0,0.0,0.0,0.0,0.0,0.0,0.2574,0.2808,0.2962,0.3325,0.3604,0.0,0.0,0.0,0.0,0.0,0.0,0.0,0.0,0.0,0.0,0.0,0.0,0.502,0.4962,0.4923,0.4758,0.1111,0.0,0.0,0.0,0.0,0.0,0.0,0.0,0.0,-0.9344,-0.9283,0.0,0.0,0.0,0.0,-0.7969,-0.787,0.0,0.0,0.0,0.0,0.0,0.0,0.0,0.0,-0.7782,-0.8002,-0.8389,0.0,-0.9458,-0.8949,-0.9198,-0.9372,0.0,-0.891,-0.9149,0.0,0.0,-0.8889,-1.0142,-0.9814,-1.0422,0.0,0.0,0.0,0.0,0.0,0.0,0.0,0.0,0.0,0.0,0.0,0.0,0.0,0.0,-2.296,-2.3157,-2.3382,-2.3566,-2.3774,-2.4096,-2.4339,-2.4388,-2.4556,-2.4716,-2.4898,-2.4966,-2.4993,-2.4993,-2.5018,-2.5057,0.0,0.0,0.0,-2.5192,-2.5192,-2.5203,-2.5224,-2.5203,-2.5145,-2.5025,-2.4864,-2.4727,-2.4613,0.0,0.0,0.0,0.0,0.0,0.0,0.0,0.0,0.0,0.0,0.0,0.0,0.0,0.0,0.0,0.0,0.0,0.0,0.0,0.0,0.0,0.0,0.0,0.0,0.0,0.0,0.0,0.0,0.0,0.5213,0.0,0.0,0.0,0.0,0.0,0.0,0.0,0.0,0.0,0.0,-0.9388,0.0,0.0,0.0,0.0,0.0,-0.7969,-0.7783,0.0,-0.7827,-0.762,-0.7331,0.0,0.0,0.0,0.0,-0.753,-0.762,-0.7694,-0.8302,-0.889,-0.8829,-0.894,-0.9034,-0.8925,0.0,0.0,0.0,0.0,0.0,-0.9958,0.0,0.0,0.0,0.0,0.0,0.0,0.0,0.0,0.0,0.0,0.0,0.0,0.0,0.0,0.0,0.0,-2.2816,-2.3095,-2.3289,-2.3522,-2.3795,-2.4074,-2.4209,-2.4248,-2.4407,-2.4591,-2.4753,-2.4851,-2.494,-2.4985,-2.4991,-2.5018,0.0,0.0,0.0,-2.5106,-2.5106,-2.513,-2.5145,-2.513,-2.5025,-2.4902,-2.4785,-2.4673,-2.4549,0.0,0.0,0.0,0.0,0.0,0.0,0.0,0.0,0.0,0.0,0.0,0.0,0.0,0.0,0.0,0.0,0.0,0.0,0.0,0.0,0.0,0.0,0.0,0.0,0.0,0.0,0.0,0.0,0.0,0.0,0.0,0.0,0.0,0.0,0.0,0.0,0.0,0.0,0.0,0.0,0.0,0.0,0.0,0.0,0.0,0.0,0.0,0.0,0.0,-0.7739,-0.7332,-0.6756,-0.7221,0.0,0.0,0.0,0.0,0.0,-0.7629,-0.8349,-0.9161,-0.9582,-0.9332,-0.9172,-0.9864,0.0,0.0,0.0,0.0,0.0,0.0,0.0,0.0,0.0,0.0,0.0,0.0,0.0,0.0,0.0,0.0,0.0,0.0,0.0,0.0,0.0,0.0,-2.2816,-2.3045,-2.3265,-2.3482,-2.3735,-2.4036,-2.419,-2.419,-2.4338,-2.4442,-2.4566,-2.4716,-2.4851,-2.495,-2.4996,-2.501,-2.501,0.0,0.0,-2.501,-2.501,-2.5031,-2.5076,-2.5018,-2.4912,-2.4766,-2.4719,-2.4631,-2.45,0.0,0.0,0.0,0.0,0.0,0.0,0.0,0.0,0.0,0.0,0.0,0.0,0.0,0.0,0.0,0.0,0.0,0.0,0.0,0.0,0.0,0.0,0.0,0.0,0.0,0.0,0.0,0.0,0.0,0.0,0.6396,0.4186,0.1162,0.0,0.0,0.0,0.0,0.0,0.0,0.0,0.0,0.0,0.0,0.0,0.0,0.0,0.0,0.0,0.0,-0.7241,-0.6972,-0.663,-0.6705,0.0,0.0,0.0,0.0,0.0,-0.7786,-0.8825,-0.9569,-0.8881,-0.9054,-0.9449,0.0,0.0,0.0,0.0,0.0,0.0,0.0,0.0,0.0,0.0,0.0,0.0,0.0,0.0,0.0,0.0,0.0,0.0,0.0,0.0,0.0,0.0,0.0,-2.2712,-2.2764,-2.317,-2.3414,-2.3459,-2.3937,-2.419,-2.419,-2.4338,-2.4373,-2.4339,-2.4654,-2.4779,-2.4753,-2.4922,-2.501,-2.501,0.0,-2.501,-2.501,-2.501,-2.501,-2.5004,-2.4991,-2.4875,-2.4704,-2.4689,-2.4631,-2.45,0.0,0.0,0.0,0.0,0.0,0.0,0.0,0.0,0.0,0.0,0.0,0.0,0.0,0.0,0.0,0.0,0.0,0.0,0.0,0.0,0.0,0.0,0.0,0.0,0.0,0.0,0.0,0.0,0.0,0.6858,0.6956,0.5941,0.3667,0.0361,0.0,0.0,0.0,0.0,0.0,0.0,0.0,0.0,0.0,0.0,0.0,0.0,0.0,0.0,0.0,0.0,-0.6621,-0.6147,-0.6324,0.0,0.0,0.0,0.0,0.0,-0.7196,-0.8038,-0.8819,-0.8867,-0.9897,-1.0861,0.0,0.0,0.0,0.0,0.0,0.0,0.0,0.0,0.0,0.0,0.0,0.0,0.0,0.0,0.0,0.0,0.0,0.0,0.0,0.0,0.0,0.0,0.0,0.0,-2.2919,-2.3133,-2.3359,-2.3628,-2.3876,-2.4036,-2.419,-2.4229,-2.4266,-2.4303,-2.4545,-2.4657,-2.4707,-2.4908,-2.501,-2.501,0.0,-2.501,-2.501,-2.501,-2.501,-2.4996,-2.4917,-2.4813,-2.4692,-2.4631,-2.4549,-2.45,0.0,0.0,0.0,0.0,0.0,0.0,0.0,0.0,0.0,0.0,0.0,0.0,0.0,0.0,0.0,0.0,0.0,0.0,0.0,0.0,0.0,0.0,0.0,0.0,0.0,0.0,0.0,0.7633,0.7386,0.7334,0.7485,0.7485,0.6186,0.0,0.0,0.0,0.0,0.0,0.0,-0.7749,0.0,0.0,0.0,0.0,0.0,0.0,0.0,0.0,0.0,0.0,0.0,0.0,0.0,0.0,0.0,-0.6177,-0.6388,-0.654,-0.6664,-0.7305,-0.8076,-0.8727,0.0,-1.1451,0.0,0.0,0.0,0.0,0.0,0.0,0.0,0.0,0.0,0.0,0.0,0.0,0.0,0.0,0.0,0.0,0.0,0.0,0.0,0.0,0.0,0.0,0.0,0.0,-2.2995,-2.307,-2.3253,-2.3624,-2.3671,-2.3855,-2.4094,-2.4036,-2.4075,-2.4229,-2.4409,-2.4545,-2.4642,-2.4894,-2.501,-2.501,-2.501,-2.501,-2.501,-2.501,-2.501,-2.4996,-2.4889,-2.4783,-2.4676,-2.4549,-2.45,-2.45,0.0,0.0,0.0,0.0,0.0,0.0,0.0,0.0,0.0,0.0,0.0,0.0,0.0,0.0,0.0,0.0,0.0,0.0,0.0,0.0,0.0,0.0,0.0,0.0,0.0,0.8106,0.8198,0.8325,0.795,0.7753,0.7767,0.7951,0.6715,0.4348,0.0,0.0,0.0,0.0,0.0,0.0,-0.4533,0.0,0.0,0.0,0.0,0.0,0.0,0.0,0.0,0.0,0.0,0.0,0.0,0.0,-0.5184,-0.576,-0.607,-0.6307,-0.6609,-0.7318,-0.7998,-0.8003,0.0,0.0,0.0,0.0,0.0,0.0,0.0,0.0,0.0,0.0,0.0,0.0,0.0,0.0,0.0,0.0,0.0,0.0,0.0,0.0,0.0,0.0,0.0,0.0,0.0,0.0,-2.2738,-2.2952,-2.3119,-2.3151,-2.3335,-2.3566,-2.3816,-2.3774,-2.3816,-2.4036,-2.4356,-2.4459,-2.4424,-2.4813,-2.501,-2.501,-2.501,-2.501,-2.501,-2.501,-2.501,-2.501,-2.4996,-2.4861,-2.4676,-2.4549,-2.45,-2.45,0.0,0.0,0.0,0.0,0.0,0.0,0.0,0.0,0.0,0.0,0.0,0.0,0.0,0.0,0.0,0.0,0.0,0.0,0.0,0.0,0.0,0.0,0.0,0.8627,0.8546,0.8566,0.8542,0.846,0.8361,0.8329,0.8361,0.8393,0.0,0.0,0.0,0.0,0.0,0.0,0.0,0.0,-0.1105,-0.2081,0.0,0.0,0.0,0.0,0.0,0.0,0.0,0.0,-0.4632,-0.4535,0.0,-0.4736,-0.5001,-0.5261,-0.547,-0.5692,-0.5952,-0.6681,-0.7462,-0.7802,0.0,0.0,0.0,0.0,0.0,0.0,0.0,0.0,0.0,0.0,0.0,0.0,0.0,0.0,0.0,0.0,0.0,0.0,0.0,0.0,0.0,0.0,0.0,0.0,0.0,0.0,-2.2712,-2.279,-2.2944,-2.3077,-2.3182,-2.3399,-2.3795,-2.3735,-2.3795,-2.3996,-2.421,-2.4338,-2.4407,-2.4689,-2.4875,-2.501,-2.501,-2.501,-2.501,-2.501,-2.501,-2.4996,-2.4861,-2.4738,-2.4631,-2.4515,-2.45,-2.4482,0.0,0.0,0.0,0.0,0.0,0.0,0.0,0.0,0.0,0.0,0.0,0.0,0.0,0.0,0.0,0.0,0.0,0.0,0.0,0.0,0.0,0.0,0.0,0.8528,0.8612,0.8855,0.8874,0.865,0.871,0.8731,0.8733,0.0,0.0,0.0,0.0,0.0,0.0,0.0,0.0,0.0,0.2295,0.1261,0.0,0.0,0.0,0.0,0.0,0.0,0.0,0.0,-0.3836,-0.384,0.0,0.0,-0.4361,-0.4668,-0.5047,-0.5422,-0.5532,-0.6253,-0.7132,0.0,0.0,0.0,0.0,0.0,0.0,0.0,0.0,0.0,0.0,0.0,0.0,0.0,0.0,0.0,0.0,0.0,0.0,0.0,0.0,0.0,0.0,0.0,0.0,0.0,0.0,0.0,0.0,-2.2712,-2.279,-2.297,-2.2952,-2.3157,-2.358,-2.3602,-2.3689,-2.3876,-2.4037,-2.4173,-2.4301,-2.451,-2.4723,-2.4908,-2.4908,-2.4936,-2.501,-2.501,-2.501,-2.4977,-2.4798,-2.4707,-2.4645,-2.4582,-2.4515,-2.4428,0.0,0.0,0.0,0.0,0.0,0.0,0.0,0.0,0.0,0.0,0.0,0.0,0.0,0.0,0.0,0.0,0.0,0.0,0.0,0.0,0.0,0.0,0.0,0.8061,0.8193,0.8981,0.9261,0.9011,0.8996,0.8936,0.8806,0.0,0.0,0.0,0.0,0.0,0.0,0.0,0.0,0.0,0.0,0.4587,0.3223,0.0,0.0,0.0,0.0,0.0,0.0,0.0,-0.2521,-0.2298,-0.2964,0.0,0.0,-0.3956,-0.4853,-0.5558,-0.5517,-0.6186,0.0,0.0,0.0,0.0,0.0,0.0,0.0,0.0,0.0,0.0,0.0,0.0,0.0,0.0,0.0,0.0,0.0,0.0,0.0,0.0,0.0,0.0,0.0,0.0,0.0,0.0,0.0,0.0,0.0,-2.2712,-2.2712,-2.2712,-2.2712,-2.2842,-2.3095,-2.3295,-2.3468,-2.3588,-2.3795,-2.3959,-2.4116,-2.4301,-2.451,-2.4707,-2.4707,-2.4817,-2.501,-2.501,-2.501,-2.4996,-2.4856,-2.4794,-2.4779,-2.4723,-2.4526,-2.43,0.0,0.0,0.0,0.0,0.0,0.0,0.0,0.0,0.0,0.0,0.0,0.0,0.0,0.0,0.0,0.0,0.0,0.0,0.0,0.0,0.0,0.0,0.0,0.0,0.0,0.0,0.8771,0.9208,0.9216,0.9208,0.0,0.0,0.0,0.9446,0.0,0.0,0.0,0.0,0.0,0.0,0.0,0.7649,0.6113,0.0,0.0,0.0,0.0,0.0,0.0,0.0,0.0,0.0,-0.1876,0.0,0.0,-0.3307,-0.3787,-0.4311,-0.4524,0.0,0.0,0.0,0.0,0.0,0.0,0.0,0.0,0.0,0.0,0.0,0.0,0.0,0.0,0.0,0.0,0.0,0.0,0.0,0.0,0.0,0.0,0.0,0.0,0.0,0.0,0.0,0.0,0.0,0.0,-2.2712,-2.2712,-2.2712,-2.2659,-2.2764,-2.3045,-2.3247,-2.3399,-2.3544,-2.3795,-2.3959,-2.4116,-2.4155,-2.4391,-2.4707,-2.4707,-2.4817,-2.501,-2.501,-2.501,-2.4996,-2.4856,-2.4794,-2.4779,-2.4559,-2.4407,-2.4283,0.0,0.0,0.0,0.0,0.0,0.0,0.0,0.0,0.0,0.0,0.0,0.0,0.0,0.0,0.0,0.0,0.0,0.0,0.0,0.0,0.0,0.0,0.0,0.0,0.0,0.841,0.8494,0.0,0.0,0.0,0.0,0.0,0.0,0.9673,0.0,0.0,0.0,0.0,0.0,0.0,0.0,0.9372,0.8375,0.0,0.0,0.0,0.0,0.0,0.0,0.0,0.0,0.0,-0.0917,0.0,0.0,-0.2799,-0.3531,-0.423,-0.471,0.0,0.0,0.0,0.0,0.0,0.0,0.0,0.0,0.0,0.0,0.0,0.0,0.0,0.0,0.0,0.0,0.0,0.0,0.0,0.0,0.0,0.0,0.0,0.0,0.0,0.0,0.0,0.0,0.0,0.0,-2.2632,-2.2605,-2.2605,-2.2579,-2.2632,-2.2816,-2.3102,-2.3301,-2.3382,-2.371,-2.3899,-2.3979,-2.3979,-2.4155,-2.4459,-2.4626,-2.4768,-2.4894,-2.4983,-2.501,-2.4996,-2.4903,-2.4889,-2.4842,-2.4575,-2.4388,-2.4229,0.0,0.0,0.4723,0.4701,0.0,0.0,0.0,0.0,0.0,0.0,0.0,0.4885,0.0,0.0,0.0,0.481,0.0,0.0,0.0,0.0,0.0,0.0,0.0,0.0,0.0,0.0,0.0,0.0,0.0,0.0,0.0,0.0,0.9555,0.9784,0.0,0.9743,0.0,0.0,0.0,0.0,0.9844,0.9835,0.9776,0.8785,0.0,0.0,0.0,0.0,0.0,0.0,0.0,0.0,0.0022,-0.0505,-0.1014,-0.2349,-0.3633,-0.4794,0.0,0.0,0.0,0.0,0.0,0.0,0.0,0.0,0.0,0.0,0.0,0.0,0.0,0.0,0.0,0.0,0.0,0.0,0.0,0.0,0.0,0.0,0.0,0.0,0.0,0.0,0.0,0.0,0.0,0.0,0.0,-2.2525,-2.2515,-2.2515,-2.2487,-2.2487,-2.2487,-2.2944,-2.3168,-2.3193,-2.358,-2.3774,-2.3795,-2.3795,-2.3919,-2.4135,-2.4512,-2.4692,-2.4707,-2.4908,-2.4977,-2.501,-2.501,-2.4996,-2.4936,-2.467,-2.4405,-2.4155,0.0,0.0,0.4846,0.4786,0.0,0.0,0.0,0.0,0.0,0.4881,0.4934,0.4962,0.4888,0.4878,0.0,0.4885,0.4875,0.0,0.0,0.0,0.0,0.0,0.0,0.0,0.0,0.0,0.0,0.0,0.0,0.0,0.0,0.0,0.0,0.9724,0.0,0.9468,0.0,0.0,0.0,0.0,0.819,0.8513,0.888,0.7974,0.7654,0.0,0.0,0.0,0.0,0.0,0.0,0.0,0.158,0.0544,-0.0482,-0.1255,-0.2421,-0.3603,0.0,0.0,0.0,0.0,0.0,0.0,0.0,0.0,0.0,0.0,0.0,0.0,0.0,0.0,0.0,0.0,0.0,0.0,0.0,0.0,0.0,0.0,0.0,0.0,0.0,0.0,0.0,0.0,0.0,0.0,-2.2515,-2.2515,-2.2515,-2.2515,-2.246,-2.2405,-2.2405,-2.2685,-2.2902,0.0,-2.3417,-2.3642,-2.3795,-2.3795,-2.3919,-2.4098,-2.4355,-2.4543,-2.4707,-2.4738,-2.4861,-2.501,-2.501,-2.4889,-2.4738,-2.4474,-2.4229,-2.4018,0.0,0.0,0.0,0.0,0.0,0.0,0.0,0.0,0.4954,0.4949,0.4973,0.4992,0.496,0.4918,0.0,0.0,0.4922,0.4906,0.0,0.0,0.0,0.0,0.0,0.0,0.0,0.0,0.0,0.0,0.0,0.0,0.0,0.0,0.0,0.9745,0.0,0.9386,0.0,0.0,0.0,0.7613,0.7639,0.789,0.8152,0.7604,0.7327,0.7194,0.6957,0.0,0.0,0.0,0.0,0.0,0.0,0.0,0.0239,-0.0655,-0.1927,-0.3266,0.0,0.0,0.0,0.0,0.0,0.0,0.0,0.0,0.0,0.0,0.0,0.0,0.0,0.0,0.0,0.0,0.0,0.0,0.0,0.0,0.0,0.0,0.0,0.0,0.0,0.0,0.0,0.0,0.0,-2.2405,-2.246,-2.2405,-2.2405,-2.2405,-2.2366,-2.2405,-2.2542,-2.2773,-2.3035,-2.3301,-2.3513,-2.3689,-2.3795,-2.3795,-2.3858,-2.3979,-2.4174,-2.432,-2.4425,-2.461,-2.4707,-2.4719,-2.4832,-2.4738,-2.4526,-2.4266,-2.4078,-2.3955,0.0,0.0,0.0,0.0,0.0,0.0,0.0,0.0,0.0,0.4995,0.4993,0.5,0.4996,0.4944,0.4943,0.0,0.0,0.0,0.4938,0.0,0.0,0.0,0.0,0.0,0.0,0.0,0.0,0.0,0.0,0.0,0.0,0.0,0.0,0.9784,0.0,0.0,0.0,0.0,0.0,0.7167,0.7164,0.7283,0.7416,0.7098,0.6819,0.665,0.7036,0.6659,0.5983,0.6007,0.0,0.0,0.0,0.0,0.1204,-0.0043,-0.1542,-0.3064,0.0,0.0,0.0,0.0,0.0,0.0,0.0,0.0,0.0,0.0,0.0,0.0,0.0,0.0,0.0,0.0,0.0,0.0,0.0,0.0,0.0,0.0,0.0,0.0,0.0,0.0,0.0,0.0,0.0,-2.2338,-2.2394,-2.2338,-2.231,-2.231,-2.231,-2.2432,-2.2685,-2.291,-2.3206,-2.3504,-2.3689,-2.3795,-2.3795,-2.3795,-2.3795,-2.3816,-2.3979,-2.4097,-2.4192,-2.451,-2.4594,-2.4493,-2.4673,-2.4626,-2.4408,-2.4173,-2.4056,-2.3955,0.0,0.0,0.0,0.0,0.0,0.0,0.0,0.0,0.0,0.0,0.0,0.5,0.4996,0.4991,0.4993,0.4989,0.4989,0.5003,0.0,0.0,0.0,0.0,0.0,0.0,0.0,0.0,0.0,0.0,0.0,0.0,0.0,0.0,0.0,0.0,0.0,0.0,0.0,0.0,0.0,0.5428,0.5431,0.5858,0.6401,0.5612,0.5685,0.6147,0.5932,0.6062,0.6315,0.6131,0.6197,0.0,0.0,0.0,0.0,0.0,0.0,0.0,0.0,0.0,0.0,0.0,0.0,0.0,0.0,0.0,0.0,0.0,0.0,0.0,0.0,0.0,0.0,0.0,0.0,0.0,0.0,0.0,0.0,0.0,0.0,0.0,0.0,0.0,0.0,0.0,-2.231,-2.231,-2.231,-2.231,-2.231,-2.231,-2.231,-2.2432,-2.2685,-2.2738,-2.2985,-2.3504,-2.3689,-2.3795,-2.3795,-2.3795,-2.3795,-2.3795,-2.3837,-2.404,-2.4355,-2.4407,-2.4559,-2.4764,-2.4903,-2.4802,-2.4564,-2.4461,-2.4248,-2.3976,0.0,0.0,0.0,0.0,0.0,0.0,0.0,0.0,0.0,0.0,0.0,0.5057,0.5051,0.5051,0.5053,0.5059,0.5064,0.0,0.0,0.0,0.0,0.0,0.0,0.0,0.0,0.0,0.0,0.0,0.0,0.0,0.0,0.8991,0.9284,0.0,0.0,0.0,0.0,0.0,0.0,0.5735,0.5291,0.5877,0.6883,0.0,0.5823,0.6855,0.0,0.0,0.0,0.7159,0.7155,0.6761,0.5715,0.0,0.0,0.0,0.0,0.0,0.0,0.0,0.0,0.0,0.0,0.0,0.0,0.0,0.0,0.0,0.0,0.0,0.0,0.0,0.0,0.0,0.0,0.0,0.0,0.0,0.0,0.0,0.0,0.0,0.0,0.0,0.0,0.0,-2.231,-2.231,-2.231,-2.231,-2.231,-2.231,-2.231,-2.2497,-2.291,-2.291,-2.3164,-2.3685,-2.3753,-2.3795,-2.3795,-2.3795,-2.3795,-2.3816,-2.3919,-2.4059,-2.4247,-2.4476,-2.4561,-2.4528,-2.4711,-2.4615,-2.4358,-2.4303,-2.4115,-2.3876,0.0,0.0,0.0,0.0,0.0,0.0,0.0,0.0,0.0,0.0,0.0,0.5078,0.5093,0.0,0.0,0.0,0.5108,0.0,0.0,0.0,0.0,0.0,0.0,0.0,0.0,0.0,0.0,0.0,0.0,0.0,0.8422,0.8476,0.8963,0.0,0.9811,0.0,0.0,0.0,0.0,0.6579,0.598,0.662,0.7808,0.6543,0.6933,0.8118,0.0,0.0,0.0,0.0,0.0,0.0,0.0,0.0,0.0,0.0,0.0,0.0,0.0,0.0,0.0,0.0,0.0,0.0,0.0,0.0,0.0,0.0,0.0,0.0,0.0,0.0,0.0,0.0,0.0,0.0,0.0,0.0,0.0,0.0,0.0,0.0,0.0,0.0,0.0,0.0,-2.2282,-2.2282,-2.2282,-2.2282,-2.2282,-2.231,-2.231,-2.2525,-2.2985,-2.3116,-2.3399,-2.3795,-2.3795,-2.3795,-2.3795,-2.3795,-2.3795,-2.3816,-2.3959,-2.4079,-2.4192,-2.4493,-2.4528,-2.4428,-2.458,-2.4515,-2.4303,-2.4247,-2.4077,-2.3878,0.0,0.0,0.0,0.0,0.0,0.0,0.0,0.0,0.0,0.0,0.0,0.5029,0.5091,0.5095,0.5101,0.5098,0.5101,0.0,0.0,0.0,0.0,0.0,0.0,0.0,0.0,0.0,0.0,0.0,0.0,0.0,0.8495,0.85,0.8968,0.9798,0.9863,0.9406,0.8599,0.0,0.0,0.0,0.7496,0.8046,0.8918,0.876,0.9233,0.9833,0.0,0.0,0.0,0.0,0.0,0.0,0.0,0.0,0.0,0.0,0.0,0.0,0.0,0.0,0.0,0.0,0.0,0.0,0.0,0.0,0.0,0.0,0.0,0.0,0.0,0.0,0.0,0.0,0.0,0.0,0.0,0.0,0.0,0.0,0.0,0.0,0.0,0.0,0.0,0.0,-2.2214,-2.2214,-2.2214,-2.2214,-2.2225,-2.231,-2.231,-2.2432,-2.2712,-2.3247,-2.3598,-2.3795,-2.3795,-2.3795,-2.3795,-2.3795,-2.3795,-2.3795,-2.3816,-2.404,-2.4389,-2.4407,-2.451,-2.4692,-2.4749,-2.4707,-2.4582,-2.4582,-2.4374,-2.4097,0.0,0.0,0.0,0.0,0.0,0.0,0.0,0.0,0.0,0.0,0.0,0.0,0.0,0.5103,0.5106,0.5093,0.0,0.0,0.0,0.0,0.0,0.0,0.0,0.0,0.0,0.0,0.0,0.0,0.0,0.6158,0.7726,0.7779,0.8489,0.9735,0.9811,0.9688,0.9412,0.8944,0.0,0.0,0.0,0.8805,0.0,0.0,1.0094,1.164,0.0,0.0,0.0,0.0,0.0,0.0,0.0,0.0,0.6091,0.0,0.0,0.0,0.0,0.0,0.0,0.0,0.0,0.0,0.0,0.0,0.0,0.0,0.0,0.0,0.0,0.0,0.0,0.0,0.0,0.0,0.0,0.0,0.0,0.0,0.0,0.0,0.0,0.0,0.0,0.0,0.0,-2.0931,-2.1418,-2.1463,-2.1709,-2.2225,-2.2282,-2.2432,-2.2685,-2.323,-2.3549,-2.362,-2.3732,-2.3795,-2.3795,-2.3795,-2.3795,-2.3816,-2.3939,-2.4155,-2.4424,-2.4673,-2.4753,-2.4707,-2.4738,-2.4645,-2.4551,-2.4551,-2.4375,-2.4173,0.0,0.0,0.0,0.4801,0.0,0.4882,0.4897,0.4962,0.0,0.0,0.0,0.0,0.0,0.0,0.0,0.0,0.0,0.0,0.0,0.0,0.0,0.0,0.0,0.0,0.0,0.0,0.0,0.0,0.0,0.0,0.0,0.0,0.8073,0.9325,0.9071,0.0,0.0,0.0,0.0,0.9213,0.0,0.0,1.183,0.0,0.0,0.0,0.0,0.0,0.0,0.0,0.0,0.0,0.0,0.8022,0.6158,0.388,0.0,0.0,0.0,0.0,0.0,0.0,0.0,0.0,0.0,0.0,0.0,0.0,0.0,0.0,0.0,0.0,0.0,0.0,0.0,0.0,0.0,0.0,0.0,0.0,0.0,0.0,0.0,0.0,0.0,0.0,0.0,0.0,-2.0548,-2.0619,-2.0881,-2.144,-2.1495,-2.1812,-2.2426,-2.2776,-2.3195,-2.3598,-2.3732,-2.3795,-2.3795,-2.3795,-2.3795,-2.3816,-2.4001,-2.4211,-2.4424,-2.4738,-2.4802,-2.4707,-2.4676,-2.4599,-2.45,-2.4429,-2.4284,-2.4135,0.4702,0.4753,0.4815,0.4835,0.4838,0.4868,0.4953,0.501,0.5046,0.0,0.0,0.0,0.0,0.0,0.0,0.0,0.0,0.0,0.0,0.0,0.0,0.0,0.0,0.0,0.0,0.0,0.0,0.0,0.0,0.0,0.0,0.0,0.7736,0.0,0.7674,0.825,0.9875,0.0,1.0034,1.0212,0.0,1.2004,1.2928,0.0,0.0,0.0,1.4237,1.384,0.0,0.0,0.0,0.0,0.0,0.0,0.6461,0.5473,0.0,0.0,0.0,0.0,0.0,0.0,0.0,0.0,0.0,0.0,0.0,0.0,0.0,0.0,0.0,0.0,0.0,0.0,0.0,0.0,0.0,0.0,0.0,0.0,0.0,0.0,0.0,0.0,0.0,0.0,-1.9651,-1.9624,-1.9641,-1.9701,-1.977,-1.9984,-1.9984,-2.0592,-2.182,-2.1861,-2.25,-2.3738,-2.3759,-2.3777,-2.3795,-2.3795,-2.3795,-2.3816,-2.4001,-2.4211,-2.4389,-2.4547,-2.4629,-2.4692,-2.4613,-2.4549,-2.4482,-2.4284,-2.4115,-2.4036,0.4683,0.471,0.4917,0.55,0.5647,0.5886,0.6537,0.6161,0.603,0.0,0.0,0.0,0.0,0.0,0.0,0.0,0.0,0.0,0.0,0.0,0.0,0.0,0.0,0.0,0.0,0.0,0.0,0.0,0.0,0.0,0.0,0.0,0.0,0.0,0.7459,0.7986,0.9034,0.9056,0.0,0.0,1.0612,1.1754,0.0,0.0,0.0,0.0,0.0,1.4441,0.0,0.0,1.2776,1.1718,0.0,0.0,0.0,0.5724,0.4051,0.0,0.0103,0.0,0.0,0.0,0.0,0.0,0.0,0.0,0.0,0.0,0.0,0.0,0.0,0.0,0.0,0.0,0.0,0.0,0.0,0.0,0.0,0.0,0.0,0.0,0.0,0.0,0.0,0.0,-1.812,-1.8311,-1.8825,-1.9365,-1.977,-1.9984,-1.9933,-2.012,-2.0524,-2.086,-2.1497,-2.242,-2.2818,-2.3288,-2.3795,-2.3795,-2.3795,-2.3816,-2.4001,-2.4117,-2.4192,-2.4337,-2.4424,-2.4476,-2.4302,-2.4266,-2.4248,-2.4096,-2.4077,-2.4135,0.5135,0.5399,0.5794,0.6305,0.6459,0.6674,0.718,0.69,0.6835,0.0,0.0,0.0,0.0,0.0,0.0,0.0,0.0,0.0,0.0,0.0,0.0,0.5051,0.504,0.0,0.0,0.0,0.0,0.0,0.0,0.0,0.0,0.0,0.0,0.0,0.0,0.7269,0.8713,0.0,0.0,0.0,1.108,0.0,0.0,1.3784,1.4512,0.0,0.0,0.0,1.5037,1.5007,1.4036,0.0,0.0,0.0,0.9213,0.717,0.0,0.0,0.0,0.0,0.0,0.0,0.0,0.0,0.0,0.0,0.0,0.0,0.0,0.0,0.0,0.0,0.0,0.0,0.0,0.0,0.0,0.0,0.0,0.0,0.0,0.0,0.0,-1.7232,-1.7281,-1.7273,-1.7273,-1.7519,-1.8054,-1.8535,-1.8843,-1.8943,-1.891,-1.9126,-1.9617,-1.9918,-2.0573,-2.1574,-2.2228,-2.2808,-2.3343,-2.365,-2.3795,-2.3816,-2.3921,-2.3961,-2.3979,-2.402,-2.4155,-2.4302,-2.4173,-2.4096,-2.4096,-2.3937,-2.3978,-2.4096,0.0,0.6464,0.6977,0.7182,0.7267,0.7354,0.7434,0.749,0.7549,0.0,0.0,0.0,0.0,0.0,0.0,0.0,0.0,0.0,0.0,0.0,0.0,0.5,0.5049,0.5062,0.0,0.0,0.0,0.0,0.0,0.0,0.0,0.0,0.0,0.0,0.535,0.6362,0.86,0.7823,0.0,1.0381,1.1937,1.2715,0.0,0.0,1.533,0.0,1.6387,1.661,1.6519,1.66,1.5447,0.0,0.0,1.1594,1.1212,0.9329,0.773,0.0,0.0,0.0,0.0,0.0,0.0,0.0,-0.7566,-0.7559,0.0,0.0,0.0,0.0,0.0,0.0,0.0,0.0,0.0,0.0,0.0,0.0,0.0,0.0,0.0,0.0,-1.6623,-1.6815,-1.6968,-1.6993,-1.7018,-1.7199,-1.7474,-1.7515,-1.7498,-1.7512,-1.7489,-1.796,-1.8916,-1.9018,-1.9682,-2.0936,-2.1768,-2.2363,-2.2707,-2.3469,-2.3795,-2.3795,-2.3795,-2.3795,-2.3795,-2.3725,-2.3894,-2.4154,-2.4056,-2.4014,-2.3937,-2.3753,-2.3795,-2.3937,0.6673,0.684,0.7187,0.7861,0.8001,0.8229,0.8938,0.857,0.0,0.0,0.0,0.0,0.0,0.0,0.0,0.0,0.0,0.0,0.0,0.0,0.5742,0.5036,0.501,0.5017,0.5,0.0,0.0,0.0,0.0,0.0,0.0,0.0,0.0,0.0,0.5075,0.6029,0.7736,0.7578,0.0,1.1175,1.1516,0.0,1.3812,1.4199,1.4797,1.5506,1.6338,1.6605,1.6672,0.0,1.6855,1.58,0.0,0.0,0.0,0.0,0.0,0.8243,0.5028,0.2762,0.0546,0.0,0.0,0.0,0.0,-0.6562,0.0,0.0,0.0,0.0,0.0,0.0,0.0,0.0,0.0,0.0,0.0,0.0,0.0,0.0,0.0,0.0,-1.6528,-1.6607,-1.6763,-1.6993,-1.7248,-1.7427,-1.7515,-1.7515,-1.7498,-1.7512,-1.7505,-1.7619,-1.7906,-1.8065,-1.8706,-1.9833,-2.0859,-2.178,-2.265,-2.343,-2.3795,-2.3795,-2.3795,-2.3795,-2.3795,-2.3786,-2.3852,-2.3937,-2.3721,-2.3682,-2.3753,-2.3594,-2.362,-2.3732,0.7329,0.7727,0.818,0.8611,0.8779,0.8989,0.9428,0.9245,0.0,0.0,0.0,0.0,0.0,0.0,0.0,0.0,0.0,0.0,0.0,0.0,0.6072,0.5673,0.5225,0.5003,0.4998,0.4995,0.0,0.0,0.0,0.0,0.0,0.0,0.0,0.0,0.0,0.0,0.0,0.0,0.9157,1.0835,1.1698,0.0,1.4106,1.4564,1.5017,1.5565,1.6792,1.7511,1.7781,1.7343,1.6909,0.0,0.0,1.4737,1.4666,0.0,1.2016,1.0908,0.0,0.0,0.1995,-0.1119,0.0,0.0,0.0,0.0,-0.6422,0.0,0.0,0.0,0.0,0.0,0.0,0.0,0.0,0.0,0.0,0.0,0.0,0.0,0.0,0.0,-1.563,-1.6045,-1.649,-1.6789,-1.7084,-1.7338,-1.7474,-1.7515,-1.7498,-1.7505,-1.7498,-1.7522,-1.7552,-1.7652,-1.8092,-1.8861,-1.9837,-2.0906,-2.2034,-2.2831,-2.3412,-2.3795,-2.3795,-2.3795,-2.3795,-2.3747,-2.3765,-2.3789,-2.3629,-2.3567,-2.3576,-2.3522,-2.3576,-2.3671,0.8001,0.8627,0.9143,0.9231,0.9367,0.9483,0.9483,0.9583,0.0,0.0,0.0,0.0,0.0,0.0,0.0,0.0,0.0,0.0,0.0,0.0,0.0,0.6557,0.572,0.5252,0.5242,0.5089,0.4997,0.0,0.0,0.0,0.0,0.0,0.0,0.0,0.0,0.0,0.0,0.0,0.0,1.0716,0.0,1.3044,1.3698,1.4712,1.5218,1.5601,1.745,1.8639,1.91,1.7582,0.0,1.6717,1.5092,1.5477,0.0,0.0,0.0,0.0,0.0,0.0,0.0,0.0,0.0,-0.3953,0.0,0.0,0.0,-0.7528,0.0,0.0,0.0,0.0,0.0,0.0,0.0,0.0,0.0,0.0,0.0,0.0,0.0,0.0,0.0,-1.5163,-1.5748,-1.6109,-1.6465,-1.684,-1.7195,-1.7408,-1.7515,-1.7515,-1.7515,-1.7515,-1.7515,-1.7505,-1.7704,-1.8142,-1.9052,-2.0117,-2.1324,-2.2195,-2.3048,-2.3813,-2.3795,-2.3795,-2.3795,-2.3725,-2.37,-2.37,-2.3607,-2.3539,-2.3494,-2.3494,-2.3571,-2.3646,0.8838,0.9036,0.9226,0.9357,0.9394,0.9412,0.9412,0.9474,0.0,0.0,0.0,0.0,0.0,0.0,0.0,0.0,0.0,0.0,0.9957,0.0,0.0,0.7493,0.6612,0.6144,0.6143,0.5396,0.5003,0.0,0.0,0.0,0.0,0.0,0.615,0.6324,0.6992,0.0,0.0,0.0,1.0135,0.0,1.256,1.2243,0.0,1.3466,1.4549,1.5531,1.7992,1.9439,2.003,0.0,1.8809,1.8511,0.0,1.6952,0.0,0.0,0.0,0.0,0.0,0.0,0.0,0.0,0.0,0.0,0.0,0.0,-0.708,-0.711,0.0,0.0,0.0,0.0,0.0,0.0,0.0,0.0,0.0,0.0,0.0,0.0,0.0,0.0,0.0,-1.3719,-1.3914,-1.4426,-1.5117,-1.5676,-1.6157,-1.7016,-1.7515,-1.7515,-1.7515,-1.7515,-1.7515,-1.7498,-1.7622,-1.7856,-1.8901,-1.9948,-2.0983,-2.2093,-2.3046,-2.3786,-2.3792,-2.3795,-2.3795,-2.3725,-2.37,-2.3678,-2.3562,-2.3517,-2.3494,-2.3494,-2.3517,-2.3522,0.8806,0.8936,0.9064,0.9146,0.9226,0.9311,0.9385,0.9852,0.0,0.0,0.0,0.0,0.0,0.0,0.0,0.0,0.0,1.0794,0.0,0.0,0.0,0.8253,0.737,0.6888,0.6936,0.612,0.5701,0.5697,0.523,0.0,0.0,0.0,0.6482,0.7027,0.7805,0.0,1.016,0.0,0.0,0.0,0.0,0.0,0.0,1.3802,1.5499,1.6856,1.8439,1.953,2.0034,0.0,1.8277,0.0,0.0,0.0,0.0,0.0,0.0,0.0,0.0,0.0,0.0,0.0,0.0,0.0,-0.426,0.0,-0.6617,0.0,0.0,0.0,0.0,0.0,0.0,0.0,0.0,0.0,0.0,0.0,0.0,0.0,0.0,0.0,0.0,0.0,0.0,0.0,-1.4335,-1.4891,-1.5947,-1.6532,-1.7067,-1.7498,-1.7515,-1.7515,-1.7515,-1.7515,-1.7616,-1.7811,-1.8295,-1.9273,-2.0683,-2.1402,-2.2371,-2.3518,-2.3732,-2.3795,-2.3795,-2.3725,-2.37,-2.3678,-2.3544,-2.3494,-2.3494,-2.3494,-2.3494,-2.3494,0.8705,0.0,0.0,0.0,0.9106,0.9206,0.9329,0.9877,1.0212,0.0,0.0,0.0,1.1977,1.1954,0.0,0.0,0.0,1.1677,0.0,0.0,0.9374,0.9391,0.8269,0.0,0.0,0.0,0.6542,0.6531,0.597,0.0,0.0,0.0,0.0,0.7894,0.0,0.9863,1.1188,0.0,0.0,1.1914,1.1964,1.2262,1.2915,1.4812,1.6554,1.8086,1.8989,1.9687,1.992,1.8423,1.7985,0.0,1.7779,0.0,0.0,0.0,0.0,0.0,1.5621,0.0,0.0,0.0,0.0,0.0,0.0,0.0,0.0,0.0,0.0,0.0,0.0,0.0,0.0,0.0,0.0,0.0,0.0,0.0,0.0,0.0,0.0,0.0,0.0,0.0,0.0,0.0,0.0,-1.3916,-1.5531,-1.6053,-1.6667,-1.7458,-1.7515,-1.7515,-1.7515,-1.7515,-1.7616,-1.7811,-1.7856,-1.8682,-2.0188,-2.0809,-2.1793,-2.3038,-2.3559,-2.3795,-2.3795,-2.3725,-2.37,-2.3678,-2.3544,-2.3494,-2.3494,-2.3494,-2.3494,-2.3494,0.8705,0.8806,0.0,0.0,0.0,0.913,0.9201,0.9229,0.9586,0.0,0.0,0.0,0.0,0.0,0.0,0.0,0.0,1.2629,1.3462,0.0,1.1049,0.0,0.0,0.8587,0.0,0.0,0.7424,0.7364,0.7399,0.7429,0.0,0.0,0.0,0.0,0.0,1.0464,1.1302,1.1272,1.2204,1.3717,1.3716,1.4733,1.6258,0.0,1.7331,1.8802,1.9809,0.0,0.0,1.9043,1.8756,0.0,0.0,0.0,0.0,0.0,0.0,0.0,0.0,0.0,0.0,1.0657,0.0,0.0,0.0,0.0,-0.8635,0.0,0.0,0.0,0.0,0.0,0.0,0.0,0.0,0.0,0.0,0.0,0.0,0.0,0.0,0.0,0.0,0.0,0.0,0.0,0.0,0.0,-1.454,-1.5515,-1.6471,-1.7458,-1.7515,-1.7515,-1.7515,-1.7515,-1.7616,-1.7811,-1.7811,-1.8336,-1.9376,-2.0502,-2.1448,-2.2282,-2.3343,-2.3795,-2.3795,-2.3725,-2.37,-2.3678,-2.3544,-2.3494,-2.3494,-2.3494,-2.3494,-2.3494,0.0,0.0,0.0,0.0,0.0,0.0,0.9771,1.0425,1.1155,0.0,0.0,0.0,0.0,0.0,1.555,0.0,0.0,1.4653,1.4408,1.3323,0.0,0.0,0.0,1.0767,0.0,0.0,0.8787,0.8199,0.7688,0.7442,0.0,0.0,0.0,0.0,0.0,1.0671,0.0,0.0,0.0,0.0,0.0,1.6494,1.8045,0.0,0.0,1.881,1.9633,1.9907,0.0,1.9503,1.9075,1.8707,1.9001,1.845,1.7795,1.8239,1.8155,0.0,0.0,0.0,1.7244,1.3171,0.0,0.0,0.0,0.0,0.0,0.0,0.0,0.0,0.0,0.0,0.0,0.0,0.0,0.0,0.0,0.0,0.0,0.0,0.0,0.0,0.0,0.0,0.0,0.0,-1.0894,0.0,0.0,-1.4798,-1.5785,-1.6752,-1.7249,-1.7515,-1.7515,-1.7515,-1.7616,-1.7811,-1.7675,-1.8131,-1.9132,-2.0091,-2.0953,-2.1753,-2.3038,-2.3598,-2.3598,-2.3486,-2.3549,-2.3678,-2.336,-2.3336,-2.3494,-2.3494,-2.3494,-2.3494,0.8705,0.0,0.0,0.0,0.0,0.0,0.0,0.0,0.0,0.0,1.42,0.0,1.6456,0.0,1.6601,0.0,1.682,1.6004,1.5202,1.466,0.0,1.3284,1.2871,0.0,0.0,0.0,1.0351,0.9494,0.8961,0.8567,0.0,0.0,0.0,0.0,0.0,0.0,0.0,0.0,1.3384,0.0,0.0,1.7822,0.0,0.0,1.9065,1.9111,0.0,1.9751,1.9713,1.9662,1.9338,1.9087,1.9575,1.8998,1.8232,1.8852,1.8667,1.819,1.7911,1.8556,0.0,1.5284,1.1561,0.0,0.3819,0.0,0.0,0.0,0.0,0.0,0.0,0.0,0.0,0.0,0.0,0.0,0.0,0.0,0.0,0.0,0.0,0.0,0.0,0.0,-0.9483,-1.0556,0.0,0.0,0.0,0.0,-1.5281,-1.6219,-1.707,-1.7515,-1.7515,-1.7515,-1.7646,-1.7949,-1.7635,-1.7979,-1.8901,-1.9878,-2.0601,-2.1233,-2.2822,-2.3458,-2.3371,-2.344,-2.344,-2.3412,-2.3295,-2.3313,-2.336,-2.3453,-2.3494,-2.3494,0.0,0.0,0.0,0.0,0.9303,0.0,0.0,0.0,1.3042,0.0,1.516,1.6317,1.7894,1.745,1.7325,1.8093,1.7518,0.0,1.5962,1.5986,0.0,0.0,1.412,1.3717,1.3755,0.0,0.0,0.0,0.0,0.0,0.0,0.0,0.0,0.0,0.985,0.0,1.2444,1.3274,1.4684,1.6512,1.8183,1.8783,1.8745,1.9425,1.9688,1.9657,1.9676,1.963,1.9555,1.9499,1.9569,1.9675,1.9609,1.9601,1.9591,1.9736,1.9698,1.9477,1.8974,1.9168,1.9032,1.7045,1.0882,0.0,0.0,0.0,-0.6739,0.0,0.0,0.0,0.0,0.0,0.0,0.0,0.0,0.0,0.0,0.0,0.0,0.0,0.0,0.0,0.0,0.0,-0.8869,-0.992,-1.0058,0.0,0.0,0.0,-1.4982,-1.5931,-1.6967,-1.7498,-1.7498,-1.7498,-1.7743,-1.8208,-1.7749,-1.791,-1.8638,-1.9772,-2.0437,-2.0805,-2.2673,-2.3324,-2.3157,-2.3594,-2.3435,-2.2943,-2.3407,-2.3383,-2.3144,-2.3424,-2.3494,-2.3494,0.8705,0.9141,0.9523,0.0,0.9305,0.9673,0.0,0.0,0.0,0.0,1.6691,1.7783,1.8846,1.88,1.8761,1.8962,1.886,0.0,0.0,0.0,0.0,1.6688,1.6391,1.5741,1.4627,1.3799,0.0,1.1112,0.0,0.0,0.9728,0.0,0.0,0.0,0.0,0.0,1.2346,1.2629,1.4465,1.7339,1.8922,1.9563,0.0,0.0,1.9453,1.932,1.9219,1.9159,1.9162,1.9178,1.9292,1.9416,1.9504,1.9402,1.9246,1.939,1.9407,1.9369,1.9336,1.9513,1.9564,1.894,1.6363,1.2401,0.0,0.0,0.0,0.0,0.0,0.0,0.0,0.0,0.0,0.0,0.0,0.0,0.0,0.0,0.0,0.0,0.0,0.0,0.0,-0.8682,-0.9173,-0.9944,-1.002,0.0,0.0,0.0,0.0,-1.5233,-1.672,-1.7569,-1.7737,-1.7569,-1.7816,-1.8415,-1.7997,-1.8103,-1.8695,-1.9784,-2.0353,-2.0575,-2.24,-2.3164,-2.3133,-2.3348,-2.3324,-2.3206,-2.3223,-2.3289,-2.3424,-2.3453,-2.3494,-2.3494,0.9112,0.0,0.0,1.1181,0.0,0.0,1.2546,0.0,0.0,1.6174,1.7289,0.0,1.8709,1.9087,1.9305,1.9305,1.9357,0.0,0.0,0.0,0.0,1.7727,1.7696,1.7272,1.6357,1.5244,0.0,1.2055,0.0,0.0,0.9649,0.0,0.0,0.0,0.0,1.0619,0.0,1.3886,1.5847,1.8017,1.9288,0.0,0.0,1.955,1.9283,1.8978,1.893,1.8913,1.893,1.9016,1.9102,1.9202,1.9326,1.9368,1.9353,1.9243,1.9328,1.9481,1.9503,1.9537,1.9604,1.9742,1.7178,1.3641,0.9948,0.3989,-0.0363,0.0,-0.0772,-0.2967,0.0,0.0,0.0,0.0,0.0,0.0,0.0,0.0,0.0,0.0,0.0,0.0,-0.8781,-0.8922,-0.9266,-0.9716,-1.0127,0.0,0.0,0.0,0.0,-1.4815,-1.6246,-1.7236,-1.7669,-1.7669,-1.791,-1.8413,-1.8208,-1.8563,-1.9416,-2.018,-2.0796,-2.1318,-2.2676,-2.3157,-2.2935,-2.3212,-2.3164,-2.296,-2.3052,-2.3193,-2.3336,-2.3471,-2.3494,-2.3494,0.0,0.0,0.0,0.0,0.0,0.0,0.0,1.4617,0.0,1.6796,0.0,1.825,1.8547,1.9216,1.9635,1.9635,0.0,1.9323,1.8558,1.9177,1.9206,1.8389,1.8411,1.8369,1.8226,1.6699,0.0,0.0,0.0,0.0,0.0,0.0,0.0,0.0,0.0,0.0,0.0,1.5889,1.7738,0.0,1.9413,1.963,1.9423,1.9456,1.9164,1.8716,1.8807,1.8789,1.877,1.8896,1.8949,1.9002,1.9135,1.9365,1.955,1.9225,1.9361,1.9604,1.9518,1.9398,1.9243,1.9056,1.5678,1.2372,1.2387,0.5324,-0.0126,0.3756,0.2036,-0.1545,0.0,0.0,0.0,0.0,0.0,0.0,0.0,0.0,0.0,0.0,0.0,0.0,0.0,-0.9281,-0.9402,-0.945,-1.0229,0.0,0.0,0.0,0.0,-1.4633,-1.5791,-1.6774,-1.7576,-1.7766,-1.8018,-1.8391,-1.8406,-1.9066,-2.03,-2.0667,-2.1361,-2.2335,-2.3142,-2.3247,-2.2825,-2.32,-2.3074,-2.2659,-2.2995,-2.3119,-2.3193,-2.3407,-2.3494,-2.3494,0.0,0.0,0.0,0.0,0.0,1.6225,1.7119,1.6503,1.657,1.8284,1.9338,2.0257,2.1053,2.1272,2.1362,2.1362,2.117,0.0,0.0,0.0,0.0,1.9221,1.9199,1.8929,1.8289,1.6718,1.5051,0.0,1.1829,1.0564,0.0,0.0,0.0,0.0,0.0,0.0,1.3449,1.6214,0.0,1.8718,1.9364,1.9596,1.9541,1.9341,1.9084,1.8878,1.8949,1.8752,1.8485,1.8563,1.8714,1.8861,1.8999,1.9031,1.9081,1.9305,1.9271,1.924,1.9376,1.9365,1.8413,1.4731,1.5976,1.4813,0.2367,0.1006,0.1327,-0.239,-0.3666,-0.4455,-0.5581,0.0,0.0,0.0,0.0,0.0,0.0,0.0,0.0,0.0,0.0,0.0,0.0,0.0,-1.0117,0.0,0.0,0.0,0.0,0.0,0.0,0.0,-1.5874,0.0,0.0,0.0,-1.8001,-1.8861,-1.8563,-1.9066,-2.0336,-2.0827,-2.1508,-2.2335,-2.3142,-2.3458,-2.3389,-2.3616,-2.3571,-2.3401,-2.3193,-2.3241,-2.3448,-2.3494,-2.3494,-2.3494,0.0,0.0,0.0,0.0,0.0,0.0,0.0,1.8472,0.0,1.9198,1.9619,2.0112,2.0696,2.1131,2.1384,2.1384,2.1327,2.1184,2.0934,2.0463,2.0083,1.9823,1.9451,0.0,1.8611,1.7499,1.6125,1.4447,1.2866,1.1394,0.0,0.0,0.0,0.0,0.0,1.1993,0.0,0.0,0.0,1.8503,1.9179,1.9394,1.932,1.9198,1.9016,1.886,1.8966,1.8715,1.8388,1.8603,1.8641,1.8677,1.8895,1.8999,1.9084,1.9198,1.9243,1.9274,1.9323,1.9357,1.8238,1.3638,1.4239,1.3436,0.3744,0.0634,-0.0919,-0.3408,-0.4492,-0.5226,-0.6027,-1.1112,0.0,0.0,0.0,0.0,0.0,0.0,0.0,0.0,0.0,0.0,0.0,0.0,0.0,0.0,0.0,0.0,0.0,0.0,0.0,0.0,0.0,0.0,-1.7816,0.0,-1.7992,-1.8505,-1.8988,-1.9767,-2.0802,-2.1574,-2.2365,-2.3102,-2.3502,-2.3598,-2.3504,-2.3544,-2.3476,-2.3407,-2.3336,-2.3289,-2.3313,-2.3448,-2.3319,-2.3109,0.0,1.6371,0.0,0.0,1.846,0.0,1.927,2.0147,2.0629,2.0159,2.0035,2.0127,2.0498,2.1111,2.1526,2.1526,2.1565,2.1596,2.1536,2.0964,2.0569,2.0407,1.9884,1.9432,1.9183,1.8509,1.7288,0.0,1.4144,0.0,0.0,0.0,1.0022,1.0196,0.0,0.0,0.0,0.0,1.804,1.8809,1.9564,1.9787,1.9641,1.9608,1.9505,1.9381,1.9506,1.9289,1.8964,1.9272,1.8964,1.8561,1.9003,1.9126,1.9135,1.9153,1.9232,1.9078,1.8136,1.8592,1.7819,1.1339,1.123,1.1059,0.4724,-0.0187,-0.3638,-0.4389,-0.5959,-0.7408,-0.807,-1.2909,0.0,0.0,0.0,0.0,0.0,0.0,0.0,0.0,0.0,0.0,0.0,0.0,0.0,0.0,0.0,0.0,-1.093,0.0,0.0,0.0,0.0,-1.6034,-1.7406,0.0,-1.8051,-1.8332,-1.9409,-2.0466,-2.1453,-2.2301,-2.3107,-2.3795,-2.3795,-2.371,-2.3553,-2.3435,-2.3342,-2.3324,-2.3453,-2.336,-2.3217,-2.3407,-2.3223,-2.2935,0.0,0.0,0.0,0.0,0.0,0.0,1.9798,2.1123,2.2036,2.1809,2.1819,2.2139,2.2909,2.3079,2.3178,2.3178,2.3024,2.2735,2.2253,2.1914,2.1556,2.1133,2.1087,2.0767,2.0083,1.9359,1.7848,0.0,0.0,1.302,0.0,1.1391,1.2139,1.2877,1.3819,0.0,0.0,1.8752,1.9931,2.0639,2.1432,2.1625,2.1441,2.1316,2.126,2.1259,2.1334,2.1224,2.1033,2.1206,2.0026,1.8647,1.9587,1.9452,1.8982,1.928,1.9166,1.811,1.4268,1.6165,1.6226,0.3755,0.6748,0.9326,-0.3907,-0.495,-0.4477,-0.9269,-1.2605,-1.4288,-1.302,-1.6059,-1.783,0.0,0.0,0.0,0.0,0.0,0.0,0.0,0.0,0.0,0.0,0.0,0.0,0.0,0.0,0.0,0.0,0.0,0.0,-1.4658,-1.5286,-1.6096,-1.7218,-1.7514,-1.8223,-1.9356,-1.9556,-2.053,-2.2192,-2.2553,-2.3107,-2.3795,-2.3795,-2.3795,-2.3753,-2.3682,-2.3656,-2.3656,-2.3522,-2.3494,-2.3471,-2.3494,-2.3471,-2.343,0.0,0.0,0.0,0.0,0.0,0.0,0.0,2.1821,2.2275,2.2194,2.2272,2.2478,2.2832,2.2943,2.2993,2.2993,2.3035,2.2979,2.2669,2.2334,2.2034,2.1754,2.1417,2.1103,2.0876,2.0156,1.907,0.0,0.0,0.0,0.0,1.3353,1.3787,1.4678,0.0,1.6864,1.8518,1.9664,2.064,2.1419,2.1514,2.1589,2.1571,2.1477,2.1438,2.1457,2.1552,2.1497,2.1457,2.2117,2.1367,2.0196,2.0692,2.0679,2.0481,2.0658,2.0658,1.9452,1.4304,1.6767,1.7327,0.2723,0.4085,0.6186,-0.4646,-0.7005,-0.7449,-0.94,-1.2385,-1.4635,-1.4484,-1.5891,-1.7117,-1.7195,0.0,0.0,0.0,0.0,0.0,0.0,0.0,0.0,0.0,0.0,0.0,0.0,0.0,-1.0128,-1.0795,0.0,0.0,-1.4106,0.0,-1.6213,-1.7018,-1.7569,-1.8263,-1.9081,-1.9757,-2.0697,-2.189,-2.2605,-2.3092,-2.3382,-2.3382,-2.3382,-2.3359,-2.3259,-2.323,-2.3206,-2.306,-2.301,-2.301,-2.301,-2.2892,-2.2747,1.9876,0.0,1.9064,0.0,2.1102,2.1886,2.2044,2.2192,2.231,2.231,2.2394,2.2487,2.2569,2.2632,2.2685,2.2712,2.2919,2.302,2.297,2.2717,2.2576,2.2508,2.2125,0.0,2.1664,2.1164,2.0427,1.9448,1.834,0.0,0.0,1.5189,1.5714,1.7101,1.7679,1.8779,2.0203,2.0851,2.1512,2.2098,2.2095,2.2126,2.2147,2.2124,2.2104,2.2124,2.2262,2.2263,2.2297,2.3051,2.2775,2.2095,2.1859,2.1641,2.1497,2.1589,2.1625,2.046,1.5074,1.6381,1.6083,0.286,0.1924,0.2374,-0.467,-0.7693,-0.909,-0.9309,-1.1661,-1.3979,-1.4905,-1.5678,-1.6658,-1.818,0.0,0.0,0.0,0.0,0.0,0.0,0.0,-1.269,0.0,0.0,0.0,0.0,0.0,-1.0928,-1.1125,0.0,0.0,0.0,0.0,0.0,-1.7093,-1.7983,-1.8704,-1.9249,-2.0325,-2.1253,-2.2076,-2.2863,-2.3164,-2.3091,-2.3091,-2.3091,-2.3091,-2.296,-2.2892,-2.291,-2.2756,-2.2703,-2.2703,-2.2703,-2.2554,-2.2375,2.1764,2.1748,2.1748,2.1764,2.1781,2.1915,2.2254,2.231,2.231,2.231,2.231,2.2349,2.2487,2.2569,2.2632,2.2685,2.2816,2.297,2.3095,2.3223,2.336,0.0,0.0,2.3235,2.2506,2.2551,2.1817,2.0281,0.0,0.0,1.6595,1.6696,1.8122,2.0541,2.048,2.1023,2.1999,2.2609,2.2832,2.2867,2.3651,2.3855,2.3664,2.3747,2.3768,2.3789,2.3917,2.4018,2.4095,2.4229,2.4321,2.4155,2.305,2.2133,2.1497,2.1589,2.1553,2.0529,1.6077,1.3968,1.1094,0.3165,0.004,-0.2024,-0.5495,-0.7243,-0.8528,-0.9892,-1.1706,-1.3363,-1.4586,-1.5987,-1.7026,-1.7101,0.0,0.0,0.0,0.0,0.0,0.0,-1.3624,-1.2223,-1.3564,0.0,0.0,0.0,0.0,-1.3015,-1.2887,0.0,0.0,-1.5127,-1.6484,0.0,-1.7603,-1.8849,-1.9747,-2.0298,-2.1365,-2.23,-2.3074,-2.3371,-2.3348,-2.3091,-2.3091,-2.3091,-2.3091,-2.296,-2.2892,-2.291,-2.2756,-2.2703,-2.2703,-2.2703,-2.2703,-2.2686,2.1797,2.1797,2.1797,2.1797,2.1797,2.1827,2.1945,2.2152,2.231,2.231,2.231,2.231,2.2366,2.2515,2.2605,0.0,2.279,2.2919,0.0,2.3168,2.3313,2.336,2.3471,2.3437,2.3231,2.2776,2.2316,2.1872,0.0,0.0,0.0,2.0173,2.0691,2.1581,2.2117,2.2473,2.2717,2.3456,2.373,2.3613,2.3746,2.3753,2.3707,2.3678,2.3696,2.3743,2.3876,2.4036,2.417,2.4171,2.4266,2.4318,2.3861,2.3584,2.34,2.3269,2.0824,1.6991,1.1579,1.0276,0.7982,-0.2233,-0.2249,-0.093,-0.532,-0.697,-0.7713,-0.8182,-0.9762,-1.1264,-1.1993,-1.3459,-1.507,-1.67,-1.7418,0.0,0.0,0.0,0.0,0.0,-1.4471,-1.4049,0.0,-1.4218,0.0,0.0,0.0,0.0,0.0,0.0,0.0,0.0,-1.6438,0.0,-1.8271,-1.932,-2.0368,-2.1383,-2.1727,-2.224,-2.2825,-2.2721,-2.2632,-2.2552,-2.2552,-2.2552,-2.2552,-2.2443,-2.2371,-2.2265,-2.2198,-2.2113,-2.2073,-2.1823,-2.1735,-2.1705,2.1797,2.1797,2.1797,2.1797,2.1797,2.1797,2.1797,2.1991,2.2152,2.2282,2.231,2.231,2.231,2.2415,0.0,2.2596,2.2842,2.2995,2.2995,2.3217,2.3378,2.3378,2.3471,2.3539,2.3585,2.3167,0.0,2.3043,2.2328,2.2208,2.2594,2.2389,2.2493,2.2876,2.3376,2.3527,2.3474,2.3839,2.3959,2.3876,2.3707,2.3602,2.362,2.3607,2.3652,2.3721,2.3813,2.4016,2.419,2.4113,2.4284,2.4493,2.43,2.4353,2.406,2.1889,1.9069,1.5403,0.9915,0.7258,0.4418,-0.2358,-0.3139,-0.3091,-0.6185,-0.7185,-0.751,-0.7951,-0.9273,-1.0566,-1.1216,-1.2469,-1.4176,-1.6534,-1.711,-1.7465,-1.7985,0.0,0.0,0.0,0.0,0.0,0.0,-1.5622,-1.584,0.0,0.0,0.0,0.0,0.0,0.0,-1.5363,-1.7311,-1.8589,-1.9126,-2.0287,-2.1259,-2.2046,-2.2352,-2.2569,-2.2712,-2.2632,-2.247,-2.231,-2.231,-2.231,-2.2282,-2.2242,-2.2106,-2.1998,-2.1794,-2.1661,-2.157,-2.1246,-2.1119,-2.1087,2.1797,2.1797,2.1797,0.0,2.1797,2.1797,2.1797,2.1827,2.1945,2.2254,2.231,2.231,2.231,2.236,2.2453,2.2579,0.0,0.0,2.3095,2.3336,2.3471,2.3494,2.3494,2.3539,2.3585,2.3674,2.3721,2.3804,2.3188,2.3304,2.4075,2.3474,2.3583,2.4303,2.4247,2.421,2.4192,2.386,2.3735,2.3714,2.3571,2.3499,2.3539,2.3562,2.3652,2.3721,2.3771,2.3976,2.419,2.4113,2.4375,2.4657,2.4388,2.4538,2.3742,1.8284,1.6418,1.5008,1.0097,0.4559,0.0363,0.1148,-0.3055,-0.7429,-0.7725,-0.7622,-0.7727,-0.871,-0.9777,-1.0817,-1.1627,-1.2516,-1.3907,-1.6357,-1.7037,-1.7519,-1.8345,0.0,0.0,0.0,0.0,0.0,-1.6373,-1.6648,-1.7098,0.0,0.0,0.0,0.0,0.0,-1.6309,-1.7381,-1.8856,-1.9803,-2.0128,-2.1569,-2.2335,-2.2389,-2.3124,-2.3247,-2.2764,-2.2985,-2.2782,-2.2338,-2.231,-2.231,-2.2282,-2.2225,-2.2135,-2.1969,-2.1554,-2.1355,-2.1246,-2.0893,-2.0761,-2.0761,0.0,0.0,2.1797,2.1797,2.1797,2.1797,2.1797,2.202,2.2209,2.2282,2.231,2.231,2.231,2.236,2.2426,2.2515,2.2685,2.2842,2.2944,2.3102,2.3241,2.3336,2.3448,2.3539,2.3585,2.3674,2.3725,2.3792,2.3735,2.3833,2.4094,2.4045,2.4136,2.4394,2.4411,2.4429,2.4411,2.4192,2.4078,2.4058,2.3774,2.3646,2.3646,2.3567,2.3607,2.37,2.3786,2.3974,2.419,2.4115,2.4355,2.4657,2.4489,2.4601,2.3742,1.8284,1.3976,0.9846,0.4809,-0.0335,-0.4282,-0.4275,-0.5132,-0.6126,-0.6635,-0.6488,-0.6319,-0.6667,-0.746,-0.8371,-0.9379,-0.9853,-1.1305,-1.487,-1.5559,-1.6212,-1.7895,-1.8157,0.0,0.0,-1.8132,-1.8477,-1.7621,-1.8886,-1.9332,0.0,0.0,0.0,-1.8271,-1.869,-1.8788,-1.8448,-1.9391,-2.04,-2.1441,-2.2038,-2.2602,-2.3213,-2.3414,-2.3417,-2.3319,-2.2952,-2.2738,-2.2579,-2.2377,-2.231,-2.231,-2.2282,-2.2163,-2.1969,-2.1615,-2.1417,-2.1214,-2.0597,-2.0345,-2.0326,2.1797,2.1797,2.1797,2.1797,2.1797,2.1797,2.1797,2.1945,2.2077,2.2077,2.2209,2.231,2.231,2.2405,2.247,2.2542,2.2685,2.2816,2.2893,2.3045,2.3168,2.3289,2.336,2.3453,2.3539,2.3656,2.3725,2.3795,2.3896,2.3996,2.4094,2.421,2.4321,2.4394,2.4375,2.4357,2.4358,2.4078,2.3979,2.3959,2.3707,2.3598,2.3598,2.3522,2.3567,2.37,2.3768,2.3974,2.419,2.4173,2.4426,2.4673,2.4572,2.4741,2.3873,1.8506,1.3261,0.7616,0.0283,-0.3687,-0.5845,-0.5996,-0.5773,-0.5714,-0.6426,-0.6284,-0.6091,-0.6508,-0.7149,-0.7931,-0.8919,-0.9391,-1.065,-1.3667,-1.4635,-1.5496,-1.6964,-1.7905,-1.8412,-1.8307,-1.9268,-1.9843,-1.9562,-2.0626,-2.0918,-1.9922,-2.0209,0.0,-2.0015,-2.0503,-2.0337,-1.9378,-2.0467,-2.1306,-2.1879,-2.2417,-2.2876,-2.3324,-2.3324,-2.3253,-2.3109,-2.2825,-2.2632,-2.2515,-2.2349,-2.231,-2.231,-2.231,-2.2192,-2.1953,-2.1477,-2.1182,-2.0974,-2.0258,-1.998,-1.996,2.1797,2.1797,2.1797,2.1797,2.1797,2.1797,2.1797,2.1797,2.1797,2.1797,2.2049,2.2237,2.2282,2.2405,2.2515,2.2579,2.2764,2.2868,2.2868,2.2995,2.3144,2.3265,2.3289,2.3336,2.3453,2.3589,2.3685,2.3795,2.3876,2.3958,2.4094,2.4172,2.4266,2.4376,2.4266,2.421,2.4173,2.3881,2.3756,2.3732,2.3594,2.3544,2.3567,2.3539,2.3589,2.3743,2.3774,2.3958,2.4209,2.4321,2.4495,2.4689,2.4654,2.4308,2.3036,1.8523,1.2973,0.6414,-0.2103,-0.5023,-0.5681,-0.5778,-0.5559,-0.5618,-0.6416,-0.6308,-0.6204,-0.6853,-0.7357,-0.8007,-0.8934,-0.9534,-1.0554,-1.2579,-1.3933,-1.5086,-1.6119,0.0,-1.8999,-1.9709,-2.0298,-2.0921,-2.1597,-2.2014,-2.2126,-2.1946,-2.2013,-2.2113,-2.2176,-2.2088,-2.1552,-2.0478,-2.1688,-2.2269,-2.2072,-2.2757,-2.3084,-2.306,-2.3067,-2.2985,-2.2764,-2.2712,-2.2596,-2.2366,-2.231,-2.231,-2.231,-2.2282,-2.2135,-2.1866,-2.1213,-2.0893,-2.0613,-1.996,-1.969,-1.969,2.1797,2.1797,2.1797,2.1797,2.1797,2.1797,2.1797,2.1797,2.1797,2.1797,2.1857,2.1991,2.2282,2.231,2.2405,2.2579,2.2632,2.2659,2.2738,2.2868,2.2995,2.3144,2.3241,2.3271,2.3253,2.3335,2.35,2.3795,2.3876,2.3937,2.4016,2.4133,2.4209,2.4247,2.4339,2.4266,2.4116,2.4116,2.4057,2.3955,2.3753,2.3771,2.3894,2.3656,2.37,2.3876,2.3876,2.3996,2.4152,2.4445,2.461,2.4731,2.4814,2.1927,1.8347,1.7545,1.095,0.3516,0.1468,-0.1995,-0.512,-0.5508,-0.5018,-0.4632,-0.5391,-0.5382,-0.5324,-0.5433,-0.571,-0.6288,-0.722,-0.7758,-0.8866,-1.1124,-1.3116,-1.4875,-1.6337,0.0,-2.0327,-2.0738,-2.2424,-2.3244,-2.2503,-2.2887,-2.314,-2.306,-2.2665,-2.2594,-2.2994,-2.3417,-2.3272,-2.2465,-2.2567,-2.2729,-2.2898,-2.3038,-2.2985,-2.2747,-2.2985,-2.3084,-2.3035,-2.2799,-2.2685,-2.2649,-2.2405,-2.231,-2.2282,-2.2225,-2.1961,-2.1538,-2.1087,-2.0663,-2.0243,-1.9854,-1.969,-1.969,2.2096,2.1797,2.1797,2.1797,2.1797,2.1797,2.1797,2.1797,2.1797,2.1797,2.1797,2.1915,2.2254,2.231,2.2366,2.2542,2.2579,2.2579,2.2542,2.2712,2.2868,2.2995,2.3119,2.3271,2.3481,2.3508,2.3624,2.3795,2.3816,2.3917,2.4054,2.4132,2.4133,2.4114,2.4192,2.4135,2.3939,2.3921,2.3958,2.3976,2.3685,2.3707,2.3876,2.3789,2.3831,2.3917,2.4059,2.4192,2.4302,2.458,2.4719,2.4814,2.4888,2.3389,2.1594,2.1565,1.2622,0.2186,-0.0533,-0.2733,-0.4346,-0.4959,-0.468,-0.4288,-0.4625,-0.4842,-0.4948,-0.4787,-0.5066,-0.5605,-0.663,-0.7621,-0.886,-1.0346,-1.2452,-1.4501,-1.6338,-1.8175,-2.0038,-2.1969,-2.3125,-2.3798,-2.383,-2.4128,-2.4193,-2.3857,-2.3688,-2.3672,-2.383,-2.4078,-2.3989,-2.3511,-2.3252,-2.3191,-2.3307,-2.3035,-2.2825,-2.2712,-2.2668,-2.2668,-2.2668,-2.2525,-2.2388,-2.2231,-2.2061,-2.1915,-2.1751,-2.1661,-2.1462,-2.1197,-2.0764,-2.0431,-2.0139,-1.9818,-1.969,-1.969,2.3272,2.2808,2.2808,2.2808,2.2245,2.1797,2.1797,2.1797,2.1797,2.1797,2.1797,2.1886,2.2152,2.2254,2.2349,2.2487,2.2542,2.2542,2.2405,2.2579,2.2738,2.2756,2.2927,2.3199,2.3594,2.3611,2.3682,2.3795,2.3816,2.3917,2.4074,2.4094,2.4074,2.4036,2.4115,2.4039,2.3876,2.3837,2.3878,2.3976,2.3721,2.3725,2.3876,2.3896,2.3917,2.3998,2.4192,2.4338,2.4425,2.4657,2.4804,2.491,2.4968,2.4303,2.3719,2.4905,1.5485,0.3361,-0.253,-0.3901,-0.3793,-0.4411,-0.4346,-0.4174,-0.4193,-0.4411,-0.457,-0.4408,-0.4684,-0.5167,-0.5887,-0.7218,-0.8497,-0.9506,0.0,-1.3639,-1.5614,-1.7442,-1.9538,-2.2059,-2.3154,-2.4004,-2.4774,-2.4988,-2.493,-2.4532,-2.4498,-2.4484,-2.4422,-2.4407,-2.4247,-2.393,-2.3653,-2.3481,-2.3394,-2.306,-2.2825,-2.2712,-2.2487,-2.2366,-2.231,-2.231,-2.2123,-2.1797,-2.1797,-2.1601,-2.1291,-2.115,-2.1023,-2.0829,-2.0431,-2.0158,-1.9894,-1.9675,-1.9493,-1.942,2.5851,2.5889,2.5889,2.5889,2.3619,2.1797,2.1797,2.1797,2.1797,2.1797,2.1797,2.1827,2.1827,2.2106,2.2349,2.2487,2.2515,2.2487,2.2405,2.2579,2.2598,2.2358,2.2607,2.2935,2.3324,2.3324,2.3468,2.3795,2.3858,2.3917,2.4016,2.4074,2.4132,2.419,2.4266,2.421,2.4094,2.4135,2.4096,2.3996,2.3976,2.3996,2.4056,2.3955,2.4016,2.417,2.4209,2.4303,2.4446,2.47,2.4842,2.4943,2.5198,2.195,1.9039,2.3962,1.8445,0.8585,-0.1329,-0.3901,-0.3852,-0.4135,-0.4135,-0.4024,-0.415,-0.403,-0.391,-0.3922,-0.4249,-0.4515,-0.4395,-0.5312,-0.6587,-0.8125,0.0,0.0,-1.3482,-1.7058,-1.9596,-1.9848,-2.2671,-2.4625,-2.4705,-2.4962,-2.508,-2.5046,-2.4691,-2.4498,-2.4482,-2.442,-2.4192,-2.3746,-2.3584,-2.3371,-2.3116,-2.3324,-2.3182,-2.2712,-2.2685,-2.2542,-2.231,-2.231,-2.2123,-2.1797,-2.1797,-2.1601,-2.126,-2.1103,-2.0829,-2.0514,-2.0311,-1.9788,-1.9176,-1.9139,-1.8898,-1.8655,2.5803,2.6023,2.622,2.622,2.5276,2.453,2.453,2.453,2.453,2.453,2.3578,2.3158,2.3845,2.3331,2.321,2.376,2.3445,2.331,2.3452,2.3723,2.35,2.2579,2.2884,2.3133,2.3301,2.3295,2.3463,2.3795,2.4198,2.4263,2.4014,2.5098,2.528,2.4803,2.5481,2.5642,2.5433,2.564,2.5719,2.5621,2.5006,2.5181,2.5782,2.513,2.5042,2.524,2.5205,2.4972,2.4716,2.4832,2.4936,2.5061,2.5231,2.3969,2.1722,1.8287,1.2804,0.6312,-0.0737,-0.2845,-0.3294,-0.4193,-0.3913,-0.3524,-0.3922,-0.3863,-0.3694,-0.3697,-0.3913,-0.4073,-0.4177,-0.5457,-0.655,-0.6842,0.0,-1.1546,-1.2654,-1.6029,-1.8796,-1.9958,-2.219,-2.3877,-2.4461,-2.4687,-2.4874,-2.5086,-2.4807,-2.4591,-2.4514,-2.4155,-2.3808,-2.3454,-2.3318,-2.3188,-2.3091,-2.3206,-2.3157,-2.2935,-2.2773,-2.2535,-2.2243,-2.2061,-2.1691,-2.1166,-2.1166,-2.0974,-2.0679,-2.0478,-2.0308,-2.015,-1.9696,-1.9347,-1.9064,-1.8822,-1.863,-1.85,2.5616,2.5803,2.6059,2.6184,2.622,2.622,2.622,2.622,2.622,2.622,2.4902,2.4214,2.4759,2.395,2.3702,2.4511,2.4049,2.3803,2.4081,2.4337,2.4079,2.3288,2.3719,2.3954,2.3862,2.3996,2.4212,2.4556,2.4905,2.4974,2.478,2.5999,2.6219,2.5628,2.6323,2.6542,2.6395,2.6536,2.6677,2.6703,2.591,2.6125,2.6823,2.6094,2.6024,2.6268,2.6216,2.5973,2.5698,2.576,2.5653,2.5547,2.5686,2.4651,2.1898,1.4496,0.9179,0.4604,-0.043,-0.2125,-0.2738,-0.3749,-0.3752,-0.3527,-0.3758,-0.3702,-0.3588,-0.3585,-0.358,-0.3633,-0.4015,-0.4875,-0.5608,-0.5914,-0.832,-1.0516,-1.1526,-1.4635,-1.732,-1.8564,-2.081,-2.2557,-2.3337,-2.4137,-2.4774,-2.5188,-2.4809,-2.4457,-2.421,-2.3966,-2.3681,-2.3356,-2.323,-2.3098,-2.2985,-2.306,-2.306,-2.296,-2.2677,-2.2364,-2.2068,-2.1764,-2.1324,-2.0794,-2.0794,-2.0595,-2.027,-2.0061,-2.0005,-1.9935,-1.9325,-1.8936,-1.8679,-1.8291,-1.7974,-1.7814,2.5616,2.5616,2.5728,2.6148,2.622,2.622,2.622,2.622,2.622,2.622,2.5438,2.4679,2.4051,2.3654,2.3718,2.4527,2.4049,2.3819,2.4098,2.4113,2.4223,2.4492,2.5147,2.5376,2.5112,2.5491,2.5868,2.6204,2.5985,2.608,2.6407,2.6615,2.6716,2.6716,2.6578,2.6641,2.68,2.6533,2.6618,2.6916,2.6618,2.668,2.6897,2.6698,2.682,2.7114,2.7114,2.725,2.7422,2.7638,2.7127,2.6446,2.6651,2.3098,1.8001,1.3592,0.9141,0.4567,-0.043,-0.1958,-0.224,-0.286,-0.3591,-0.4098,-0.3652,-0.3599,-0.3596,-0.3585,-0.3251,-0.314,-0.3688,-0.3188,-0.3342,-0.5367,-0.6881,-0.8339,-0.9845,-1.3022,-1.5144,-1.5002,-1.8288,-2.0775,-2.1258,-2.3294,-2.4858,-2.5437,-2.4746,-2.4063,-2.3531,-2.3878,-2.3919,-2.3526,-2.3374,-2.31,-2.2712,-2.296,-2.296,-2.2685,-2.2347,-2.2068,-2.1797,-2.1462,-2.1135,-2.0794,-2.0794,-2.0595,-2.027,-2.0061,-2.0005,-1.9935,-1.9325,-1.8588,-1.7853,-1.745,-1.6837,-1.6318,2.5616,2.5616,2.5728,2.6148,2.622,2.622,2.622,2.622,2.622,2.622,2.5285,2.4655,2.4775,2.4203,2.4073,2.47,2.4496,2.4607,2.5173,2.5544,2.5715,2.5765,2.5291,2.5027,2.5112,2.5222,2.55,2.5936,2.6512,2.6573,2.6162,2.7528,2.7989,2.7705,2.8073,2.8396,2.8623,2.8521,2.8604,2.865,2.7814,2.8087,2.8838,2.7976,2.7867,2.815,2.8098,2.7818,2.749,2.765,2.7553,2.7412,2.7518,2.1848,1.4924,1.3591,0.7447,0.0742,-0.0775,-0.1624,-0.241,-0.3713,-0.3423,-0.2689,-0.241,-0.2974,-0.3596,-0.3585,-0.2629,-0.1956,-0.2679,-0.2339,-0.2334,-0.355,-0.5375,-0.6589,-0.6511,-1.0592,-1.3517,-1.3358,-1.7292,-2.0354,-2.1143,-2.2931,-2.444,-2.5439,-2.4746,-2.415,-2.381,-2.3717,-2.3535,-2.323,-2.3194,-2.3,-2.2712,-2.2773,-2.2773,-2.2712,-2.2588,-2.2265,-2.1715,-2.143,-2.0942,-2.0308,-2.0392,-2.022,-1.9869,-1.9675,-1.9442,-1.9169,-1.8447,-1.7881,-1.7409,-1.7034,-1.6595,-1.6244,2.5616,2.5616,2.5691,2.5914,2.6096,2.597,2.5269,2.5476,2.5642,2.553,2.4895,2.4533,2.4815,2.4343,2.4219,2.4735,2.4934,2.513,2.553,2.603,2.626,2.617,2.5681,2.56,2.5988,2.6045,2.6327,2.6892,2.7374,2.7432,2.7145,2.8312,2.8691,2.8346,2.8801,2.9071,2.916,2.9262,2.937,2.9455,2.8734,2.8967,2.9644,2.8932,2.8857,2.9115,2.9096,2.8908,2.8664,2.8702,2.8564,2.7953,2.5556,1.9633,1.3144,1.1057,0.5048,-0.0858,-0.0629,-0.1076,-0.1849,-0.2695,-0.2977,-0.2749,-0.1399,-0.2411,-0.3487,-0.2968,-0.1284,-0.0223,-0.1451,-0.1337,-0.1225,-0.1729,-0.3914,-0.5251,-0.4476,-0.8641,-1.1732,-1.1636,-1.5325,-1.8425,-1.9802,-2.166,-2.3431,-2.5059,-2.4835,-2.4367,-2.3777,-2.3705,-2.35,-2.3116,-2.2875,-2.2686,-2.2517,-2.2254,-2.2271,-2.2542,-2.2398,-2.2068,-2.1519,-2.1229,-2.073,-2.01,-1.9874,-1.9696,-1.9566,-1.908,-1.8765,-1.8535,-1.7854,-1.7312,-1.6841,-1.6398,-1.6032,-1.5748,2.5616,2.5616,2.554,2.541,2.5696,2.5438,2.3837,2.4338,2.4799,2.4533,2.4385,2.4343,2.4395,2.4135,2.4177,2.4695,2.5208,2.5454,2.5294,2.5807,2.6063,2.5897,2.6189,2.6657,2.7317,2.7452,2.7805,2.8492,2.8326,2.843,2.8761,2.8905,2.8881,2.8743,2.8934,2.8938,2.8855,2.9026,2.9265,2.9492,2.9353,2.9414,2.9626,2.9551,2.9677,2.9912,2.9977,3.0171,3.0372,3.0344,2.9886,2.8295,2.2309,1.7282,1.262,0.7402,0.2715,-0.0651,-0.0059,-0.0289,-0.062,-0.0451,-0.2193,-0.3258,-0.0616,-0.1628,-0.2811,-0.1847,0.0447,0.1734,-0.0056,-0.0279,-0.0168,-0.0223,-0.2591,-0.4158,-0.3428,-0.7021,-0.9649,-0.9519,-1.2575,-1.5408,-1.7223,-1.9763,-2.2257,-2.4602,-2.4958,-2.4592,-2.3562,-2.3719,-2.3587,-2.3042,-2.2493,-2.2192,-2.2192,-2.1582,-2.1601,-2.218,-2.1886,-2.1554,-2.1118,-2.0828,-2.0395,-1.9859,-1.92,-1.9014,-1.9118,-1.8327,-1.7973,-1.7907,-1.7394,-1.6799,-1.6188,-1.57,-1.5322,-1.5017,2.5616,2.5616,2.5146,2.3724,2.3837,2.4048,2.3681,2.4147,2.4574,2.4492,2.4385,2.4302,2.4302,2.4051,2.3925,2.4135,2.4589,2.4871,2.5045,2.5378,2.5696,2.5881,2.601,2.6349,2.6939,2.7255,2.753,2.7747,2.8308,2.8576,2.8489,2.8676,2.8863,2.9089,2.9026,2.9071,2.9178,2.9178,2.937,2.9626,2.9293,2.9456,2.9891,2.9732,2.9765,2.9912,3.0034,3.0157,3.0265,3.0472,3.0463,2.9509,2.449,1.91,1.3771,0.9522,0.4284,0.0061,0.0732,0.1073,0.093,-0.0117,-0.0,0.0335,0.0056,0.0336,0.0447,-0.0223,0.1174,0.235,0.1673,0.0725,0.0056,-0.0168,-0.1839,-0.3065,-0.2894,-0.5159,-0.6357,-0.5239,-0.9882,-1.3117,-1.2937,-1.8461,-2.2968,-2.5158,-2.4996,-2.4388,-2.3485,-2.3529,-2.3204,-2.2439,-2.2275,-2.2192,-2.2192,-2.1582,-2.1323,-2.1368,-2.1385,-2.0894,-1.9878,-1.9908,-1.9324,-1.8207,-1.8168,-1.7932,-1.7585,-1.7287,-1.7024,-1.6837,-1.6552,-1.6163,-1.57,-1.522,-1.4823,-1.4512,2.5616,2.5616,2.5029,2.3231,2.3098,2.3304,2.348,2.3782,2.3994,2.4063,2.3994,2.3952,2.3952,2.3867,2.3882,2.4082,2.4385,2.471,2.4966,2.5339,2.5642,2.5881,2.6063,2.626,2.6521,2.6954,2.733,2.7718,2.8352,2.8644,2.8583,2.8694,2.8815,2.8975,2.9067,2.9071,2.9075,2.9267,2.9471,2.9701,2.9532,2.9644,2.9891,2.9888,2.9931,3.0022,3.0109,3.0216,3.0326,3.0568,3.0676,2.9444,2.2228,1.7584,1.361,0.7149,0.2788,0.0252,0.1321,0.1786,0.1805,0.1083,0.1901,0.2679,0.1922,0.1289,0.1064,0.1623,0.2127,0.2406,0.212,0.1505,0.0948,0.0557,-0.0279,-0.0948,-0.1059,-0.3244,-0.4355,-0.2979,-0.7955,-1.0935,-0.9622,-1.3728,-1.747,-1.9839,-1.9763,-2.0714,-2.3248,-2.3424,-2.2946,-2.1803,-2.1287,-2.1006,-2.1006,-2.0187,-1.9667,-1.948,-2.0701,-2.0684,-1.9489,-1.9632,-1.8861,-1.7356,-1.7016,-1.6654,-1.62,-1.5469,-1.5081,-1.4948,-1.4574,-1.4207,-1.3846,-1.3622,-1.3406,-1.3198,2.5616,2.5355,2.4695,2.3319,2.2978,2.3023,2.3319,2.3407,2.3451,2.3595,2.3595,2.3595,2.3595,2.3739,2.3882,2.4124,2.44,2.467,2.4966,2.5362,2.568,2.5844,2.6154,2.6277,2.6168,2.6691,2.7269,2.7897,2.8317,2.8594,2.8737,2.8785,2.8785,2.8718,2.9067,2.9075,2.8929,2.9312,2.9551,2.9719,2.9844,2.9859,2.9876,3.0053,3.0138,3.0169,3.0202,3.0333,3.0452,3.0652,3.0717,2.8989,1.9116,1.5521,1.319,0.4146,0.0925,0.0648,0.1882,0.2351,0.2423,0.2487,0.3281,0.4022,0.3653,0.2046,0.1184,0.3203,0.3028,0.2464,0.2456,0.2174,0.1839,0.1392,0.1168,0.089,0.0501,-0.1756,-0.2828,-0.1355,-0.5868,-0.8445,-0.6761,-0.8482,-1.0348,-1.1935,-1.277,-1.5434,-2.0508,-2.1953,-2.201,-2.0703,-2.002,-1.9718,-1.9718,-1.8646,-1.7973,-1.7733,-1.9758,-2.0135,-1.8987,-1.9031,-1.8159,-1.6561,-1.5775,-1.5304,-1.4914,-1.3721,-1.3212,-1.3165,-1.2609,-1.2231,-1.1975,-1.1877,-1.1796,-1.1715,2.5616,2.4313,2.3348,2.3623,2.3407,2.3216,2.3275,2.3407,2.3494,2.361,2.3595,2.3595,2.3595,2.3739,2.3839,2.4024,2.4166,2.4457,2.4966,2.5045,2.5301,2.5701,2.6173,2.6279,2.6026,2.6824,2.7317,2.747,2.7992,2.8326,2.8466,2.8743,2.8815,2.8718,2.9067,2.9246,2.9312,2.9314,2.9513,2.979,2.9735,2.9857,3.0072,3.0147,3.026,3.0367,3.0367,3.0453,3.0586,3.0734,3.0798,2.9145,1.9786,1.6331,1.4063,0.5438,0.241,0.2135,0.3074,0.334,0.3332,0.2951,0.3518,0.4055,0.3476,0.3337,0.3362,0.3551,0.3649,0.3705,0.3744,0.2788,0.1839,0.1392,0.1111,0.0555,-0.0558,-0.1387,-0.0995,0.1382,-0.2292,-0.4688,-0.384,-0.6339,-0.6936,-0.4336,-0.7806,-1.0067,-1.0175,-1.6039,-1.8997,-1.8041,-1.9102,-1.9718,-1.9718,-1.8646,-1.7973,-1.7693,-1.826,-1.7972,-1.697,-1.6545,-1.5874,-1.4982,-1.4354,-1.3993,-1.3779,-1.311,-1.286,-1.2812,-1.226,-1.2015,-1.1926,-1.1499,-1.1007,-1.0618,2.4966,2.4369,2.3767,2.3392,2.3363,2.3407,2.3319,2.3363,2.3451,2.3551,2.3595,2.3595,2.3595,2.3739,2.3839,2.3882,2.4082,2.4333,2.4701,2.4902,2.5146,2.553,2.5848,2.5994,2.601,2.6453,2.6939,2.7378,2.789,2.8334,2.8694,2.8743,2.8858,2.898,2.9067,2.9225,2.9453,2.9492,2.9645,2.9842,2.9771,2.9891,3.0098,3.0056,3.0202,3.0414,3.0528,3.0632,3.0709,3.0774,2.911,2.5837,1.9102,1.4768,1.0907,0.4944,0.2753,0.235,0.3159,0.3597,0.3694,0.3103,0.3721,0.4249,0.3486,0.382,0.4244,0.3985,0.3732,0.3629,0.4023,0.3447,0.273,0.2282,0.2447,0.2225,0.117,0.0612,0.0166,-0.0164,-0.1234,-0.059,0.2736,0.1787,0.1742,0.3627,-0.0447,-0.4526,-0.7908,-1.3544,-1.6281,-1.5393,-1.5624,-1.574,-1.574,-1.467,-1.4025,-1.3833,-1.3969,-1.4786,-1.6219,-1.5985,-1.5149,-1.3815,-1.3484,-1.3122,-1.2696,-1.1805,-1.1449,-1.1399,-1.0551,-1.0202,-1.0202,-0.9961,-0.9917,-0.9961]},{"header":{"parameterUnit":"m.s-1","parameterCategory":1,"la1":30.6,"la2":28.766,"lo1":-90.7593,"lo2":-88.6598,"dy":0.0162,"dx":0.0183,"nx":116,"ny":114,"refTime":"2024-06-29T18:00:00:Z","depth":0,"parameterNumber":3,"parameterNumberName":"V-component_of_WINDS"},"data":[0.0,0.0,0.0,0.0,0.0,0.0,0.0,0.0,0.0,0.0,0.0,0.0,0.0,0.0,0.0,0.0,0.0,0.0,0.0,0.0,0.0,0.0,0.0,0.0,0.0,0.0,0.0,0.0,0.0,0.0,0.0,0.0,0.0,0.0,0.0,0.0,0.0,0.0,0.0,0.0,0.0,0.0,0.0,0.0,0.0,0.0,0.0,0.0,0.0,0.0,0.0,0.0,0.0,0.0,0.0,0.0,0.0,0.0,0.0,0.0,0.0,0.0,0.0,0.0,0.0,0.0,0.0,0.0,0.0,0.0,0.0,0.0,0.0,0.0,0.0,0.0,0.0,0.0,0.0,0.0,0.0,0.0,0.0,0.0,0.0,0.0,0.0,0.0,0.0,0.0,0.0,0.0,0.0,0.0,0.0,0.0,0.0,0.0,0.0,0.0,0.0,0.0,0.0,0.0,0.0,0.0,0.0,0.0,0.0,0.0,0.0,0.0,0.0,0.0,0.0,0.0,0.0,0.0,0.0,0.0,0.0,0.0,0.0,0.0,0.0,0.0,0.0,0.0,0.0,0.0,0.0,0.0,0.0,0.0,0.0,0.0,0.0,0.0,0.0,0.0,0.0,0.0,0.0,0.0,0.0,0.0,0.0,0.0,0.0,0.0,0.0,0.0,0.0,0.0,0.0,0.0,0.0,0.0,0.0,0.0,0.0,0.0,0.0,0.0,0.0,0.0,0.0,0.0,0.0,0.0,0.0,0.0,0.0,0.0,0.0,0.0,0.0,0.0,0.0,0.0,0.0,0.0,0.0,0.0,0.0,0.0,0.0,0.0,0.0,0.0,0.0,0.0,0.0,0.0,0.0,0.0,0.0,0.0,0.0,0.0,0.0,0.0,0.0,0.0,0.0,0.0,0.0,0.0,0.0,0.0,0.0,0.0,0.0,0.0,0.0,0.0,0.0,0.0,0.0,0.0,0.0,0.0,0.0,0.0,0.0,0.0,0.0,0.0,0.0,0.0,0.0,0.0,0.0,0.0,0.0,0.0,0.0,0.0,0.0,0.0,0.0,0.0,0.0,0.0,0.0,0.0,0.0,0.0,0.0,0.0,0.0,0.0,0.0,0.0,0.0,0.0,0.0,0.0,0.0,0.0,0.0,0.0,0.0,0.0,0.0,0.0,0.0,0.0,0.0,0.0,0.0,0.0,0.0,0.0,0.0,0.0,0.0,0.0,0.0,0.0,0.0,0.0,0.0,0.0,0.0,0.0,0.0,0.0,0.0,0.0,0.0,0.0,0.0,0.0,0.0,0.0,0.0,0.0,0.0,0.0,0.0,0.0,0.0,0.0,0.0,0.0,0.0,0.0,0.0,0.0,0.0,0.0,0.0,0.0,0.0,0.0,0.0,0.0,0.0,0.0,0.0,0.0,0.0,0.0,0.0,0.0,0.0,0.0,0.0,0.0,0.0,0.0,0.0,0.0,0.0,0.0,0.0,0.0,0.0,0.0,0.0,0.0,0.0,0.0,0.0,0.0,0.0,0.0,0.0,0.0,0.0,0.0,0.0,0.0,0.0,0.0,0.0,0.0,0.0,0.0,0.0,0.0,0.0,0.0,0.0,0.0,0.0,0.0,0.0,0.0,0.0,0.0,0.0,0.0,0.0,0.0,0.0,0.0,0.0,0.0,0.0,0.0,0.0,0.0,0.0,0.0,0.0,0.0,0.0,0.0,0.0,0.0,0.0,0.0,0.0,0.0,0.0,0.0,0.0,0.0,0.0,0.0,0.0,0.0,0.0,0.0,0.0,0.0,0.0,0.0,0.0,0.0,0.0,0.0,0.0,0.0,0.0,0.0,0.0,0.0,0.0,0.0,0.0,0.0,0.0,0.0,0.0,0.0,0.0,0.0,0.0,0.0,0.0,0.0,0.0,0.0,0.0,0.0,0.0,0.0,0.0,0.0,0.0,0.0,0.0,0.0,0.0,0.0,0.0,0.0,0.0,0.0,0.0,0.0,0.0,0.0,0.0,0.0,0.0,0.0,0.0,0.0,0.0,0.0,0.0,0.0,0.0,0.0,0.0,0.0,0.0,0.0,0.0,0.0,0.0,0.0,0.0,0.0,0.0,0.0,0.0,0.0,0.0,0.0,0.0,0.0,0.0,0.0,0.0,0.0,0.0,0.0,0.0,0.0,0.0,0.0,0.0,0.0,0.0,0.0,0.0,0.0,0.0,0.0,0.0,0.0,0.0,0.0,0.0,0.0,0.0,0.0,0.0,0.0,0.0,0.0,0.0,0.0,0.0,0.0,0.0,0.0,0.0,0.0,0.0,0.0,0.0,0.0,0.0,0.0,0.0,0.0,0.0,0.0,0.0,0.0,0.0,0.0,0.0,0.0,0.0,0.0,0.0,0.0,0.0,0.0,0.0,0.0,0.0,0.0,0.0,0.0,0.0,0.0,0.0,0.0,0.0,0.0,0.0,0.0,0.0,0.0,0.0,0.0,0.0,0.0,0.0,0.0,0.0,0.0,0.0,0.0,0.0,0.0,0.0,0.0,0.0,0.0,0.0,0.0,0.0,0.0,0.0,0.0,0.0,0.0,0.0,0.0,0.0,0.0,0.0,0.0,0.0,0.0,0.0,0.0,0.0,0.0,0.0,0.0,0.0,0.0,0.0,0.0,0.0,0.0,0.0,0.0,0.0,0.0,0.0,0.0,0.0,0.0,0.0,0.0,0.0,0.0,0.0,0.0,0.0,0.0,0.0,0.0,0.0,0.0,0.0,0.0,0.0,0.0,0.0,0.0,0.0,0.0,0.0,0.0,0.0,0.0,0.0,0.0,0.0,0.0,0.0,0.0,0.0,0.0,0.0,0.0,0.0,0.0,0.0,0.0,0.0,0.0,0.0,0.0,0.0,0.0,0.0,0.0,0.0,0.0,0.0,0.0,0.0,0.0,0.0,0.0,0.0,0.0,0.0,0.0,0.0,0.0,0.0,0.0,0.0,0.0,0.0,0.0,0.0,0.0,0.0,0.0,0.0,0.0,0.0,0.0,0.0,0.0,0.0,0.0,0.0,0.0,0.0,0.0,0.0,0.0,0.0,0.0,0.0,0.0,0.0,0.0,0.0,0.0,0.0,0.0,0.0,0.0,0.0,0.0,0.0,0.0,0.0,0.0,0.0,0.0,0.0,0.0,0.0,0.0,0.0,0.0,0.0,0.0,0.0,0.0,0.0,0.0,0.0,0.0,0.0,0.0,0.0,0.0,0.0,0.0,0.0,0.0,0.0,0.0,0.0,0.0,0.0,0.0,0.0,0.0,0.0,0.0,0.0,0.0,0.0,0.0,0.0,0.0,0.0,0.0,0.0,0.0,0.0,0.0,0.0,0.0,0.0,0.0,0.0,0.0,0.0,0.0,0.0,0.0,0.0,0.0,0.0,0.0,0.0,0.0,0.0,0.0,0.0,0.0,0.0,0.0,0.0,0.0,0.0,0.0,0.0,0.0,0.0,0.0,0.0,0.0,0.0,0.0,0.0,0.0,0.0,0.0,0.0,0.0,0.0,0.0,0.0,0.0,0.0,0.0,0.0,0.0,0.0,0.0,0.0,0.0,0.0,0.0,0.0,0.0,0.0,0.0,0.0,0.0,0.0,0.0,0.0,0.0,0.0,0.0,0.0,0.0,0.0,0.0,0.0,0.0,0.0,0.0,0.0,0.0,0.0,0.0,0.0,0.0,0.0,0.0,0.0,0.0,0.0,0.0,0.0,0.0,0.0,0.0,0.0,0.0,0.0,0.0,0.0,0.0,0.0,0.0,0.0,0.0,0.0,0.0,0.0,0.0,0.0,0.0,0.0,0.0,0.0,0.0,0.0,0.0,0.0,0.0,0.0,0.0,0.0,0.0,0.0,0.0,0.0,0.0,0.0,0.0,0.0,0.0,0.0,0.0,0.0,0.0,0.0,0.0,0.0,0.0,0.0,0.0,0.0,0.0,0.0,0.0,0.0,0.0,0.0,0.0,0.0,0.0,0.0,0.0,0.0,0.0,0.0,0.0,0.0,0.0,0.0,0.0,0.0,0.0,0.0,0.0,0.0,0.0,0.0,0.0,0.0,0.0,0.0,0.0,0.0,0.0,0.0,0.0,0.0,0.0,0.0,0.0,0.0,0.0,0.0,0.0,0.0,0.0,0.0,0.0,0.0,0.0,0.0,0.0,0.0,0.0,0.0,0.0,0.0,0.0,0.0,0.0,0.0,0.0,0.0,0.0,0.0,0.0,0.0,0.0,0.0,0.0,0.0,0.0,0.0,0.0,0.0,0.0,0.0,0.0,0.0,0.0,0.0,0.0,0.0,0.0,0.0,0.0,0.0,0.0,0.0,0.0,0.0,0.0,0.0,0.0,0.0,0.0,0.0,0.0,0.0,0.0,0.0,0.0,0.0,0.0,0.0,0.0,0.0,0.0,0.0,0.0,0.0,0.0,0.0,0.0,0.0,0.0,0.0,0.0,0.0,0.0,0.0,0.0,0.0,0.0,0.0,0.0,0.0,0.0,0.0,0.0,0.0,0.0,0.0,0.0,0.0,0.0,0.0,0.0,0.0,0.0,0.0,0.0,0.0,0.0,0.0,0.0,0.0,0.0,0.0,0.0,0.0,0.0,0.0,0.0,0.0,0.0,0.0,0.0,0.0,0.0,0.0,0.0,0.0,0.0,0.0,0.0,0.0,0.0,0.0,0.0,0.0,0.0,0.0,0.0,0.0,0.0,0.0,0.0,0.0,0.0,0.0,0.0,0.0,0.0,0.0,0.0,0.0,0.0,0.0,0.0,0.0,0.0,0.0,0.0,0.0,0.0,0.0,0.0,0.0,0.0,0.0,0.0,0.0,0.0,0.0,0.0,0.0,0.0,0.0,0.0,0.0,0.0,0.0,0.0,0.0,0.0,0.0,0.0,0.0,0.0,0.0,0.0,0.0,0.0,0.0,0.0,0.0,0.0,0.0,0.0,0.0,0.0,0.0,0.0,0.0,0.0,0.0,0.0,0.0,0.0,0.0,0.0,0.0,0.0,0.0,0.0,0.0,0.0,0.0,0.0,0.0,0.0,0.0,0.0,0.0,0.0,0.0,0.0,0.0,0.0,0.0,0.0,0.0,0.0,0.0,0.0,0.0,0.0,0.0,0.0,0.0,0.0,0.0,0.0,0.0,0.0,0.0,0.0,0.0,0.0,0.0,0.0,0.0,0.0,0.0,0.0,0.0,0.0,0.0,0.0,0.0,0.0,0.0,0.0,0.0,0.0,0.0,0.0,0.0,0.0,0.0,0.0,0.0,0.0,0.0,0.0,0.0,0.0,0.0,0.0,0.0,0.0,0.0,0.0,0.0,0.0,0.0,0.0,0.0,0.0,0.0,0.0,0.0,0.0,0.0,0.0,0.0,0.0,0.0,0.0,0.0,0.0,0.0,0.0,0.0,0.0,0.0,0.0,0.0,0.0,0.0,0.0,0.0,0.0,0.0,0.0,0.0,0.0,0.0,0.0,0.0,0.0,0.0,0.0,0.0,0.0,0.0,0.0,0.0,0.0,0.0,0.0,0.0,0.0,0.0,0.0,0.0,0.0,0.0,0.0,0.0,0.0,0.0,0.0,0.0,0.0,0.0,0.0,0.0,0.0,0.0,0.0,0.0,0.0,0.0,0.0,0.0,0.0,0.0,0.0,0.0,0.0,0.0,0.0,0.0,0.0,0.0,0.0,0.0,0.0,0.0,0.0,0.0,0.0,0.0,0.0,0.0,0.0,0.0,0.0,0.0,0.0,0.0,0.0,0.0,0.0,0.0,0.0,0.0,0.0,0.0,0.0,0.0,0.0,0.0,0.0,0.0,0.0,0.0,0.0,0.0,0.0,0.0,0.0,0.0,0.0,0.0,0.0,0.0,0.0,0.0,0.0,0.0,0.0,0.0,0.0,0.0,0.0,0.0,0.0,0.0,0.0,0.0,0.0,0.0,0.0,0.0,0.0,0.0,0.0,0.0,0.0,0.0,0.0,0.0,0.0,0.0,0.0,0.0,0.0,0.0,0.0,0.0,0.0,0.0,0.0,0.0,0.0,0.0,0.0,0.0,0.0,0.0645,0.0,0.0,0.0,0.0,0.0,0.0,0.0,0.0,0.0,0.0,0.0,0.0,0.0,0.0,0.0,0.0,0.0,0.0,0.0,0.0,0.0,0.0,0.0,0.0,-0.0852,-0.0862,-0.076,-0.0751,-0.0781,-0.085,0.0,0.0,0.0,0.0,0.0,0.1326,0.0872,0.1083,0.204,0.2094,0.2905,0.44,0.441,0.4758,0.5392,0.0,0.0,0.0,0.0,0.0,0.0,0.0,0.0,0.0,0.0,0.0,0.0,0.0,0.0,0.0,0.0,0.0,0.0,0.0,0.0,0.0,0.0,0.0,0.0,0.0,0.0,0.0,0.0,0.0,0.0,0.0,0.0,0.0,0.0,0.0,0.0,0.0,0.0,0.0,0.0,0.0,0.0,0.0,0.0,0.0,0.0,0.0,0.0,0.0,0.0,0.0,0.0,0.0,0.0,0.0,0.0,0.0,0.0,0.0,0.0,0.0,0.0,0.0,0.0,0.0,0.0,0.0,0.0,0.0,0.0,0.0,0.0058,0.0,0.0,0.0,0.0,0.0,0.0,0.0,0.0,0.0,0.0,0.0,0.0,0.0,0.0,0.0,0.0,0.0,0.0,0.0,0.0,0.0,-0.0663,-0.0608,-0.0643,-0.0666,-0.0601,-0.0572,-0.0657,-0.0861,0.0,0.0,0.0,0.0,0.1216,0.2766,0.2037,0.1933,0.2547,0.2892,0.3998,0.58,0.5884,0.5941,0.0,0.5725,0.0,0.0,0.0,0.0,0.0,0.0,0.0,0.0,0.0,0.0,0.0,0.0,0.0,0.0,0.0,0.0,0.0,0.0,0.0,0.0,0.0,0.0,0.0,0.0,0.0,0.0,0.0,0.0,0.0,0.0,0.0,0.0,0.0,0.0,0.0,0.0,0.0,0.0,0.0,0.0,0.0,0.0,0.0,0.0,0.0,0.0,0.0,0.0,0.0,0.0,0.0,0.0,0.0,0.0,0.0,0.0,0.0,0.0,0.0,0.0,0.0,0.0,0.0,0.0931,0.0852,0.066,0.0525,0.0738,0.1267,0.0868,0.0812,0.0899,-0.0448,0.0,0.0,0.0,0.0,0.0,0.0,0.0,0.0,0.0,0.0,0.0,0.0,0.0,0.0,0.0,0.0,0.0,0.0,0.0,-0.0605,-0.06,-0.0604,-0.0613,-0.0605,-0.0488,-0.0505,-0.0708,0.0,0.0,0.0,0.134,0.2549,0.2805,0.2676,0.2773,0.3091,0.406,0.5065,0.6151,0.0,0.0,0.0,0.7247,0.6912,0.0,0.0,0.0,0.0,0.0,0.0,0.0,0.0,0.0,0.0,0.0,0.0,0.0,0.0,0.0,0.0,0.0,0.0,0.0,0.0,0.0,0.0,0.0,0.0,0.0,0.0,0.0,0.0,0.0,0.0,0.0,0.0,0.0,0.0,0.0,0.0,0.0,0.0,0.0,0.0,0.0,0.0,0.55,0.5587,0.0,0.0,0.0,0.0,0.0,0.0,0.0,0.0,0.0,0.0,0.0,0.0,0.0,0.1396,0.1553,0.1991,0.2211,0.2263,0.1808,0.1786,0.2078,0.1409,0.1415,0.1952,0.1841,0.0,0.057,0.0667,0.0,0.0,0.0,0.0,0.0,0.0,0.0,0.0,0.0,0.0,0.0,0.0,0.0,0.0,0.0,0.0,0.0,0.0,0.0,0.0,0.0,-0.0502,-0.0528,-0.0498,-0.026,-0.024,0.0,0.0,0.0,-0.0697,0.1545,0.2555,0.2026,0.2679,0.3466,0.4383,0.4885,0.5832,0.0,0.0,0.0,0.0,0.8063,0.7779,0.0,0.0,0.0,0.0,0.0,0.0,0.0,0.0,0.0,0.0,0.0,0.0,0.0,0.0,0.0,0.0,0.0,0.0,0.0,0.0,0.0,0.0,0.0,0.0,0.0,0.0,0.0,0.0,0.0,0.0,0.0,0.0,0.0,0.0,0.0,0.0,0.0,0.0,0.0,0.0,0.0,0.5316,0.5883,0.5608,0.5487,0.522,0.0,0.0,0.0,0.0,0.0,0.0,0.0,0.0,0.0,0.1699,0.1407,0.1301,0.1405,0.1583,0.1546,0.1278,0.107,0.088,0.0776,0.0741,0.0899,0.1143,0.1457,0.1325,0.0878,0.0756,0.0074,-0.1005,0.0,0.0,0.0,0.0,-0.1387,-0.0883,0.0,0.0,0.0,0.0,0.0,0.0,0.0,0.0,0.0,0.0,0.0,0.0,-0.0154,-0.0221,-0.023,-0.0156,0.0,0.0,0.0,0.0,0.0,-0.069,0.1321,0.2227,0.1764,0.2803,0.4,0.5365,0.5523,0.0,0.0,0.0,0.0,0.0,0.0,0.0,0.0,0.0,0.0,0.0,0.0,0.0,0.0,0.0,0.0,0.0,0.0,0.0,0.0,0.0,0.0,0.0,0.0,0.0,0.0,0.0,0.0,0.0,0.0,0.0,0.0,0.0,0.0,0.0,0.0,0.0,0.0,0.0,0.0,0.0,0.0,0.0,0.0,0.0,0.0,0.0,0.0,0.5695,0.6074,0.5462,0.5464,0.52,0.0,0.0,0.0,0.0,0.0,0.0,0.2388,0.2327,0.2043,0.1485,0.1259,0.1143,0.1227,0.1223,0.0934,0.0519,0.0373,0.0162,-0.0162,0.0055,0.0276,0.0594,0.0918,0.117,0.1286,0.0868,0.0467,0.0041,-0.0521,-0.0931,-0.1154,-0.0827,-0.0406,0.0166,0.0,0.0,0.0,0.0,0.0,0.0,0.0,0.0,0.0,0.0,0.0,-0.0157,0.0,0.0,0.0,0.0,0.0,0.0,0.0,0.0,0.0,-0.069,0.069,0.1857,0.2701,0.3405,0.0,0.0,0.0,0.0,0.0,0.0,0.0,0.0,0.0,0.0,0.0,0.0,0.0,0.0,0.0,0.0,0.0,0.0,0.0,0.0,0.0,0.0,0.0,0.0,0.0,0.0,0.0,0.0,0.0,0.0,0.0,0.0,0.0,0.0,0.0,0.0,0.0,0.0,0.0,0.0,0.0,0.0,0.0,0.0,0.0,0.0,0.0,0.0,0.0,0.0,0.0,0.0,0.0,0.5482,0.5677,0.0,0.0,0.0,0.0,0.3868,0.3464,0.301,0.2506,0.2238,0.1896,0.1414,0.1068,0.0952,0.1113,0.1097,0.1116,0.106,0.0503,0.0447,0.0783,-0.0168,0.0,0.1063,0.0615,0.0894,0.1551,0.1342,0.0755,0.0,0.0045,-0.0481,-0.1096,-0.0184,0.0281,0.0611,0.0,0.0,0.0,0.0239,0.0482,0.0642,0.0588,0.0664,0.0668,0.0478,0.0466,0.0,0.0,0.0,0.0,0.0,0.0,0.0,0.0,0.0,0.0667,0.0909,0.1607,0.2399,0.3301,0.3602,0.4573,0.0,0.0,0.0,0.0,0.0,0.0,0.0,0.0,0.0,0.0,0.0,0.0,0.0,0.0,0.0,0.0,0.0,0.0,0.0,0.0,0.0,0.0,0.0,0.0,0.0,0.0,0.0,0.0,0.0,0.0,0.0,0.0,0.0,0.0,0.0,0.0,0.0,0.0,0.0,0.0,0.0,0.0,0.0,0.0,0.0,0.0,0.0,0.0,0.0,0.0,0.0,0.0,0.5473,0.5746,0.0,0.5061,0.4701,0.4421,0.4177,0.3723,0.3104,0.2357,0.197,0.1563,0.1075,0.0968,0.0936,0.0991,0.0948,0.0785,0.0393,0.0168,-0.0056,-0.028,-0.0671,-0.0392,0.0393,0.0224,0.0505,0.1175,0.1186,0.1152,0.1071,0.108,0.0869,0.0678,0.1259,0.1532,0.1693,-0.0401,-0.011,0.0,0.0577,0.0796,0.097,0.1088,0.1097,0.1038,0.0888,0.0636,0.05,0.0,0.0,0.0,0.0,0.0,0.0,0.0,0.0,0.1314,0.1777,0.2444,0.3144,0.3885,0.4,0.0,0.0,0.0,0.0,0.0,0.0,0.0,0.0,0.0,0.0,0.0,0.0,0.0,0.0,0.0,0.0,0.4713,0.0,0.0,0.0,0.0,0.0,0.0,0.0,0.0,0.0,0.0,0.0,0.0,0.0,0.0,0.0,0.0,0.0,0.0,0.0,0.0,0.0,0.0,0.0,0.0,0.0,0.0,0.0,0.0,0.0,0.0,0.0,0.0,0.0,0.0,0.0,0.5979,0.5467,0.5699,0.5667,0.4966,0.485,0.4649,0.4205,0.3659,0.3016,0.2223,0.181,0.139,0.0921,0.0887,0.0898,0.0898,0.0898,0.0673,0.028,0.028,0.0112,-0.028,-0.0503,-0.028,0.028,0.0112,0.0393,0.0954,0.1066,0.1329,0.1679,0.1639,0.1625,0.1629,0.1934,0.2059,0.212,-0.0417,-0.0398,-0.0109,0.0737,0.0632,0.0622,0.1208,0.0984,0.0899,0.1366,0.0419,0.0,0.0,0.0,0.0,0.0,0.0,0.0,0.0,0.0961,0.1336,0.184,0.3133,0.4028,0.4467,0.0,0.0,0.0,0.0,0.0,0.0,0.0,0.0,0.0,0.0,0.0,0.0,0.0,0.0,0.0,0.0,0.0,0.1899,0.0,0.0,0.0,0.0,0.0,0.0,0.0,0.0,0.0,0.0,0.0,0.0,0.0,0.0,0.0,0.0,0.0,0.0,0.0,0.0,0.0,0.0,0.0,0.0,0.0,0.0,0.0,0.0,0.0,0.0,0.0,0.0,0.0,0.639,0.6164,0.5759,0.5449,0.5637,0.5386,0.4249,0.437,0.4361,0.395,0.3257,0.2664,0.2232,0.1809,0.1352,0.0896,0.0898,0.0898,0.0898,0.0898,0.0898,0.0898,0.0898,0.0898,0.0898,0.028,0.0336,0.0842,0.028,0.0393,0.1066,0.1066,0.129,0.1572,0.1572,0.1628,0.1628,0.1741,0.1797,0.1853,-0.0905,-0.0318,0.0258,0.0496,0.0789,0.1057,0.1269,0.1418,0.1619,0.1937,0.0,0.0,0.0,0.0,0.0,0.0,0.0,0.0,0.1005,0.0,0.1721,0.3104,0.3995,0.0,0.0,0.0,0.0,0.0,0.0,0.0,0.0,0.0,0.0,0.0,0.0,0.0,0.0,0.0,0.0,0.0,0.0,0.0,0.1122,0.0,0.0,0.0,0.0,0.0,0.0,0.0,0.0,0.0,0.0,0.0,0.0,0.0,0.0,0.0,0.0,0.0,0.0,0.0,0.0,0.0,0.0,0.0,0.0,0.0,0.0,0.0,0.0,0.0,0.0,0.0,0.0,0.5145,0.5356,0.5541,0.5644,0.5549,0.5765,0.5729,0.5235,0.5096,0.4821,0.4372,0.3141,0.2404,0.243,0.1491,0.0944,0.0897,0.0898,0.0898,0.0898,0.0898,0.0898,0.0898,0.0898,0.0898,0.0898,0.028,0.0336,0.0842,0.028,0.0336,0.0954,0.0954,0.101,0.1122,0.1459,0.1685,0.1741,0.1797,0.1797,0.1797,-0.1392,-0.0763,-0.0122,0.0216,0.0599,0.1036,0.1549,0.1584,0.2031,0.3402,0.0,0.0,0.0,0.0,0.0,0.0,0.0,0.0,0.1366,0.1522,0.2271,0.0,0.0,0.0,0.0,0.0,0.0,0.0,0.0,0.0,0.0,0.0,0.0,0.0,0.0,0.0,0.0,0.0,0.0,0.0,0.0,0.0,-0.23,-0.1517,0.0053,0.2277,0.5608,0.7979,0.9567,0.9824,0.0,0.0,0.0,0.0,0.0,0.0,0.0,0.0,0.0,0.0,0.0,0.0,0.0,0.0,0.0,0.0,0.0,0.0,0.0,0.0,0.0,0.0,0.0,0.0,0.5065,0.507,0.5173,0.5449,0.561,0.5577,0.5644,0.5585,0.5207,0.4916,0.4591,0.4173,0.2874,0.2184,0.2352,0.1289,0.0729,0.0841,0.0898,0.0898,0.0842,0.0898,0.0898,0.0898,0.0898,0.0898,0.0898,0.0561,0.0561,0.0898,0.0505,0.0561,0.0898,0.0898,0.0954,0.0,0.0,0.0,0.0,0.0,0.1794,0.2073,-0.1954,-0.1529,-0.0941,-0.0167,0.0102,0.0571,0.1653,0.137,0.1922,0.4467,0.0,0.0,0.0,0.0,0.0,0.0,0.0,0.0,0.0,0.0,0.0,0.0,0.0,0.0,0.0,0.0,0.0,0.0,0.0,0.0,0.0,0.0,0.0,0.0,0.0,0.0,0.0,0.0,0.0,0.0,0.0,0.0,-0.7116,-0.5189,-0.312,-0.0287,0.6978,1.0125,1.0912,1.143,0.0,0.0,0.0,0.0,0.0,0.0,0.0,0.0,0.0,0.0,0.0,0.0,0.0,0.0,0.0,0.0,0.0,0.0,0.0,0.0,0.0,0.0,0.0,0.0,0.5056,0.5188,0.5557,0.5605,0.5634,0.5634,0.5476,0.5184,0.4684,0.4433,0.4073,0.3638,0.2687,0.2127,0.2183,0.0,0.0,0.0,0.0,0.0842,0.0729,0.0842,0.0898,0.0898,0.0898,0.0898,0.0898,0.0898,0.0898,0.0898,0.0898,0.0898,0.0898,0.0898,0.101,0.1178,0.1122,0.1178,0.1234,0.1402,0.1847,0.2402,-0.2904,-0.2173,-0.1494,-0.0958,-0.0924,-0.0732,-0.0021,-0.0014,0.0048,0.045,0.1852,0.0,0.0,0.0,0.0,0.0,0.0,0.0,0.0,0.0,0.0,0.0,0.0,0.0,0.0,0.0,0.0,0.0,0.0,0.0,0.0,0.0,0.0,0.0,0.0,0.0,0.0,0.0,0.0,0.0,0.0,0.0,-1.0117,-0.7245,-0.3957,-0.042,0.3207,0.7315,1.1117,1.1593,1.1833,1.2087,1.2929,0.0,0.0,0.0,0.0,0.0,0.0,0.0,0.0,0.0,0.0,0.0,0.0,0.0,0.0,0.0,0.0,0.0,0.0,0.0,0.0,0.5085,0.5261,0.5519,0.5599,0.5763,0.5839,0.5839,0.5808,0.5553,0.4895,0.4769,0.446,0.3638,0.3074,0.2516,0.2071,0.151,0.1008,0.0729,0.0729,0.0785,0.0842,0.0898,0.0898,0.0898,0.0,0.0,0.0898,0.0898,0.0898,0.0898,0.0898,0.0898,0.0898,0.0898,0.1177,0.1623,0.1346,0.157,0.2015,0.2181,0.2237,0.235,-0.3843,-0.2992,-0.2241,-0.1912,-0.1541,-0.1099,-0.0494,-0.0401,-0.0472,-0.0671,0.2016,0.0,0.0,0.0,0.0,0.0,0.0,0.0,0.0,0.0,0.0,0.0,0.0,0.0,0.0,0.0,0.0,0.0,0.0,0.0,0.0,0.0,0.0,0.0,0.0,0.0,0.0,0.0,0.0,0.0,0.0,0.0,-1.4587,-1.276,-0.7405,-0.0575,0.1988,0.6736,1.1922,1.2696,1.2726,1.2519,1.2846,1.1571,0.9757,0.0,0.0,0.0,0.0,0.0,0.0,0.0,0.0,0.0,0.0,0.0,0.0,0.0,0.0,0.567,0.0,0.0,0.5758,0.5418,0.5552,0.5798,0.5906,0.6006,0.6029,0.592,0.5628,0.5296,0.4944,0.4515,0.4079,0.3638,0.313,0.2681,0.246,0.1679,0.1121,0.101,0.0785,0.0673,0.0673,0.0729,0.0785,0.0785,0.0785,0.0842,0.0898,0.0898,0.0898,0.0898,0.0898,0.0898,0.0898,0.1232,0.1512,0.179,0.1624,0.1736,0.2015,0.2124,0.2348,0.2627,-0.444,-0.3766,-0.3093,-0.2805,-0.2173,-0.1457,-0.0781,-0.0839,-0.0886,-0.0669,0.2046,0.3606,0.2657,0.2961,0.3232,0.0,0.0,0.0,0.0,0.0,0.0,0.0,0.0,0.0,0.0,0.0,0.0,0.0,0.0,0.0,0.0,0.0,0.0,0.0,0.0,0.0,0.0,0.0,0.0,0.0,0.0,0.0,-1.8484,-1.7813,-1.1395,-0.2359,0.0755,0.5797,1.1189,1.2706,1.2862,1.2349,1.1877,1.067,0.9201,0.8028,0.6987,0.0,0.0,0.0,0.0,0.0,0.0,0.0,0.0,0.0,0.5898,0.5776,0.6068,0.6184,0.5705,0.597,0.6143,0.5933,0.5949,0.6034,0.6154,0.6178,0.6112,0.5886,0.5362,0.5011,0.5011,0.4298,0.3805,0.3747,0.3294,0.3014,0.285,0.1959,0.1457,0.1458,0.1009,0.0729,0.0561,0.0617,0.0673,0.0673,0.0673,0.0785,0.0898,0.1009,0.1009,0.0898,0.0898,0.0953,0.1121,0.1734,0.1958,0.2014,0.2125,0.2124,0.2124,0.2069,0.246,0.3072,-0.4268,-0.4224,-0.4029,-0.3424,-0.3176,-0.2747,-0.1787,-0.2398,-0.237,-0.0659,-0.0207,-0.0257,-0.0786,0.2562,0.4148,0.2412,0.0,0.0,0.0,0.0,0.0,0.0,0.0,0.0,0.0,0.0,0.0,0.0,0.0,0.0,0.0,0.0,0.0,0.0,0.0,0.0,0.0,0.0,0.0,0.0,0.0,0.0,-1.9332,-1.8191,-1.415,-0.837,-0.2963,0.178,0.5952,0.8991,1.0664,1.129,1.0284,0.9442,0.8752,0.8471,0.0,0.5499,0.5426,0.5304,0.0,0.7188,0.6606,0.6036,0.0,0.0,0.6891,0.6983,0.7462,0.7654,0.6918,0.6973,0.6935,0.656,0.6332,0.615,0.6173,0.6178,0.6059,0.5701,0.555,0.5508,0.5508,0.5066,0.4567,0.4181,0.4236,0.3849,0.2792,0.2681,0.246,0.1959,0.1345,0.1122,0.1178,0.0673,0.0505,0.0673,0.0673,0.0785,0.0898,0.1456,0.14,0.0898,0.0898,0.1177,0.1734,0.2347,0.2625,0.2625,0.3181,0.3403,0.3347,0.2905,0.3072,0.3624,-0.4612,-0.4644,-0.4625,-0.4431,-0.4068,-0.3689,-0.3256,-0.3264,-0.2608,-0.0654,-0.0569,-0.0934,-0.1573,-0.0,0.0737,-0.0087,-0.017,0.0,0.0,0.0,0.0,0.0,0.0,0.0,0.0,0.0,0.0,0.0,0.0,0.0,0.0,0.0,0.0,0.0,0.0,0.0,0.0,0.0,0.0,0.0,0.0,0.0,-1.9593,-1.8554,-1.4964,-0.9906,-0.5262,-0.0687,0.0,0.0,0.8579,0.9197,0.843,0.8144,0.7946,0.7123,0.6415,0.0,0.6439,0.0,0.0,0.0,0.7166,0.7003,0.7381,0.7408,0.7334,0.7358,0.7571,0.7676,0.7452,0.7536,0.7434,0.0,0.6753,0.6549,0.6168,0.6059,0.6005,0.5736,0.5458,0.5289,0.5175,0.4574,0.4076,0.3959,0.3965,0.3688,0.2961,0.285,0.2681,0.2516,0.1959,0.1624,0.1681,0.1456,0.14,0.1568,0.1568,0.1681,0.1849,0.2181,0.2179,0.1902,0.1567,0.179,0.2347,0.2569,0.2903,0.3236,0.3514,0.3793,0.407,0.3516,0.3458,0.3683,-0.4872,-0.4895,-0.4953,-0.5062,-0.4718,-0.4448,-0.443,-0.4041,-0.3268,-0.1859,-0.1101,-0.0975,-0.1718,-0.1734,-0.172,-0.1792,-0.1793,-0.0313,0.0,0.0,0.0,0.0,0.0,0.0,0.0,0.0,0.0,0.0,0.0,0.0,0.0,0.0,0.0,0.0,0.0,0.0,0.0,0.0,0.0,0.0,0.0,0.0,-1.925,-1.7103,-1.4178,-1.0674,-0.6699,-0.2246,0.0,0.0,0.6635,0.7098,0.6597,0.6788,0.7043,0.6266,0.6215,0.6547,0.7112,0.0,0.0,0.7439,0.7731,0.7834,0.7404,0.7511,0.7692,0.7639,0.7595,0.763,0.7751,0.7791,0.0,0.6998,0.6929,0.6707,0.6059,0.595,0.5841,0.5626,0.5293,0.5069,0.4956,0.4408,0.4079,0.4128,0.4024,0.3747,0.3352,0.3074,0.3019,0.3074,0.2516,0.2181,0.2181,0.2014,0.2015,0.2127,0.2127,0.224,0.241,0.2573,0.2794,0.3072,0.2347,0.2402,0.2959,0.2959,0.3181,0.3627,0.3793,0.4125,0.4463,0.4015,0.3849,0.3904,-0.4841,-0.4906,-0.4998,-0.4998,-0.5037,-0.5049,-0.4984,-0.4956,-0.4923,-0.4867,-0.2434,-0.0984,-0.1715,-0.1569,-0.1515,-0.1776,-0.1795,0.0134,0.4735,0.4628,0.0,0.0,0.0,0.0,0.0,0.0,0.0,0.0,0.0,0.0,0.0,0.0,0.0,0.0,0.0,0.0,0.0,0.0,0.0,0.0,0.0,0.0,-1.8086,-1.2971,-1.15,-1.1601,-0.7244,0.0,0.0,0.0,0.4827,0.5297,0.4909,0.5324,0.0,0.6678,0.683,0.0,0.0,0.0,0.7597,0.8063,0.8207,0.8201,0.7916,0.7896,0.7909,0.7868,0.7868,0.7875,0.7895,0.7777,0.755,0.6991,0.6765,0.6431,0.59,0.5795,0.5626,0.5183,0.5124,0.5069,0.0,0.5073,0.5069,0.5069,0.4798,0.4467,0.4021,0.3691,0.3583,0.3583,0.3019,0.2681,0.2681,0.2125,0.1846,0.2015,0.2015,0.2071,0.224,0.241,0.3135,0.4082,0.3128,0.3014,0.3569,0.3569,0.3569,0.368,0.4239,0.4463,0.4519,0.4463,0.446,0.446,-0.501,-0.5033,-0.507,-0.5057,-0.5094,-0.5096,-0.5061,-0.5026,-0.582,-0.8088,-0.7545,0.0,0.0,0.0,0.0,0.0,-0.2082,-0.1469,0.0397,0.3225,0.0,0.0,0.0,0.0,0.0,0.0,0.0,0.0,0.0,0.0,0.0,0.0,0.0,0.0,0.0,0.0,0.0,0.0,0.0,0.0,0.0,0.0,-1.3585,-1.2109,-0.8001,-0.3052,0.0,0.0,0.0,0.0,0.0,0.0,0.4101,0.0,0.0,0.6508,0.0,0.0,0.0,0.0,0.8485,0.8517,0.8714,0.8689,0.7827,0.7782,0.7876,0.7669,0.7622,0.7728,0.7984,0.8003,0.7886,0.7615,0.7195,0.6739,0.6258,0.5896,0.5567,0.5242,0.5242,0.0,0.0,0.0,0.0,0.4842,0.4846,0.4625,0.4181,0.4349,0.4294,0.4018,0.379,0.3572,0.3299,0.3077,0.3074,0.3183,0.3183,0.3241,0.3411,0.3466,0.3747,0.4138,0.3128,0.3292,0.4128,0.3347,0.3458,0.4239,0.4405,0.4519,0.4519,0.4519,0.4519,0.4519,-0.509,-0.5099,-0.5105,-0.5108,-0.5093,0.0,0.0,0.0,0.0,0.0,0.0,0.0,0.0,0.0,0.0,0.0,0.0,-0.4812,-0.3758,0.0,0.0,0.0,0.0,0.0,0.0,0.0,0.0,0.0,0.0,0.0,0.0,0.0,0.0,0.0,0.0,0.0,0.0,0.0,0.0,0.0,0.0,0.0,-1.1274,-0.8697,-0.4399,0.0,0.0,0.0,0.0,0.0,0.0,0.0,0.0,0.0,0.0,0.0,0.0,0.806,0.0,0.9377,0.9649,0.9484,0.9698,0.966,0.8587,0.8357,0.8307,0.7829,0.7609,0.7482,0.7622,0.7602,0.7575,0.7483,0.7278,0.6906,0.6392,0.605,0.5673,0.5352,0.5297,0.5297,0.0,0.0,0.0,0.4901,0.5007,0.4897,0.4567,0.4787,0.4787,0.4453,0.4288,0.407,0.3802,0.3694,0.3638,0.3744,0.3744,0.3802,0.3858,0.391,0.391,0.3802,0.3186,0.3405,0.4125,0.3347,0.3627,0.4519,0.4519,0.4519,0.4519,0.4519,0.4519,0.4519,-0.5152,-0.5174,-0.5175,0.0,0.0,0.0,0.0,0.0,0.0,0.0,0.0,0.0,0.0,0.0,0.0,0.0,0.0,0.0,0.0,0.0,0.0,0.0,0.0,0.0,-0.6179,-0.6408,0.0,0.0,0.0,0.0,0.0,0.0,0.0,0.0,0.0,0.0,0.0,0.0,0.0,0.0,0.0,0.0,-1.0724,-0.3111,0.0,0.0,0.0,0.0,0.0,0.0,0.0,0.0,0.0,0.0,0.0,0.0,0.0,0.9643,0.9453,1.0152,1.0895,1.0768,1.0976,1.0989,1.0011,0.9557,0.9099,0.8336,0.7731,0.7258,0.0,0.0,0.6699,0.671,0.6953,0.6932,0.6362,0.6263,0.6046,0.0,0.0,0.0,0.0,0.0,0.0,0.5352,0.0,0.5281,0.5124,0.5011,0.4952,0.4952,0.4512,0.4233,0.4233,0.3855,0.3638,0.3585,0.3585,0.3585,0.3585,0.3744,0.3519,0.3074,0.3244,0.3411,0.3572,0.3516,0.3904,0.4463,0.4463,0.4463,0.4463,0.4463,0.4519,0.4519,0.0,0.0,0.0,0.0,0.0,0.0,0.0,0.0,0.0,0.0,0.0,0.0,0.0,0.0,0.0,0.0,0.0,0.0,0.0,0.0,0.0,0.0,0.0,0.0,0.0,0.0,0.0,0.0,0.0,0.0,0.0,0.0,0.0,0.0,0.0,0.0,0.0,0.0,0.0,0.0,0.0,0.0,-0.5212,0.0,0.0,0.0,0.0,0.0,0.0,0.0,0.0,0.0,0.0,0.0,0.806,0.0,0.0,0.9582,1.0294,1.093,1.1331,1.1175,1.0976,1.064,0.9698,0.896,0.8318,0.7738,0.7243,0.6775,0.6173,0.0,0.0,0.7045,0.7204,0.0,0.7805,0.7444,0.0,0.0,0.0,0.5937,0.5567,0.5681,0.0,0.0,0.5845,0.5896,0.5782,0.5841,0.5732,0.5454,0.5289,0.5066,0.4732,0.4291,0.391,0.3585,0.3585,0.3585,0.3585,0.3744,0.3463,0.2961,0.2629,0.2796,0.3186,0.274,0.3186,0.4132,0.4132,0.419,0.4301,0.4301,0.4356,0.4519,0.0,0.0,0.0,0.0,0.0,0.0,0.0,0.0,0.0,0.0,0.0,0.0,0.0,0.0,0.0,0.0,0.0,0.0,0.0,0.0,0.0,0.0,0.0,0.0,0.0,0.0,0.0,0.0,0.0,0.0,0.0,0.0,0.0,0.0,0.0,0.0,0.0,0.0,0.0,0.0,0.0,0.0,0.0,0.0,0.0,0.0,0.0,0.0,0.0,0.0,0.0,0.809,0.8507,0.8773,0.9079,0.9732,0.0,1.0785,1.1487,1.1928,1.2168,1.1814,1.1474,1.0971,1.0045,0.9376,0.8624,0.7495,0.6999,0.0,0.0,0.0,0.0,0.0,0.0,0.0,0.8325,0.8096,0.7658,0.0,0.6573,0.0,0.605,0.59,0.585,0.0,0.6064,0.6119,0.6,0.6119,0.6123,0.5896,0.5677,0.5399,0.4897,0.4622,0.4291,0.3855,0.3855,0.3747,0.3585,0.3691,0.3297,0.2516,0.0,0.2573,0.2685,0.2629,0.313,0.4024,0.4079,0.4138,0.4193,0.4301,0.4408,0.4519,0.0,0.0,0.0,0.0,0.0,0.0,0.0,0.0,0.0,0.0,0.0,0.0,0.0,0.0,0.0,0.0,0.0,0.0,0.0,0.0,0.0,0.0,0.0,0.0,0.0,0.0,0.0,0.0,0.0,0.0,0.0,0.0,0.0,0.0,0.0,0.0,0.0,0.0,0.0,0.0,0.0,0.0,0.0,0.0,0.0,0.0,0.0,0.0,0.0,0.0,0.8581,0.884,0.9681,1.0123,1.0467,1.11,1.1819,1.2448,1.2624,1.2926,1.3074,1.2471,1.2025,1.1507,1.0639,1.0012,0.9142,0.7413,0.0,0.0,0.5179,0.0,0.589,0.6743,0.0,0.8068,0.8508,0.858,0.8309,0.7706,0.7058,0.6686,0.6696,0.6273,0.6059,0.6055,0.6168,0.6173,0.6059,0.6119,0.6173,0.6123,0.5841,0.5454,0.4952,0.4956,0.4732,0.4177,0.4177,0.3962,0.3585,0.3585,0.3021,0.2125,0.2627,0.0,0.2294,0.2852,0.3411,0.3968,0.4079,0.4138,0.4193,0.4408,0.4463,0.4519,0.0,0.0,0.0,0.0,0.0,0.0,0.0,0.0,0.0,0.0,0.0,0.0,0.0,0.0,0.0,0.0,0.0,0.0,0.0,0.0,0.0,0.0,0.0,0.0,0.0,0.0,0.0,0.0,0.0,0.0,0.0,0.0,0.0,0.0,0.0,0.0,0.0,0.0,0.0,0.0,0.0,0.0,0.0,0.0,0.0,0.0,0.0,0.0,0.0,0.0,0.9744,1.0224,1.0632,1.0949,1.128,1.2146,1.2499,1.2633,1.299,1.3158,1.3074,1.2569,1.1883,1.1183,1.07,0.9319,0.0,0.0,0.0,0.5247,0.4572,0.5124,0.0,0.66,0.0,0.0,0.0,0.0,0.9145,0.0,0.0,0.0,0.0,0.0,0.0,0.0,0.0,0.6436,0.6173,0.6059,0.6009,0.585,0.5896,0.5723,0.5226,0.5395,0.5066,0.4177,0.4177,0.3962,0.3585,0.3585,0.3246,0.2569,0.2681,0.0,0.2625,0.2736,0.313,0.3694,0.3799,0.391,0.4079,0.4193,0.4356,0.4519,0.0,0.0,0.0,0.0,0.0,0.0,0.0,0.0,-0.9912,0.0,0.0,0.0,0.0,0.0,0.0,0.0,0.0,0.0,0.0,0.0,0.0,0.0,0.0,0.0,0.0,0.0,0.0,0.0,0.0,0.0,0.0,0.0,0.0,0.0,0.0,0.0,0.0,0.0,0.0,0.0,0.0,0.0,0.0,0.0,0.0,0.0,0.0,0.0,0.0,0.0,0.9145,0.9981,1.0966,1.142,1.1744,1.2436,1.3012,1.3422,1.3714,1.3971,1.4071,1.3515,1.2726,1.1807,1.0636,0.0,0.0,0.0,0.0,0.4981,0.4438,0.0,0.0,0.0,0.0,0.0,0.0,0.0,0.0,0.0,0.0,0.0,0.0,0.0,0.0,0.0,0.0,0.6431,0.6014,0.5955,0.5845,0.5795,0.595,0.5891,0.5668,0.5841,0.5567,0.4901,0.4677,0.4346,0.391,0.3694,0.3244,0.2736,0.3019,0.0,0.2736,0.3019,0.3357,0.3638,0.3802,0.3965,0.4024,0.4245,0.4356,0.4356,0.0,0.0,0.0,0.0,0.0,0.0,0.0,-0.8856,-0.9931,-1.0042,-1.0074,-1.0106,-1.0096,-1.0096,-1.0101,0.0,0.0,0.0,0.0,0.0,0.0,0.0,0.0,0.0,0.0,0.0,0.0,0.0,0.0,0.0,0.0,0.0,0.0,0.0,0.0,0.0,0.0,0.0,0.0,0.0,0.0,0.0,0.0,0.0,0.0,0.0,0.0,0.0,0.0,0.0,0.8167,0.9112,1.0454,1.1337,1.1916,1.24,1.3305,1.4158,1.4284,1.4685,1.4971,1.4362,1.3575,1.2424,1.0652,0.9484,0.0,0.0,0.0,0.4863,0.4502,0.0,0.0,0.0,0.0,0.0,0.0,0.0,0.0,0.0,0.0,0.0,0.0,0.0,0.0,0.0,0.0,0.0,0.5791,0.5736,0.574,0.5686,0.5845,0.595,0.595,0.6119,0.6009,0.5622,0.523,0.4732,0.4177,0.3855,0.3411,0.2905,0.3413,0.0,0.0,0.3413,0.3585,0.3638,0.3858,0.3965,0.4021,0.4298,0.4298,0.419,0.0,0.0,0.0,0.0,0.0,0.0,0.0,-0.9087,-0.9832,-0.9901,-1.0015,-1.0111,-1.0091,-1.0105,-1.0101,0.0,0.0,0.0,0.0,0.0,0.0,0.0,0.0,0.0,0.0,0.0,0.0,0.0,0.0,0.0,0.0,0.0,0.0,0.0,0.0,0.0,0.0,0.0,0.0,0.0,0.0,0.0,0.0,0.0,0.0,0.0,0.0,0.0,0.0,0.0,0.0,0.7958,0.8706,1.0185,1.1733,1.2271,0.0,0.0,1.4321,1.4685,1.496,1.4444,1.3575,1.2476,1.0761,0.0,0.0,0.0,0.5008,0.4529,0.4495,0.0,0.0,0.0,0.0,0.0,0.0,0.0,0.0,0.0,0.0,0.0,0.0,0.0,0.0,0.0,0.0,0.0,0.5677,0.5622,0.5513,0.5356,0.5631,0.5795,0.5795,0.6069,0.6009,0.5622,0.5567,0.5066,0.4177,0.4177,0.3907,0.3527,0.3583,0.0,0.0,0.3583,0.3585,0.3638,0.3744,0.3796,0.3852,0.3965,0.4021,0.4132,0.0,0.0,0.0,0.0,0.0,0.0,-0.7073,-0.8711,-0.987,-0.9905,-1.0053,-1.0135,-1.0104,-1.011,-1.0092,0.0,0.0,0.0,0.0,0.0,0.0,0.0,0.0,0.0,0.0,0.0,0.0,0.0,0.0,0.0,0.0,0.0,0.0,0.0,0.0,0.0,0.0,0.0,0.0,0.0,0.0,0.0,0.0,0.0,0.0,0.0,0.0,0.0,0.0,0.0,0.0,0.0,0.7813,0.8847,0.0,0.0,1.2341,1.3555,1.4161,1.4695,1.501,1.4844,1.4075,1.2753,1.0575,0.0,0.0,0.5707,0.4983,0.4715,0.4834,0.509,0.5409,0.0,0.0,0.0,0.0,0.0,0.0,0.0,0.0,0.0,0.0,0.0,0.0,0.0,0.0,0.0,0.6544,0.6159,0.5782,0.5301,0.5626,0.5795,0.5795,0.6069,0.6064,0.5837,0.5677,0.534,0.4838,0.4398,0.4125,0.3962,0.3691,0.0,0.0,0.3585,0.3585,0.3638,0.3744,0.3796,0.3796,0.3965,0.3965,0.3962,0.0,0.0,0.0,0.0,0.0,-0.5946,-0.6628,-0.8114,-0.9346,-0.9841,-1.0066,-1.0158,-1.0104,-1.0101,-1.0092,-1.01,0.0,0.0,0.0,0.0,0.0,0.0,0.0,0.0,0.0,0.0,0.0,0.0,0.0,0.0,0.0,0.0,0.0,0.0,0.0,0.0,0.0,0.0,0.0,0.0,0.0,0.0,0.0,0.0,0.0,0.0,0.0,0.0,0.0,0.0,0.0,0.0,0.0,0.0,0.0,0.0,1.1427,1.2801,1.3716,1.4392,1.4885,1.4955,1.4191,1.2769,0.0,0.0,0.7722,0.5654,0.5127,0.5059,0.5146,0.5288,0.5517,0.0,0.5951,0.641,0.7487,0.0,0.0,0.0,0.0,0.0,0.0,0.0,0.0,0.0,0.0,0.0,0.7348,0.6912,0.6372,0.5567,0.5736,0.5795,0.5736,0.6064,0.6119,0.595,0.5841,0.5618,0.5277,0.4673,0.4343,0.4177,0.3802,0.0,0.0,0.3585,0.3585,0.3585,0.3691,0.3744,0.3799,0.4073,0.4128,0.4181,0.0,0.0,0.0,0.0,0.0,0.0,0.0,-0.7371,-0.802,-0.9687,-1.0014,-1.0098,-1.011,-1.0102,-1.01,-1.0106,0.0,0.0,0.0,0.0,0.0,0.0,0.0,0.0,0.0,0.0,0.0,0.0,0.0,0.0,0.0,0.0,0.0,0.0,0.0,0.0,0.0,0.0,0.0,0.0,0.0,0.0,0.0,0.0,0.0,0.0,0.0,0.0,0.0,0.0,0.0,0.0,0.0,0.0,0.0,0.0,1.0836,1.2221,1.2773,1.3705,1.4514,1.4514,1.3705,1.2377,0.0,0.9239,0.7958,0.5763,0.5463,0.5528,0.533,0.5243,0.5368,0.5902,0.5951,0.0,0.0,0.0,0.0,0.0,0.0,0.0,0.0,0.0,0.0,0.0,0.0,0.0,0.7931,0.7871,0.7391,0.6209,0.595,0.5736,0.5622,0.6009,0.6069,0.5795,0.6069,0.5896,0.5277,0.5007,0.4622,0.0,0.0,0.0,0.0,0.3585,0.3585,0.3585,0.3585,0.3585,0.3694,0.4401,0.467,0.4889,0.0,0.0,0.0,0.0,0.0,0.0,0.0,-0.6474,-0.7317,-0.9543,-0.9981,-1.0096,-1.0092,-1.01,-1.0058,-0.9975,0.0,0.0,0.0,0.0,0.0,0.0,0.0,0.0,0.0,0.0,0.0,0.0,0.0,0.0,0.0,0.0,0.0,0.0,0.0,0.0,0.0,0.0,0.0,0.0,0.0,0.0,0.0,0.0,0.0,0.0,0.0,0.0,0.0,0.0,0.0,0.0,0.0,0.0,0.0,0.7876,0.928,0.0,1.1184,1.18,1.2221,1.1905,1.1405,1.0558,0.898,0.8109,0.7248,0.5868,0.5482,0.5387,0.531,0.5272,0.5721,0.714,0.0,0.0,0.0,0.0,0.0,0.0,0.0,0.0,0.0,0.0,0.0,0.0,0.0,0.0,0.9086,0.8718,0.8031,0.6961,0.6864,0.6647,0.6263,0.6549,0.6337,0.5677,0.6009,0.6009,0.5622,0.5454,0.512,0.0,0.0,0.0,0.0,0.3585,0.3585,0.3585,0.3585,0.3747,0.4073,0.4508,0.4893,0.5277,0.0,0.0,0.0,0.0,0.0,0.0,0.0,-0.6039,-0.6729,-0.8608,-0.9524,-1.0005,-1.001,-1.0014,-0.9988,-0.9907,0.0,0.0,0.0,0.0,0.0,0.0,0.0,0.0,0.0,0.0,0.0,0.0,0.0,0.0,0.0,0.0,0.0,0.0,0.0,0.0,0.0,0.0,0.0,0.0,0.0,0.0,0.3529,0.0,0.0,0.0,0.0,0.0,0.0,0.0,0.0,0.0,0.0,0.0,0.0,0.0,0.7947,0.9068,0.0,1.0411,1.0705,1.0426,1.0015,0.9393,0.8166,0.7537,0.6899,0.5843,0.552,0.5434,0.5387,0.5359,0.5816,0.7239,0.0,0.0,0.0,0.0,0.0,0.0,0.0,0.0,0.0,0.0,0.0,0.0,0.0,0.0,0.9917,0.9399,0.8823,0.8237,0.7605,0.7128,0.681,0.6761,0.649,0.5891,0.6059,0.6064,0.5845,0.5677,0.5454,0.0,0.0,0.0,0.0,0.4079,0.3965,0.3855,0.4024,0.4239,0.445,0.5105,0.5601,0.6041,0.0,0.0,0.0,0.0,0.0,0.0,0.0,0.0,-0.6194,-0.7016,-0.8489,-0.957,-0.987,-0.9894,-0.9891,-0.9849,0.0,0.0,0.0,0.0,0.0,0.0,0.0,0.0,0.0,0.0,0.0,0.0,-0.893,-0.8968,-0.8728,0.0,0.0,0.0,0.0,0.0,0.0,0.0,0.0,0.0,0.0,0.0935,0.0,0.0,0.0,0.0,0.0,0.0,0.0,0.0,0.0,0.0,0.0,0.0,0.0,0.0,0.0,0.0,0.0,0.9303,0.9717,0.9679,0.9315,0.8721,0.7835,0.7372,0.0,0.5759,0.5622,0.567,0.5614,0.5537,0.5776,0.6663,0.0,0.0,0.0,0.0,0.0,0.0,0.0,0.0,0.0,0.0,0.0,0.0,0.0,0.0,1.0474,0.9969,0.971,0.9762,0.8237,0.7343,0.7187,0.6804,0.6588,0.6381,0.6109,0.6,0.6,0.5727,0.5622,0.0,0.0,0.0,0.0,0.4897,0.4622,0.4288,0.4732,0.4838,0.4944,0.5977,0.6632,0.7015,0.0,0.0,0.0,0.0,0.0,0.0,0.0,0.0,0.0,0.0,-0.5781,-0.7039,-0.9613,-0.9865,-0.9704,0.0,0.0,0.0,0.0,0.0,0.0,0.0,0.0,0.0,0.0,0.0,0.0,-0.8829,-0.8906,-0.8973,-0.8995,-0.8581,0.0,0.0,0.0,0.0,0.0,0.0,0.0,0.0,-0.0756,0.116,0.0,0.0,0.0,0.0,0.6453,0.6604,0.0,0.0,0.0,0.0,0.0,0.0,0.0,0.0,0.6915,0.7049,0.7229,0.0,0.7901,0.7475,0.7449,0.7388,0.0,0.6837,0.6647,0.0,0.0,0.5856,0.6399,0.6404,0.6866,0.0,0.0,0.0,0.0,0.0,0.0,0.0,0.0,0.0,0.0,0.0,0.0,0.0,0.0,1.151,1.1108,1.0533,1.0064,0.9666,0.889,0.8262,0.7865,0.7391,0.6912,0.6381,0.6109,0.6,0.6,0.6064,0.59,0.0,0.0,0.0,0.4897,0.4897,0.4842,0.4732,0.4842,0.523,0.5778,0.6199,0.6799,0.7408,0.0,0.0,0.0,0.0,0.0,0.0,0.0,0.0,0.0,0.0,0.0,0.0,0.0,0.0,0.0,0.0,0.0,0.0,0.0,0.0,0.0,0.0,0.0,0.0,0.0,0.0,0.0,0.0,0.0,-0.8762,0.0,0.0,0.0,0.0,0.0,0.0,0.0,0.0,0.0,0.0,-0.0925,0.0,0.0,0.0,0.0,0.0,0.6453,0.6676,0.0,0.6655,0.6861,0.7141,0.0,0.0,0.0,0.0,0.696,0.6891,0.6807,0.7091,0.7393,0.7375,0.7271,0.7186,0.7227,0.0,0.0,0.0,0.0,0.0,0.6717,0.0,0.0,0.0,0.0,0.0,0.0,0.0,0.0,0.0,0.0,0.0,0.0,0.0,0.0,0.0,0.0,1.1877,1.1326,1.0736,1.0167,0.9614,0.9061,0.8692,0.8408,0.7871,0.7343,0.6923,0.6485,0.6218,0.6114,0.6173,0.6064,0.0,0.0,0.0,0.5508,0.5508,0.5399,0.523,0.5399,0.5778,0.6209,0.6583,0.7133,0.7681,0.0,0.0,0.0,0.0,0.0,0.0,0.0,0.0,0.0,0.0,0.0,0.0,0.0,0.0,0.0,0.0,0.0,0.0,0.0,0.0,0.0,0.0,0.0,0.0,0.0,0.0,0.0,0.0,0.0,0.0,0.0,0.0,0.0,0.0,0.0,0.0,0.0,0.0,0.0,0.0,0.0,0.0,0.0,0.0,0.0,0.0,0.0,0.0,0.0,0.6727,0.7112,0.7636,0.7253,0.0,0.0,0.0,0.0,0.0,0.7083,0.7452,0.7859,0.8148,0.79,0.7696,0.8023,0.0,0.0,0.0,0.0,0.0,0.0,0.0,0.0,0.0,0.0,0.0,0.0,0.0,0.0,0.0,0.0,0.0,0.0,0.0,0.0,0.0,0.0,1.1877,1.1427,1.0787,1.021,0.971,0.9106,0.8804,0.8804,0.8203,0.7824,0.7628,0.6912,0.6485,0.6337,0.6232,0.6178,0.6178,0.0,0.0,0.6178,0.6178,0.6009,0.5732,0.6064,0.6327,0.6578,0.6972,0.7413,0.7901,0.0,0.0,0.0,0.0,0.0,0.0,0.0,0.0,0.0,0.0,0.0,0.0,0.0,0.0,0.0,0.0,0.0,0.0,0.0,0.0,0.0,0.0,0.0,0.0,0.0,0.0,0.0,0.0,0.0,0.0,-0.7864,-0.775,-0.7548,0.0,0.0,0.0,0.0,0.0,0.0,0.0,0.0,0.0,0.0,0.0,0.0,0.0,0.0,0.0,0.0,0.7178,0.7412,0.7694,0.768,0.0,0.0,0.0,0.0,0.0,0.7957,0.8825,0.9322,0.8174,0.8188,0.8508,0.0,0.0,0.0,0.0,0.0,0.0,0.0,0.0,0.0,0.0,0.0,0.0,0.0,0.0,0.0,0.0,0.0,0.0,0.0,0.0,0.0,0.0,0.0,1.2076,1.1977,1.099,1.0364,1.0261,0.9309,0.8804,0.8804,0.8203,0.8037,0.8262,0.7128,0.6756,0.6923,0.6445,0.6178,0.6178,0.0,0.6178,0.6178,0.6178,0.6178,0.6119,0.6173,0.6549,0.7025,0.7079,0.7413,0.7901,0.0,0.0,0.0,0.0,0.0,0.0,0.0,0.0,0.0,0.0,0.0,0.0,0.0,0.0,0.0,0.0,0.0,0.0,0.0,0.0,0.0,0.0,0.0,0.0,0.0,0.0,0.0,0.0,0.0,-0.7517,-0.7427,-0.7403,-0.7316,-0.7178,0.0,0.0,0.0,0.0,0.0,0.0,0.0,0.0,0.0,0.0,0.0,0.0,0.0,0.0,0.0,0.0,0.7753,0.8158,0.8022,0.0,0.0,0.0,0.0,0.0,0.7923,0.8582,0.9213,0.9303,0.9769,1.0261,0.0,0.0,0.0,0.0,0.0,0.0,0.0,0.0,0.0,0.0,0.0,0.0,0.0,0.0,0.0,0.0,0.0,0.0,0.0,0.0,0.0,0.0,0.0,0.0,1.1678,1.1158,1.0584,0.9969,0.9465,0.9106,0.8804,0.858,0.8474,0.8368,0.7563,0.7187,0.7085,0.65,0.6178,0.6178,0.0,0.6178,0.6178,0.6178,0.6178,0.6232,0.6386,0.6707,0.7139,0.7413,0.7681,0.7901,0.0,0.0,0.0,0.0,0.0,0.0,0.0,0.0,0.0,0.0,0.0,0.0,0.0,0.0,0.0,0.0,0.0,0.0,0.0,0.0,0.0,0.0,0.0,0.0,0.0,0.0,0.0,-0.6154,-0.6828,-0.7082,-0.698,-0.698,-0.6992,0.0,0.0,0.0,0.0,0.0,0.0,-0.2167,0.0,0.0,0.0,0.0,0.0,0.0,0.0,0.0,0.0,0.0,0.0,0.0,0.0,0.0,0.0,0.816,0.7996,0.7898,0.8048,0.8478,0.9128,1.0218,0.0,1.1253,0.0,0.0,0.0,0.0,0.0,0.0,0.0,0.0,0.0,0.0,0.0,0.0,0.0,0.0,0.0,0.0,0.0,0.0,0.0,0.0,0.0,0.0,0.0,0.0,1.1528,1.1377,1.0905,1.0028,0.9865,0.9517,0.9008,0.9106,0.9001,0.858,0.799,0.7563,0.7241,0.6554,0.6178,0.6178,0.6178,0.6178,0.6178,0.6178,0.6178,0.6232,0.6495,0.6815,0.7192,0.7681,0.7901,0.7901,0.0,0.0,0.0,0.0,0.0,0.0,0.0,0.0,0.0,0.0,0.0,0.0,0.0,0.0,0.0,0.0,0.0,0.0,0.0,0.0,0.0,0.0,0.0,0.0,0.0,-0.5889,-0.5929,-0.5749,-0.6352,-0.6651,-0.6634,-0.6381,-0.6373,-0.6538,0.0,0.0,0.0,0.0,0.0,0.0,-0.1763,0.0,0.0,0.0,0.0,0.0,0.0,0.0,0.0,0.0,0.0,0.0,0.0,0.0,0.8801,0.846,0.824,0.8257,0.9055,0.9624,1.001,1.0106,0.0,0.0,0.0,0.0,0.0,0.0,0.0,0.0,0.0,0.0,0.0,0.0,0.0,0.0,0.0,0.0,0.0,0.0,0.0,0.0,0.0,0.0,0.0,0.0,0.0,0.0,1.2026,1.1569,1.1276,1.1167,1.0635,1.0064,0.9562,0.9666,0.9562,0.9106,0.815,0.7771,0.7818,0.6707,0.6178,0.6178,0.6178,0.6178,0.6178,0.6178,0.6178,0.6178,0.6232,0.6603,0.7192,0.7681,0.7901,0.7901,0.0,0.0,0.0,0.0,0.0,0.0,0.0,0.0,0.0,0.0,0.0,0.0,0.0,0.0,0.0,0.0,0.0,0.0,0.0,0.0,0.0,0.0,0.0,-0.5209,-0.4885,-0.5122,-0.5312,-0.5441,-0.58,-0.5914,-0.58,-0.5822,0.0,0.0,0.0,0.0,0.0,0.0,0.0,0.0,-0.1265,0.1313,0.0,0.0,0.0,0.0,0.0,0.0,0.0,0.0,0.8994,0.9196,0.0,0.905,0.8929,0.8756,0.8627,0.8599,0.8825,0.9675,1.0559,1.0989,0.0,0.0,0.0,0.0,0.0,0.0,0.0,0.0,0.0,0.0,0.0,0.0,0.0,0.0,0.0,0.0,0.0,0.0,0.0,0.0,0.0,0.0,0.0,0.0,0.0,0.0,1.2076,1.1927,1.1628,1.1318,1.1057,1.0541,0.9614,0.971,0.9614,0.9211,0.8573,0.8143,0.7871,0.7079,0.6549,0.6178,0.6178,0.6178,0.6178,0.6178,0.6178,0.6232,0.6603,0.6977,0.7413,0.7788,0.7901,0.7955,0.0,0.0,0.0,0.0,0.0,0.0,0.0,0.0,0.0,0.0,0.0,0.0,0.0,0.0,0.0,0.0,0.0,0.0,0.0,0.0,0.0,0.0,0.0,-0.4678,-0.4436,-0.4561,-0.4818,-0.5172,-0.5337,-0.5377,-0.5299,0.0,0.0,0.0,0.0,0.0,0.0,0.0,0.0,0.0,-0.104,0.1197,0.0,0.0,0.0,0.0,0.0,0.0,0.0,0.0,0.9319,0.9445,0.0,0.0,0.9194,0.9064,0.9105,0.916,0.9117,0.9911,1.0878,0.0,0.0,0.0,0.0,0.0,0.0,0.0,0.0,0.0,0.0,0.0,0.0,0.0,0.0,0.0,0.0,0.0,0.0,0.0,0.0,0.0,0.0,0.0,0.0,0.0,0.0,0.0,0.0,1.2076,1.1927,1.1578,1.1569,1.1108,1.0131,1.0079,0.9873,0.9465,0.9047,0.862,0.819,0.761,0.7031,0.65,0.65,0.6391,0.6178,0.6178,0.6178,0.6228,0.6761,0.7085,0.73,0.7574,0.7788,0.7996,0.0,0.0,0.0,0.0,0.0,0.0,0.0,0.0,0.0,0.0,0.0,0.0,0.0,0.0,0.0,0.0,0.0,0.0,0.0,0.0,0.0,0.0,0.0,-0.4631,-0.4311,-0.4308,-0.4492,-0.4893,-0.4961,-0.5108,-0.5291,0.0,0.0,0.0,0.0,0.0,0.0,0.0,0.0,0.0,0.0,0.015,0.0947,0.0,0.0,0.0,0.0,0.0,0.0,0.0,0.9838,0.9953,0.9694,0.0,0.0,0.9375,0.9627,1.0027,1.0161,1.0501,0.0,0.0,0.0,0.0,0.0,0.0,0.0,0.0,0.0,0.0,0.0,0.0,0.0,0.0,0.0,0.0,0.0,0.0,0.0,0.0,0.0,0.0,0.0,0.0,0.0,0.0,0.0,0.0,0.0,1.2076,1.2076,1.2076,1.2076,1.1828,1.1326,1.0863,1.0387,1.0012,0.9614,0.9197,0.8778,0.819,0.761,0.7085,0.7085,0.6766,0.6178,0.6178,0.6178,0.6232,0.6544,0.6701,0.6756,0.7031,0.7557,0.8072,0.0,0.0,0.0,0.0,0.0,0.0,0.0,0.0,0.0,0.0,0.0,0.0,0.0,0.0,0.0,0.0,0.0,0.0,0.0,0.0,0.0,0.0,0.0,0.0,0.0,0.0,-0.402,-0.4466,-0.4495,-0.4466,0.0,0.0,0.0,-0.3888,0.0,0.0,0.0,0.0,0.0,0.0,0.0,0.1007,0.2331,0.0,0.0,0.0,0.0,0.0,0.0,0.0,0.0,0.0,0.9882,0.0,0.0,0.9603,0.9613,0.9626,0.9592,0.0,0.0,0.0,0.0,0.0,0.0,0.0,0.0,0.0,0.0,0.0,0.0,0.0,0.0,0.0,0.0,0.0,0.0,0.0,0.0,0.0,0.0,0.0,0.0,0.0,0.0,0.0,0.0,0.0,0.0,1.2076,1.2076,1.2076,1.2175,1.1977,1.1427,1.0964,1.0541,1.0115,0.9614,0.9197,0.8778,0.8613,0.7984,0.7085,0.7085,0.6766,0.6178,0.6178,0.6178,0.6232,0.6544,0.6701,0.6756,0.745,0.7871,0.8184,0.0,0.0,0.0,0.0,0.0,0.0,0.0,0.0,0.0,0.0,0.0,0.0,0.0,0.0,0.0,0.0,0.0,0.0,0.0,0.0,0.0,0.0,0.0,0.0,0.0,-0.3679,-0.3584,0.0,0.0,0.0,0.0,0.0,0.0,-0.3402,0.0,0.0,0.0,0.0,0.0,0.0,0.0,0.1234,0.2601,0.0,0.0,0.0,0.0,0.0,0.0,0.0,0.0,0.0,0.9977,0.0,0.0,0.9763,1.0042,1.034,1.0217,0.0,0.0,0.0,0.0,0.0,0.0,0.0,0.0,0.0,0.0,0.0,0.0,0.0,0.0,0.0,0.0,0.0,0.0,0.0,0.0,0.0,0.0,0.0,0.0,0.0,0.0,0.0,0.0,0.0,0.0,1.2224,1.2274,1.2274,1.2323,1.2224,1.1877,1.1267,1.0804,1.0533,0.9821,0.9354,0.9145,0.9145,0.8613,0.7771,0.7295,0.6869,0.6554,0.6287,0.6178,0.6232,0.644,0.6495,0.6598,0.7396,0.7865,0.8283,0.0,0.0,-0.1969,-0.1971,0.0,0.0,0.0,0.0,0.0,0.0,0.0,-0.1587,0.0,0.0,0.0,-0.1858,0.0,0.0,0.0,0.0,0.0,0.0,0.0,0.0,0.0,0.0,0.0,0.0,0.0,0.0,0.0,0.0,-0.3668,-0.3132,0.0,-0.3002,0.0,0.0,0.0,0.0,-0.0064,0.0969,0.2011,0.3797,0.0,0.0,0.0,0.0,0.0,0.0,0.0,0.0,0.998,1.0046,1.0066,0.9881,1.0627,1.1502,0.0,0.0,0.0,0.0,0.0,0.0,0.0,0.0,0.0,0.0,0.0,0.0,0.0,0.0,0.0,0.0,0.0,0.0,0.0,0.0,0.0,0.0,0.0,0.0,0.0,0.0,0.0,0.0,0.0,0.0,0.0,1.2421,1.248,1.248,1.2529,1.2529,1.2529,1.1628,1.1175,1.1124,1.0131,0.9666,0.9614,0.9614,0.9302,0.8725,0.767,0.7139,0.7085,0.65,0.6228,0.6178,0.6178,0.6232,0.6391,0.7074,0.7812,0.8495,0.0,0.0,-0.1704,-0.1754,0.0,0.0,0.0,0.0,0.0,-0.1469,-0.1357,-0.1329,-0.1448,-0.148,0.0,-0.1587,-0.1619,0.0,0.0,0.0,0.0,0.0,0.0,0.0,0.0,0.0,0.0,0.0,0.0,0.0,0.0,0.0,0.0,-0.3254,0.0,-0.2693,0.0,0.0,0.0,0.0,-0.0735,0.0204,0.1367,0.2305,0.3408,0.0,0.0,0.0,0.0,0.0,0.0,0.0,0.9835,0.9966,1.0027,1.0039,1.0085,1.0244,0.0,0.0,0.0,0.0,0.0,0.0,0.0,0.0,0.0,0.0,0.0,0.0,0.0,0.0,0.0,0.0,0.0,0.0,0.0,0.0,0.0,0.0,0.0,0.0,0.0,0.0,0.0,0.0,0.0,0.0,1.248,1.248,1.248,1.248,1.2578,1.2676,1.2676,1.2126,1.1669,0.0,1.0549,1.0035,0.9614,0.9614,0.9302,0.8771,0.8031,0.7503,0.7085,0.6977,0.6603,0.6178,0.6178,0.6495,0.6977,0.7658,0.8402,0.9099,0.0,0.0,0.0,0.0,0.0,0.0,0.0,0.0,-0.1281,-0.1222,-0.1205,-0.121,-0.126,-0.1341,0.0,0.0,-0.147,-0.1523,0.0,0.0,0.0,0.0,0.0,0.0,0.0,0.0,0.0,0.0,0.0,0.0,0.0,0.0,0.0,-0.319,0.0,-0.2625,0.0,0.0,0.0,-0.1121,-0.0752,-0.012,0.0713,0.1616,0.2416,0.3241,0.467,0.0,0.0,0.0,0.0,0.0,0.0,0.0,0.9958,0.9998,1.0151,1.0438,0.0,0.0,0.0,0.0,0.0,0.0,0.0,0.0,0.0,0.0,0.0,0.0,0.0,0.0,0.0,0.0,0.0,0.0,0.0,0.0,0.0,0.0,0.0,0.0,0.0,0.0,0.0,0.0,0.0,1.2676,1.2578,1.2676,1.2676,1.2676,1.2783,1.2676,1.2431,1.1918,1.136,1.0804,1.0285,0.9873,0.9614,0.9614,0.9458,0.9145,0.856,0.8196,0.7877,0.7348,0.7085,0.6972,0.6712,0.6977,0.7557,0.8355,0.8883,0.9316,0.0,0.0,0.0,0.0,0.0,0.0,0.0,0.0,0.0,-0.1016,-0.1118,-0.1177,-0.1108,-0.1244,-0.1324,0.0,0.0,0.0,-0.1266,0.0,0.0,0.0,0.0,0.0,0.0,0.0,0.0,0.0,0.0,0.0,0.0,0.0,0.0,-0.3132,0.0,0.0,0.0,0.0,0.0,-0.0928,-0.058,-0.0191,0.0291,0.1251,0.1716,0.2097,0.3741,0.5086,0.6223,0.7223,0.0,0.0,0.0,0.0,0.9809,0.9883,1.0315,1.0865,0.0,0.0,0.0,0.0,0.0,0.0,0.0,0.0,0.0,0.0,0.0,0.0,0.0,0.0,0.0,0.0,0.0,0.0,0.0,0.0,0.0,0.0,0.0,0.0,0.0,0.0,0.0,0.0,0.0,1.2832,1.2735,1.2832,1.2881,1.2881,1.2881,1.2627,1.2126,1.161,1.1006,1.0403,0.9873,0.9614,0.9614,0.9614,0.9614,0.9562,0.9145,0.883,0.8567,0.761,0.7402,0.7664,0.7133,0.7295,0.7931,0.8679,0.9054,0.9316,0.0,0.0,0.0,0.0,0.0,0.0,0.0,0.0,0.0,0.0,0.0,-0.1177,-0.1108,-0.1129,-0.1118,-0.1049,-0.1049,-0.1075,0.0,0.0,0.0,0.0,0.0,0.0,0.0,0.0,0.0,0.0,0.0,0.0,0.0,0.0,0.0,0.0,0.0,0.0,0.0,0.0,0.0,-0.0811,-0.0643,-0.0128,0.056,0.0764,0.1247,0.1938,0.2941,0.3751,0.4567,0.6078,0.7035,0.0,0.0,0.0,0.0,0.0,0.0,0.0,0.0,0.0,0.0,0.0,0.0,0.0,0.0,0.0,0.0,0.0,0.0,0.0,0.0,0.0,0.0,0.0,0.0,0.0,0.0,0.0,0.0,0.0,0.0,0.0,0.0,0.0,0.0,0.0,1.2881,1.2881,1.2881,1.2881,1.2881,1.2881,1.2881,1.2627,1.2126,1.2026,1.146,1.0403,0.9873,0.9614,0.9614,0.9614,0.9614,0.9614,0.951,0.8928,0.8031,0.7871,0.745,0.681,0.644,0.682,0.7568,0.783,0.8468,0.9263,0.0,0.0,0.0,0.0,0.0,0.0,0.0,0.0,0.0,0.0,0.0,-0.1006,-0.0936,-0.0936,-0.0925,-0.0892,-0.0859,0.0,0.0,0.0,0.0,0.0,0.0,0.0,0.0,0.0,0.0,0.0,0.0,0.0,0.0,-0.3162,-0.3152,0.0,0.0,0.0,0.0,0.0,0.0,-0.1102,-0.0661,-0.0141,0.0406,0.0,0.1158,0.1885,0.0,0.0,0.0,0.5298,0.6386,0.7315,0.8087,0.0,0.0,0.0,0.0,0.0,0.0,0.0,0.0,0.0,0.0,0.0,0.0,0.0,0.0,0.0,0.0,0.0,0.0,0.0,0.0,0.0,0.0,0.0,0.0,0.0,0.0,0.0,0.0,0.0,0.0,0.0,0.0,0.0,1.2881,1.2881,1.2881,1.2881,1.2881,1.2881,1.2881,1.2471,1.161,1.161,1.1049,0.9932,0.9718,0.9614,0.9614,0.9614,0.9614,0.9562,0.9302,0.8876,0.8349,0.7717,0.7509,0.7616,0.7144,0.7467,0.8268,0.8368,0.8837,0.9465,0.0,0.0,0.0,0.0,0.0,0.0,0.0,0.0,0.0,0.0,0.0,-0.0895,-0.0807,0.0,0.0,0.0,-0.0706,0.0,0.0,0.0,0.0,0.0,0.0,0.0,0.0,0.0,0.0,0.0,0.0,0.0,-0.3128,-0.2981,-0.3064,0.0,-0.3046,0.0,0.0,0.0,0.0,-0.1264,-0.0655,-0.0144,0.0273,0.0717,0.1285,0.1911,0.0,0.0,0.0,0.0,0.0,0.0,0.0,0.0,0.0,0.0,0.0,0.0,0.0,0.0,0.0,0.0,0.0,0.0,0.0,0.0,0.0,0.0,0.0,0.0,0.0,0.0,0.0,0.0,0.0,0.0,0.0,0.0,0.0,0.0,0.0,0.0,0.0,0.0,0.0,0.0,1.2929,1.2929,1.2929,1.2929,1.2929,1.2881,1.2881,1.2421,1.146,1.115,1.0541,0.9614,0.9614,0.9614,0.9614,0.9614,0.9614,0.9562,0.9197,0.8823,0.8508,0.7664,0.7616,0.7996,0.7515,0.7788,0.8487,0.8586,0.8942,0.9406,0.0,0.0,0.0,0.0,0.0,0.0,0.0,0.0,0.0,0.0,0.0,-0.0944,-0.0818,-0.0796,-0.0751,-0.0626,-0.0604,0.0,0.0,0.0,0.0,0.0,0.0,0.0,0.0,0.0,0.0,0.0,0.0,0.0,-0.2925,-0.2968,-0.311,-0.3278,-0.2945,-0.2697,-0.2466,0.0,0.0,0.0,-0.059,-0.0123,0.037,0.1095,0.1628,0.2023,0.0,0.0,0.0,0.0,0.0,0.0,0.0,0.0,0.0,0.0,0.0,0.0,0.0,0.0,0.0,0.0,0.0,0.0,0.0,0.0,0.0,0.0,0.0,0.0,0.0,0.0,0.0,0.0,0.0,0.0,0.0,0.0,0.0,0.0,0.0,0.0,0.0,0.0,0.0,0.0,1.3085,1.3085,1.3085,1.3085,1.3027,1.2881,1.2881,1.2627,1.2076,1.0964,1.0138,0.9614,0.9614,0.9614,0.9614,0.9614,0.9614,0.9614,0.9562,0.8928,0.7925,0.7871,0.761,0.7139,0.6864,0.7085,0.7574,0.7574,0.8096,0.883,0.0,0.0,0.0,0.0,0.0,0.0,0.0,0.0,0.0,0.0,0.0,0.0,0.0,-0.074,-0.0718,-0.067,0.0,0.0,0.0,0.0,0.0,0.0,0.0,0.0,0.0,0.0,0.0,0.0,0.0,-0.2031,-0.2698,-0.2603,-0.282,-0.3281,-0.3046,-0.2847,-0.2677,-0.2313,0.0,0.0,0.0,-0.025,0.0,0.0,0.1284,0.1792,0.0,0.0,0.0,0.0,0.0,0.0,0.0,0.0,0.7658,0.0,0.0,0.0,0.0,0.0,0.0,0.0,0.0,0.0,0.0,0.0,0.0,0.0,0.0,0.0,0.0,0.0,0.0,0.0,0.0,0.0,0.0,0.0,0.0,0.0,0.0,0.0,0.0,0.0,0.0,0.0,0.0,1.2453,1.2742,1.2706,1.2788,1.3027,1.2929,1.2627,1.2126,1.0956,1.03,1.0087,0.9769,0.9614,0.9614,0.9614,0.9614,0.9562,0.9249,0.8613,0.7818,0.7133,0.6923,0.7085,0.6977,0.73,0.7741,0.7741,0.8156,0.8679,0.0,0.0,0.0,-0.1771,0.0,-0.1598,-0.1485,-0.1329,0.0,0.0,0.0,0.0,0.0,0.0,0.0,0.0,0.0,0.0,0.0,0.0,0.0,0.0,0.0,0.0,0.0,0.0,0.0,0.0,0.0,0.0,0.0,0.0,-0.2584,-0.303,-0.286,0.0,0.0,0.0,0.0,-0.1625,0.0,0.0,0.0361,0.0,0.0,0.0,0.0,0.0,0.0,0.0,0.0,0.0,0.0,0.61,0.7604,0.8663,0.0,0.0,0.0,0.0,0.0,0.0,0.0,0.0,0.0,0.0,0.0,0.0,0.0,0.0,0.0,0.0,0.0,0.0,0.0,0.0,0.0,0.0,0.0,0.0,0.0,0.0,0.0,0.0,0.0,0.0,0.0,0.0,1.2408,1.2328,1.2423,1.2629,1.2535,1.2216,1.1612,1.0864,1.0327,1.0138,0.9769,0.9614,0.9614,0.9614,0.9614,0.9562,0.9033,0.8455,0.7818,0.6977,0.682,0.7085,0.7192,0.7521,0.7901,0.8055,0.8421,0.8784,-0.202,-0.1896,-0.1788,-0.1736,-0.1725,-0.17,-0.1633,-0.1448,-0.1317,0.0,0.0,0.0,0.0,0.0,0.0,0.0,0.0,0.0,0.0,0.0,0.0,0.0,0.0,0.0,0.0,0.0,0.0,0.0,0.0,0.0,0.0,0.0,-0.242,0.0,-0.242,-0.2542,-0.2762,0.0,-0.211,-0.1572,0.0,-0.0419,0.0226,0.0,0.0,0.0,0.1843,0.2378,0.0,0.0,0.0,0.0,0.0,0.0,0.74,0.778,0.0,0.0,0.0,0.0,0.0,0.0,0.0,0.0,0.0,0.0,0.0,0.0,0.0,0.0,0.0,0.0,0.0,0.0,0.0,0.0,0.0,0.0,0.0,0.0,0.0,0.0,0.0,0.0,0.0,0.0,1.2042,1.2085,1.2095,1.2073,1.1997,1.1713,1.1713,1.1356,1.0642,1.0603,1.0254,0.9651,0.9599,0.9607,0.9614,0.9614,0.9614,0.9562,0.9033,0.8455,0.7925,0.7622,0.7354,0.7139,0.7408,0.7681,0.7955,0.8421,0.8837,0.9106,-0.211,-0.1999,-0.2012,-0.2236,-0.2239,-0.2215,-0.2251,-0.1957,-0.1715,0.0,0.0,0.0,0.0,0.0,0.0,0.0,0.0,0.0,0.0,0.0,0.0,0.0,0.0,0.0,0.0,0.0,0.0,0.0,0.0,0.0,0.0,0.0,0.0,0.0,-0.2388,-0.2404,-0.2505,-0.2426,0.0,0.0,-0.1539,-0.1003,0.0,0.0,0.0,0.0,0.0,0.1613,0.0,0.0,0.3008,0.3277,0.0,0.0,0.0,0.7326,0.8215,0.0,0.9453,0.0,0.0,0.0,0.0,0.0,0.0,0.0,0.0,0.0,0.0,0.0,0.0,0.0,0.0,0.0,0.0,0.0,0.0,0.0,0.0,0.0,0.0,0.0,0.0,0.0,0.0,0.0,1.1213,1.1386,1.1706,1.1984,1.1997,1.1713,1.18,1.1675,1.1318,1.0686,1.0369,1.0336,0.9627,0.9409,0.9614,0.9614,0.9614,0.9562,0.9033,0.8718,0.8508,0.8084,0.7818,0.7717,0.8249,0.8415,0.8468,0.889,0.8942,0.8784,-0.2436,-0.2518,-0.264,-0.2692,-0.2626,-0.2562,-0.2543,-0.2275,-0.2025,0.0,0.0,0.0,0.0,0.0,0.0,0.0,0.0,0.0,0.0,0.0,0.0,-0.0936,-0.0991,0.0,0.0,0.0,0.0,0.0,0.0,0.0,0.0,0.0,0.0,0.0,0.0,-0.1999,-0.2193,0.0,0.0,0.0,-0.1705,0.0,0.0,-0.0361,0.0063,0.0,0.0,0.0,0.1349,0.1976,0.2506,0.0,0.0,0.0,0.5292,0.607,0.0,0.0,0.0,0.0,0.0,0.0,0.0,0.0,0.0,0.0,0.0,0.0,0.0,0.0,0.0,0.0,0.0,0.0,0.0,0.0,0.0,0.0,0.0,0.0,0.0,0.0,0.0,1.1191,1.1115,1.1164,1.1164,1.1214,1.1281,1.147,1.1491,1.1326,1.1418,1.1323,1.1099,1.0591,1.0257,1.0117,0.9665,0.9447,0.9431,0.9555,0.9614,0.9562,0.9242,0.9138,0.9145,0.8981,0.8613,0.8249,0.8679,0.889,0.889,0.9309,0.9204,0.889,0.0,-0.3188,-0.3384,-0.3123,-0.2973,-0.286,-0.2761,-0.2543,-0.2362,0.0,0.0,0.0,0.0,0.0,0.0,0.0,0.0,0.0,0.0,0.0,0.0,-0.0995,-0.0947,-0.0984,0.0,0.0,0.0,0.0,0.0,0.0,0.0,0.0,0.0,0.0,-0.1309,-0.1527,-0.1907,-0.1969,0.0,-0.1971,-0.1651,-0.1224,0.0,0.0,-0.0268,0.0,-0.0,0.0616,0.1445,0.1161,0.176,0.0,0.0,0.3628,0.5021,0.4575,0.6094,0.0,0.0,0.0,0.0,0.0,0.0,0.0,0.9555,0.9335,0.0,0.0,0.0,0.0,0.0,0.0,0.0,0.0,0.0,0.0,0.0,0.0,0.0,0.0,0.0,0.0,1.2077,1.1774,1.1553,1.1516,1.1479,1.1276,1.0919,1.0891,1.0881,1.0784,1.0822,1.0685,1.0431,1.0326,1.0029,0.9541,0.9692,0.955,0.9232,0.9482,0.9614,0.9614,0.9614,0.9614,0.9614,0.9888,0.9472,0.8732,0.9054,0.9218,0.9309,0.9718,0.9614,0.9309,-0.3382,-0.3262,-0.3257,-0.352,-0.3541,-0.3557,-0.3634,-0.329,0.0,0.0,0.0,0.0,0.0,0.0,0.0,0.0,0.0,0.0,0.0,0.0,-0.1168,-0.1013,-0.1042,-0.1101,-0.1177,0.0,0.0,0.0,0.0,0.0,0.0,0.0,0.0,0.0,-0.136,-0.1573,-0.1911,-0.1978,0.0,-0.197,-0.1695,0.0,-0.1239,-0.1055,-0.0905,-0.0813,-0.0571,-0.0725,-0.0947,0.0,-0.0,0.0138,0.0,0.0,0.0,0.0,0.0,0.6705,0.9071,0.9794,1.0005,0.0,0.0,0.0,0.0,0.9638,0.0,0.0,0.0,0.0,0.0,0.0,0.0,0.0,0.0,0.0,0.0,0.0,0.0,0.0,0.0,0.0,1.2174,1.2066,1.1847,1.1516,1.1201,1.0995,1.0891,1.0891,1.0881,1.0784,1.0833,1.0797,1.0547,1.0273,0.9999,0.9727,0.9616,0.947,0.9267,0.9526,0.9614,0.9614,0.9614,0.9614,0.9614,0.9792,0.9577,0.9309,0.9947,0.9991,0.9718,1.0198,1.0087,0.9769,-0.4021,-0.398,-0.399,-0.4131,-0.3955,-0.3816,-0.3881,-0.3549,0.0,0.0,0.0,0.0,0.0,0.0,0.0,0.0,0.0,0.0,0.0,0.0,-0.1305,-0.1115,-0.1158,-0.1166,-0.1097,-0.1199,0.0,0.0,0.0,0.0,0.0,0.0,0.0,0.0,0.0,0.0,0.0,0.0,-0.2009,-0.1984,-0.167,0.0,-0.1234,-0.1146,-0.1116,-0.1123,-0.1211,-0.1532,-0.179,-0.0833,-0.0406,0.0,0.0,0.1777,0.2751,0.0,0.4613,0.5984,0.0,0.0,0.9918,0.9819,0.0,0.0,0.0,0.0,0.9521,0.0,0.0,0.0,0.0,0.0,0.0,0.0,0.0,0.0,0.0,0.0,0.0,0.0,0.0,0.0,1.2321,1.2424,1.2258,1.1811,1.1415,1.1099,1.0919,1.0891,1.0881,1.0833,1.0881,1.0843,1.0756,1.0554,1.0184,0.9662,0.9675,0.9418,0.9071,0.934,0.9519,0.9614,0.9614,0.9614,0.9614,0.9836,0.9844,0.9732,1.0213,1.0308,1.019,1.0411,1.019,0.9865,-0.4619,-0.466,-0.4684,-0.4552,-0.4219,-0.3952,-0.3952,-0.3703,0.0,0.0,0.0,0.0,0.0,0.0,0.0,0.0,0.0,0.0,0.0,0.0,0.0,-0.1275,-0.1268,-0.1213,-0.1078,-0.114,-0.1188,0.0,0.0,0.0,0.0,0.0,0.0,0.0,0.0,0.0,0.0,0.0,0.0,-0.1986,0.0,-0.1457,-0.1198,-0.1255,-0.1298,-0.1399,-0.195,-0.2206,-0.2134,-0.1384,0.0,-0.0219,-0.0395,0.098,0.0,0.0,0.0,0.0,0.0,0.0,0.0,0.0,0.0,1.1011,0.0,0.0,0.0,0.8621,0.0,0.0,0.0,0.0,0.0,0.0,0.0,0.0,0.0,0.0,0.0,0.0,0.0,0.0,0.0,1.2279,1.2138,1.192,1.1422,1.1041,1.0849,1.0878,1.0891,1.0891,1.0891,1.0891,1.0891,1.0833,1.0428,0.9646,0.976,0.9542,0.8997,0.9193,0.9429,0.9621,0.9614,0.9614,0.9614,0.9888,0.9999,0.9999,1.0265,1.0419,1.0522,1.0522,1.0249,0.9976,-0.4924,-0.4679,-0.4475,-0.4289,-0.4207,-0.4166,-0.4166,-0.3973,0.0,0.0,0.0,0.0,0.0,0.0,0.0,0.0,0.0,0.0,-0.2003,0.0,0.0,-0.1474,-0.13,-0.125,-0.1348,-0.1196,-0.1166,0.0,0.0,0.0,0.0,0.0,-0.1491,-0.1244,-0.1825,0.0,0.0,0.0,-0.2201,0.0,-0.2102,-0.1857,0.0,-0.1863,-0.2012,-0.2183,-0.289,-0.2992,-0.2726,0.0,-0.2101,-0.1946,0.0,0.0222,0.0,0.0,0.0,0.0,0.0,0.0,0.0,0.0,1.2207,0.0,0.0,0.0,1.0064,0.9266,0.0,0.0,0.0,0.0,0.0,0.0,0.0,0.0,0.0,0.0,0.0,0.0,0.0,0.0,0.0,1.0864,1.0485,1.1069,1.0245,1.0035,1.0694,1.084,1.0891,1.0891,1.0891,1.0891,1.0891,1.0881,1.0641,1.0205,1.005,0.9891,0.9673,0.9435,0.9487,0.9792,0.9673,0.9614,0.9614,0.9888,0.9999,1.0051,1.0368,1.047,1.0522,1.0522,1.047,1.0411,-0.5291,-0.503,-0.4794,-0.4635,-0.4475,-0.4342,-0.4228,-0.4233,0.0,0.0,0.0,0.0,0.0,0.0,0.0,0.0,0.0,-0.2196,0.0,0.0,0.0,-0.1848,-0.1923,-0.191,-0.181,-0.1611,-0.1514,-0.1527,-0.1304,0.0,0.0,0.0,-0.1691,-0.1687,-0.2037,0.0,-0.2439,0.0,0.0,0.0,0.0,0.0,0.0,-0.2248,-0.2524,-0.2934,-0.3293,-0.34,-0.3353,0.0,-0.2569,0.0,0.0,0.0,0.0,0.0,0.0,0.0,0.0,0.0,0.0,0.0,0.0,0.0,0.9456,0.0,0.9363,0.0,0.0,0.0,0.0,0.0,0.0,0.0,0.0,0.0,0.0,0.0,0.0,0.0,0.0,0.0,0.0,0.0,0.0,0.0,1.0038,0.981,1.0656,1.0583,1.0613,1.0881,1.0891,1.0891,1.0891,1.0891,1.069,1.0283,1.0141,1.014,1.0256,0.9697,0.9727,1.0226,0.9769,0.9614,0.9614,0.9888,0.9999,1.0051,1.036,1.0522,1.0522,1.0522,1.0522,1.0522,-0.5492,0.0,0.0,0.0,-0.4715,-0.4515,-0.435,-0.4372,-0.4335,0.0,0.0,0.0,-0.3576,-0.3231,0.0,0.0,0.0,-0.2642,0.0,0.0,-0.2446,-0.2298,-0.241,0.0,0.0,0.0,-0.1845,-0.1811,-0.1488,0.0,0.0,0.0,0.0,-0.2005,0.0,-0.2505,-0.2841,0.0,0.0,-0.2833,-0.279,-0.2803,-0.2834,-0.2712,-0.3068,-0.368,-0.3648,-0.3738,-0.3872,-0.379,-0.305,0.0,-0.2736,0.0,0.0,0.0,0.0,0.0,0.1401,0.0,0.0,0.0,0.0,0.0,0.0,0.0,0.0,0.0,0.0,0.0,0.0,0.0,0.0,0.0,0.0,0.0,0.0,0.0,0.0,0.0,0.0,0.0,0.0,0.0,0.0,0.0,0.0,0.9475,1.0575,1.0425,1.0516,1.0909,1.0891,1.0891,1.0891,1.0891,1.069,1.0283,1.0205,1.0249,1.0454,0.9814,0.9874,1.0439,0.9879,0.9614,0.9614,0.9888,0.9999,1.0051,1.036,1.0522,1.0522,1.0522,1.0522,1.0522,-0.5492,-0.5291,0.0,0.0,0.0,-0.4753,-0.4613,-0.4377,-0.4445,0.0,0.0,0.0,0.0,0.0,0.0,0.0,0.0,-0.3502,-0.3639,0.0,-0.2986,0.0,0.0,-0.2361,0.0,0.0,-0.2024,-0.2094,-0.181,-0.1681,0.0,0.0,0.0,0.0,0.0,-0.2512,-0.2531,-0.2576,-0.2705,-0.2916,-0.3104,-0.33,-0.3456,0.0,-0.3763,-0.4427,-0.403,0.0,0.0,-0.3874,-0.3816,0.0,0.0,0.0,0.0,0.0,0.0,0.0,0.0,0.0,0.0,0.3081,0.0,0.0,0.0,0.0,0.9465,0.0,0.0,0.0,0.0,0.0,0.0,0.0,0.0,0.0,0.0,0.0,0.0,0.0,0.0,0.0,0.0,0.0,0.0,0.0,0.0,0.0,1.0323,1.0564,1.0748,1.0909,1.0891,1.0891,1.0891,1.0891,1.069,1.0283,1.0283,1.0269,1.0194,0.9779,0.9831,1.0213,0.9789,0.9614,0.9614,0.9888,0.9999,1.0051,1.036,1.0522,1.0522,1.0522,1.0522,1.0522,0.0,0.0,0.0,0.0,0.0,0.0,-0.5416,-0.5001,-0.4908,0.0,0.0,0.0,0.0,0.0,-0.4717,0.0,0.0,-0.4167,-0.403,-0.3915,0.0,0.0,0.0,-0.3395,0.0,0.0,-0.2519,-0.237,-0.2096,-0.1959,0.0,0.0,0.0,0.0,0.0,-0.3035,0.0,0.0,0.0,0.0,0.0,-0.3657,-0.3877,0.0,0.0,-0.4646,-0.4895,-0.5009,0.0,-0.5089,-0.4712,-0.4319,-0.4518,-0.4387,-0.4272,-0.4674,-0.3735,0.0,0.0,0.0,0.0866,0.3808,0.0,0.0,0.0,0.0,0.0,0.0,0.0,0.0,0.0,0.0,0.0,0.0,0.0,0.0,0.0,0.0,0.0,0.0,0.0,0.0,0.0,0.0,0.0,0.0,0.8098,0.0,0.0,1.0123,1.03,1.0417,1.0726,1.0891,1.0891,1.0891,1.069,1.0283,1.0515,1.0627,1.0605,1.0514,1.0676,1.1084,1.0439,1.0138,1.0138,1.0395,1.03,1.0051,1.0769,1.082,1.0522,1.0522,1.0522,1.0522,-0.5492,0.0,0.0,0.0,0.0,0.0,0.0,0.0,0.0,0.0,-0.6471,0.0,-0.6235,0.0,-0.5474,0.0,-0.5303,-0.4969,-0.472,-0.4622,0.0,-0.3841,-0.4058,0.0,0.0,0.0,-0.2944,-0.2745,-0.2548,-0.2436,0.0,0.0,0.0,0.0,0.0,0.0,0.0,0.0,-0.3399,0.0,0.0,-0.4074,0.0,0.0,-0.5064,-0.5121,0.0,-0.5663,-0.5793,-0.5964,-0.5545,-0.4981,-0.5567,-0.5313,-0.4928,-0.5674,-0.4654,-0.3126,-0.2041,-0.2073,0.0,0.2626,0.2143,0.0,0.6681,0.0,0.0,0.0,0.0,0.0,0.0,0.0,0.0,0.0,0.0,0.0,0.0,0.0,0.0,0.0,0.0,0.0,0.0,0.0,0.7017,0.8472,0.0,0.0,0.0,0.0,1.0211,1.0383,1.0718,1.0891,1.0891,1.0891,1.0603,1.0,1.0544,1.0538,1.005,1.0625,1.1012,1.1112,1.0582,1.0506,1.0651,1.0498,1.0498,1.0608,1.0863,1.0871,1.0769,1.0565,1.0522,1.0522,0.0,0.0,0.0,0.0,-0.6186,0.0,0.0,0.0,-0.7759,0.0,-0.6909,-0.7095,-0.7275,-0.6698,-0.6477,-0.6765,-0.629,0.0,-0.5653,-0.5465,0.0,0.0,-0.4317,-0.4031,-0.3525,0.0,0.0,0.0,0.0,0.0,0.0,0.0,0.0,0.0,-0.2848,0.0,-0.351,-0.3433,-0.3593,-0.3926,-0.4156,-0.4509,-0.4979,-0.5524,-0.5739,-0.5776,-0.5782,-0.6002,-0.6307,-0.6477,-0.6264,-0.5922,-0.6136,-0.6227,-0.613,-0.5427,-0.5417,-0.5264,-0.3517,-0.2822,-0.2211,-0.0446,-0.088,0.0,0.0,0.0,0.6175,0.0,0.0,0.0,0.0,0.0,0.0,0.0,0.0,0.0,0.0,0.0,0.0,0.0,0.0,0.0,0.0,0.0,0.6533,0.7891,0.8,0.0,0.0,0.0,1.0442,1.0645,1.0809,1.0881,1.0881,1.0881,1.04,0.9478,1.0351,1.003,0.8741,1.0238,1.0695,1.0317,1.0392,1.0753,1.1108,1.0198,1.0557,1.1501,1.0667,1.0718,1.1226,1.0675,1.0522,1.0522,-0.5492,-0.5492,-0.5498,0.0,-0.5674,-0.6044,0.0,0.0,0.0,0.0,-0.7214,-0.7185,-0.7093,-0.6936,-0.6875,-0.6949,-0.6772,0.0,0.0,0.0,0.0,-0.4864,-0.4972,-0.4625,-0.3817,-0.3665,0.0,-0.3265,0.0,0.0,-0.3302,0.0,0.0,0.0,0.0,0.0,-0.3569,-0.3502,-0.3741,-0.4163,-0.4762,-0.5014,0.0,0.0,-0.6368,-0.67,-0.7043,-0.7259,-0.7308,-0.7266,-0.707,-0.6781,-0.6526,-0.6823,-0.7196,-0.6677,-0.6446,-0.6247,-0.5408,-0.473,-0.3759,-0.1782,-0.1828,-0.1853,0.0,0.0,0.0,0.0,0.0,0.0,0.0,0.0,0.0,0.0,0.0,0.0,0.0,0.0,0.0,0.0,0.0,0.0,0.0,0.6425,0.7199,0.8017,0.8078,0.0,0.0,0.0,0.0,1.0178,1.0652,1.0766,1.0448,1.0766,1.0235,0.8981,0.9873,0.9677,0.8618,1.0299,1.0936,1.0768,1.0925,1.1049,1.1158,1.0702,1.0753,1.1006,1.1015,1.0922,1.0675,1.0565,1.0522,1.0522,-0.5502,0.0,0.0,-0.6685,0.0,0.0,-0.6566,0.0,0.0,-0.7033,-0.7206,0.0,-0.6902,-0.6947,-0.6979,-0.6979,-0.695,0.0,0.0,0.0,0.0,-0.5547,-0.5579,-0.5363,-0.4884,-0.4515,0.0,-0.3917,0.0,0.0,-0.3584,0.0,0.0,0.0,0.0,-0.3656,0.0,-0.408,-0.4395,-0.4828,-0.5213,0.0,0.0,-0.6258,-0.6923,-0.7668,-0.7889,-0.7979,-0.7938,-0.7731,-0.7621,-0.7419,-0.7034,-0.6859,-0.6901,-0.7147,-0.6797,-0.6283,-0.6149,-0.5973,-0.5391,-0.3437,-0.4164,-0.4597,-0.1487,-0.1935,-0.1959,0.0,0.4068,0.605,0.0,0.0,0.0,0.0,0.0,0.0,0.0,0.0,0.0,0.0,0.0,0.0,0.5407,0.6394,0.7207,0.7422,0.746,0.0,0.0,0.0,0.0,1.0134,1.045,1.0562,1.0564,1.0564,1.003,0.903,0.9478,0.9255,0.8442,0.9951,1.0596,1.0513,1.0755,1.1108,1.156,1.0947,1.1049,1.151,1.1368,1.1124,1.082,1.0573,1.0522,1.0522,0.0,0.0,0.0,0.0,0.0,0.0,0.0,-0.7408,0.0,-0.6914,0.0,-0.7281,-0.6888,-0.6994,-0.7098,-0.7098,0.0,-0.6985,-0.6572,-0.6697,-0.6613,-0.6287,-0.616,-0.6102,-0.6098,-0.5426,0.0,0.0,0.0,0.0,0.0,0.0,0.0,0.0,0.0,0.0,0.0,-0.4744,-0.517,0.0,-0.5567,-0.6002,-0.6641,-0.6605,-0.7356,-0.8431,-0.8275,-0.8316,-0.8357,-0.8118,-0.7995,-0.7919,-0.7538,-0.681,-0.6258,-0.714,-0.6761,-0.6087,-0.6295,-0.6774,-0.6862,-0.5464,-0.6899,-0.7434,-0.269,-0.4067,-0.5252,-0.1442,0.194,0.4051,0.0,0.0,0.0,0.0,0.0,0.0,0.0,0.0,0.0,0.0,0.0,0.0,0.0,0.6114,0.6863,0.6525,0.6517,0.0,0.0,0.0,0.0,1.0294,1.0255,1.038,1.0718,1.0361,0.9834,0.9119,0.9177,0.884,0.8253,0.9473,1.0018,1.0003,1.0303,1.0964,1.1819,1.088,1.1191,1.2175,1.1528,1.1276,1.1124,1.0667,1.0522,1.0522,0.0,0.0,0.0,0.0,0.0,-1.0337,-1.0491,-0.9384,-0.8306,-0.7761,-0.7715,-0.7725,-0.7715,-0.7742,-0.7722,-0.7722,-0.8126,0.0,0.0,0.0,0.0,-0.6807,-0.6752,-0.6518,-0.6031,-0.5432,-0.4999,0.0,-0.4218,-0.3924,0.0,0.0,0.0,0.0,0.0,0.0,-0.424,-0.4535,0.0,-0.4928,-0.5736,-0.6179,-0.6349,-0.6992,-0.7614,-0.8062,-0.7995,-0.8447,-0.9016,-0.8854,-0.8578,-0.825,-0.7773,-0.7641,-0.7516,-0.6979,-0.7014,-0.7098,-0.6719,-0.681,-0.7346,-0.8548,-0.7878,-0.7794,-1.1018,-1.095,-0.9754,-0.8133,-0.7273,-0.4819,0.172,0.0,0.0,0.0,0.0,0.0,0.0,0.0,0.0,0.0,0.0,0.0,0.0,0.0,0.676,0.0,0.0,0.0,0.0,0.0,0.0,0.0,1.0161,0.0,0.0,0.0,0.9825,0.8152,0.8854,0.884,0.8216,0.9164,0.9745,1.0003,1.0303,1.0506,1.0659,1.0146,1.0249,1.0726,1.1124,1.1023,1.0624,1.0522,1.0522,1.0522,0.0,0.0,0.0,0.0,0.0,0.0,0.0,-1.0345,0.0,-0.9157,-0.8993,-0.8849,-0.8626,-0.8699,-0.8803,-0.8803,-0.8889,-0.8775,-0.8352,-0.832,-0.8114,-0.7709,-0.737,0.0,-0.7051,-0.6456,-0.5949,-0.5582,-0.4906,-0.4488,0.0,0.0,0.0,0.0,0.0,-0.4454,0.0,0.0,0.0,-0.5613,-0.6324,-0.6725,-0.6937,-0.7321,-0.7731,-0.8103,-0.7953,-0.848,-0.9168,-0.8724,-0.8643,-0.861,-0.8021,-0.7773,-0.7614,-0.7321,-0.7147,-0.7063,-0.6985,-0.695,-0.7415,-0.9329,-0.8984,-0.9105,-1.2742,-1.3207,-1.274,-1.229,-1.0845,-0.726,0.058,0.542,0.0,0.0,0.0,0.0,0.0,0.0,0.0,0.0,0.0,0.0,0.0,0.0,0.0,0.0,0.0,0.0,0.0,0.0,0.0,0.0,0.0,0.0,1.0235,0.0,0.9922,0.8975,0.9006,0.8904,0.8777,0.9158,0.9494,0.9806,0.9915,1.0138,1.0403,1.036,1.0514,1.0667,1.082,1.0922,1.0871,1.0624,1.0812,1.1209,0.0,-1.058,0.0,0.0,-1.1368,0.0,-1.0958,-1.111,-1.1084,-1.0383,-1.0153,-0.9926,-0.9558,-0.9676,-0.9753,-0.9753,-0.9714,-0.9502,-0.9197,-0.8845,-0.8625,-0.861,-0.8084,-0.79,-0.8093,-0.7525,-0.6897,0.0,-0.5607,0.0,0.0,0.0,-0.4332,-0.4566,0.0,0.0,0.0,0.0,-0.6036,-0.6385,-0.6832,-0.7251,-0.7638,-0.7724,-0.798,-0.8277,-0.808,-0.8538,-0.9147,-0.848,-0.8593,-0.8903,-0.8362,-0.7874,-0.7538,-0.7545,-0.7286,-0.7086,-0.7559,-0.7371,-0.7656,-1.0436,-1.0381,-1.0449,-1.3432,-1.4296,-1.4592,-1.5057,-1.2218,-0.7806,-0.1771,0.2951,0.0,0.0,0.0,0.0,0.0,0.0,0.0,0.0,0.0,0.0,0.0,0.0,0.0,0.0,0.0,0.0,0.6535,0.0,0.0,0.0,0.0,0.9682,1.0356,0.0,1.0058,0.9953,0.9258,0.9112,0.9439,0.9294,0.9336,0.9614,0.9614,0.9821,1.0241,1.0557,1.0761,1.0753,1.0565,1.0769,1.1074,1.0667,1.1015,1.156,0.0,0.0,0.0,0.0,0.0,0.0,-1.1837,-1.2319,-1.2215,-1.0755,-1.0466,-1.0383,-1.044,-1.0396,-1.0319,-1.0319,-1.0797,-1.0723,-0.985,-1.0219,-1.0109,-0.9244,-0.9005,-0.8709,-0.837,-0.7821,-0.7075,0.0,0.0,-0.5261,0.0,-0.4602,-0.4782,-0.504,-0.5201,0.0,0.0,-0.5599,-0.5951,-0.6507,-0.6912,-0.7446,-0.8016,-0.845,-0.859,-0.8643,-0.835,-0.8575,-0.8982,-0.8514,-0.8656,-0.8994,-0.8875,-0.8408,-0.7814,-0.716,-0.7405,-0.8063,-0.9046,-0.8326,-0.8673,-1.4139,-1.2493,-1.1016,-1.6757,-1.6317,-1.5113,-1.6635,-1.2996,-0.9015,-0.7329,-0.1546,0.3668,0.0,0.0,0.0,0.0,0.0,0.0,0.0,0.0,0.0,0.0,0.0,0.0,0.0,0.0,0.0,0.0,0.0,0.0,0.7794,0.856,0.8831,0.8538,0.9858,1.031,0.9809,0.9538,0.9628,0.9939,0.94,0.9336,0.9614,0.9614,0.9614,0.9718,0.9991,1.0102,1.0102,1.0411,1.0522,1.0573,1.0522,1.0573,1.0616,0.0,0.0,0.0,0.0,0.0,0.0,0.0,-1.279,-1.2667,-1.205,-1.178,-1.1639,-1.1633,-1.1501,-1.1401,-1.1401,-1.136,-1.1208,-1.0995,-1.0474,-1.01,-0.9914,-0.9424,-0.9067,-0.8754,-0.8297,-0.7753,0.0,0.0,0.0,0.0,-0.5531,-0.55,-0.5634,0.0,-0.5972,-0.6331,-0.6723,-0.7006,-0.7323,-0.8044,-0.8287,-0.8334,-0.8677,-0.8825,-0.8778,-0.8435,-0.8522,-0.8778,-0.8601,-0.8741,-0.9045,-0.8837,-0.8566,-0.8275,-0.7878,-0.7878,-0.8458,-1.025,-0.9151,-0.8972,-1.5247,-1.4128,-1.2824,-1.7964,-1.7897,-1.693,-1.7587,-1.3999,-1.0391,-0.9361,-0.3487,0.1761,0.3459,0.0,0.0,0.0,0.0,0.0,0.0,0.0,0.0,0.0,0.0,0.0,0.0,0.0,0.3463,0.4806,0.0,0.0,0.7033,0.0,0.853,0.8718,0.9639,1.028,1.0577,1.0394,1.0489,1.0854,1.0541,1.0463,1.0533,1.0533,1.0533,1.0584,1.0846,1.0956,1.1006,1.1309,1.141,1.141,1.141,1.1601,1.1841,-1.242,0.0,-1.1913,0.0,-1.3186,-1.3478,-1.318,-1.3007,-1.2881,-1.2881,-1.2735,-1.2529,-1.2382,-1.2224,-1.2126,-1.2076,-1.1678,-1.1477,-1.1578,-1.0714,-1.0229,-1.0377,-0.9851,0.0,-0.9196,-0.8875,-0.8409,-0.7808,-0.7317,0.0,0.0,-0.6253,-0.615,-0.6351,-0.6478,-0.665,-0.6956,-0.7641,-0.7936,-0.8098,-0.8815,-0.9052,-0.8948,-0.9108,-0.9156,-0.9108,-0.8713,-0.8657,-0.8783,-0.8618,-0.8686,-0.8815,-0.8776,-0.8689,-0.8576,-0.8341,-0.8247,-0.8685,-1.0752,-1.0088,-1.0197,-1.6016,-1.5959,-1.5424,-1.9085,-1.9284,-1.8535,-1.8075,-1.5129,-1.226,-1.1181,-0.6136,-0.1421,0.0913,0.0,0.0,0.0,0.0,0.0,0.0,0.0,0.7738,0.0,0.0,0.0,0.0,0.0,0.3656,0.458,0.0,0.0,0.0,0.0,0.0,0.8569,0.9361,1.0208,1.1113,1.0864,1.0946,1.1309,1.1089,1.1049,1.12,1.12,1.12,1.12,1.151,1.1601,1.161,1.1909,1.2008,1.2008,1.2008,1.2246,1.253,-1.36,-1.3589,-1.3589,-1.36,-1.361,-1.343,-1.2978,-1.2881,-1.2881,-1.2881,-1.2881,-1.2774,-1.2529,-1.2382,-1.2224,-1.2126,-1.1877,-1.1578,-1.1326,-1.1015,-1.0769,0.0,0.0,-1.0043,-0.9611,-0.9456,-0.8981,-0.8091,0.0,0.0,-0.6789,-0.6535,-0.6686,-0.7173,-0.7404,-0.7393,-0.7254,-0.8062,-0.848,-0.8607,-0.902,-0.9517,-0.9984,-0.9836,-0.9784,-0.9732,-0.9361,-0.9099,-0.8949,-0.8521,-0.8315,-0.8317,-0.8733,-0.8774,-0.8576,-0.8341,-0.8381,-0.882,-1.0242,-1.121,-1.2819,-1.6874,-1.8164,-1.8857,-2.0507,-2.0455,-1.9613,-1.8031,-1.6336,-1.4776,-1.3483,-1.0382,-0.6493,-0.1911,0.0,0.0,0.0,0.0,0.0,0.0,0.7244,0.7454,0.6763,0.0,0.0,0.0,0.0,0.4898,0.5174,0.0,0.0,0.6696,0.7995,0.0,0.7517,0.889,1.0116,1.1079,1.0769,1.0816,1.1191,1.0651,1.0702,1.12,1.12,1.12,1.12,1.151,1.1601,1.161,1.1909,1.2008,1.2008,1.2008,1.2008,1.1999,-1.3621,-1.3621,-1.3621,-1.3621,-1.3621,-1.3573,-1.3382,-1.3113,-1.2881,-1.2881,-1.2881,-1.2881,-1.2783,-1.248,-1.2274,0.0,-1.1927,-1.1678,0.0,-1.1175,-1.0871,-1.0769,-1.0573,-1.0312,-1.0101,-0.9726,-0.9358,-0.9004,0.0,0.0,0.0,-0.7392,-0.7276,-0.7273,-0.7454,-0.7683,-0.7933,-0.8364,-0.8696,-0.9064,-0.9474,-0.9718,-0.988,-1.0051,-1.0058,-0.9895,-0.9465,-0.9106,-0.8857,-0.8798,-0.8474,-0.8078,-0.8391,-0.8468,-0.8517,-0.8816,-1.01,-1.1897,-1.4046,-1.4883,-1.6186,-2.0386,-2.0129,-1.9353,-2.1339,-2.0982,-2.0094,-1.9633,-1.8168,-1.6621,-1.5489,-1.2828,-0.9786,-0.6578,-0.2216,0.0,0.0,0.0,0.0,0.0,0.7176,0.7274,0.0,0.648,0.0,0.0,0.0,0.0,0.0,0.0,0.0,0.0,0.7448,0.0,0.8183,0.8754,0.9606,1.0778,1.0656,1.1028,1.1819,1.2017,1.2224,1.2372,1.2372,1.2372,1.2372,1.2569,1.2657,1.2725,1.288,1.3025,1.3132,1.3505,1.3647,1.3695,-1.3621,-1.3621,-1.3621,-1.3621,-1.3621,-1.3621,-1.3621,-1.3344,-1.3113,-1.2929,-1.2881,-1.2881,-1.2881,-1.2618,0.0,-1.2332,-1.1828,-1.1528,-1.1528,-1.1074,-1.0777,-1.0777,-1.0573,-1.0419,-1.0316,-0.9953,0.0,-0.9545,-0.9021,-0.8636,-0.8447,-0.7983,-0.7745,-0.771,-0.7878,-0.8101,-0.837,-0.8854,-0.9197,-0.9465,-0.988,-1.0079,-1.0087,-1.0265,-1.0162,-0.9947,-0.9621,-0.9159,-0.8804,-0.8956,-0.8362,-0.7664,-0.8072,-0.7972,-0.805,-0.9803,-1.1458,-1.3272,-1.5868,-1.7309,-1.8764,-2.1531,-2.1649,-2.132,-2.2303,-2.1631,-2.0774,-2.0714,-1.9661,-1.8302,-1.6865,-1.5059,-1.2597,-0.8884,-0.4665,-0.1106,0.0903,0.0,0.0,0.0,0.0,0.0,0.0,0.6833,0.6041,0.0,0.0,0.0,0.0,0.0,0.0,0.684,0.7935,0.8569,0.8615,0.9032,0.9632,1.0398,1.0482,1.1068,1.2076,1.2224,1.252,1.2881,1.2881,1.2881,1.2929,1.3036,1.3152,1.3218,1.3552,1.38,1.3941,1.4466,1.4651,1.4697,-1.3621,-1.3621,-1.3621,0.0,-1.3621,-1.3621,-1.3621,-1.3573,-1.3382,-1.2978,-1.2881,-1.2881,-1.2881,-1.2715,-1.251,-1.2323,0.0,0.0,-1.1326,-1.082,-1.0573,-1.0522,-1.0522,-1.0419,-1.0316,-1.011,-0.9947,-0.9799,-0.9134,-0.8887,-0.9001,-0.8255,-0.812,-0.8368,-0.8527,-0.8573,-0.8626,-0.9399,-0.971,-0.9762,-1.0249,-1.0462,-1.0419,-1.0368,-1.0162,-0.9947,-0.9725,-0.9263,-0.8804,-0.8956,-0.8156,-0.7187,-0.7865,-0.7385,-0.7315,-1.1095,-1.2484,-1.3454,-1.6238,-1.8811,-2.0778,-2.1023,-2.2824,-2.43,-2.3427,-2.2453,-2.1671,-2.1422,-2.0849,-1.9818,-1.7904,-1.7149,-1.5045,-0.9635,-0.684,-0.4166,-0.0721,0.0,0.0,0.0,0.0,0.0,0.7162,0.7067,0.6951,0.0,0.0,0.0,0.0,0.0,0.6714,0.8337,0.9146,0.934,0.8909,0.9659,1.0003,1.0027,1.0295,1.0964,1.1977,1.146,1.1859,1.2832,1.2881,1.2881,1.2929,1.3027,1.3104,1.3266,1.3931,1.4269,1.4466,1.4971,1.5153,1.5153,0.0,0.0,-1.3621,-1.3621,-1.3621,-1.3621,-1.3621,-1.3296,-1.3017,-1.2929,-1.2881,-1.2881,-1.2881,-1.2715,-1.2559,-1.248,-1.2126,-1.1828,-1.1628,-1.1267,-1.1023,-1.082,-1.0624,-1.0419,-1.0316,-1.011,-0.9888,-0.9673,-0.929,-0.9089,-0.9008,-0.8515,-0.8252,-0.8221,-0.8109,-0.8055,-0.8109,-0.8626,-0.8883,-0.8935,-0.9666,-0.9976,-0.9976,-1.0308,-1.0265,-0.9999,-0.9792,-0.9323,-0.8804,-0.8837,-0.809,-0.7187,-0.7545,-0.7171,-0.7315,-1.1095,-1.3615,-1.5911,-1.9111,-2.1931,-2.3976,-2.3938,-2.4408,-2.4801,-2.4549,-2.3799,-2.3177,-2.3059,-2.2136,-2.1116,-2.0344,-1.9443,-1.7576,-1.3866,-1.0844,-0.7474,-0.3115,-0.0515,0.0,0.0,0.4774,0.5429,0.6632,0.6641,0.6422,0.0,0.0,0.0,0.6025,0.7174,0.8024,0.8407,0.8786,0.9351,1.0169,1.0043,1.0122,1.0335,1.0364,1.0549,1.0812,1.1569,1.2026,1.2323,1.2725,1.2881,1.2881,1.2929,1.3055,1.3266,1.3836,1.4176,1.4512,1.5311,1.5611,1.5668,-1.3621,-1.3621,-1.3621,-1.3621,-1.3621,-1.3621,-1.3621,-1.3382,-1.32,-1.32,-1.3017,-1.2881,-1.2881,-1.2676,-1.252,-1.2431,-1.2126,-1.1877,-1.1728,-1.1427,-1.1175,-1.0922,-1.0769,-1.0565,-1.0419,-1.0102,-0.9888,-0.9614,-0.9413,-0.9211,-0.9008,-0.8633,-0.8374,-0.8221,-0.8215,-0.8209,-0.8268,-0.8883,-0.9145,-0.9197,-0.988,-1.0138,-1.0138,-1.0411,-1.0308,-0.9999,-0.9784,-0.9323,-0.8804,-0.8679,-0.7937,-0.7133,-0.7337,-0.6745,-0.6733,-1.0364,-1.3613,-1.7005,-2.1619,-2.3956,-2.507,-2.4974,-2.5006,-2.5,-2.4847,-2.452,-2.4206,-2.4077,-2.3385,-2.2552,-2.1801,-2.0726,-1.9018,-1.6144,-1.2666,-0.8902,-0.4824,-0.1921,0.0965,0.4227,0.4493,0.5178,0.7072,0.6802,0.6596,0.6811,0.7057,0.0,0.6407,0.7513,0.832,0.8577,0.9059,0.9766,1.0612,1.0573,1.0606,1.0753,1.0753,1.0905,1.1209,1.1819,1.2224,1.248,1.2774,1.2881,1.2881,1.2881,1.3007,1.3256,1.4014,1.449,1.4823,1.5756,1.6107,1.6163,-1.3621,-1.3621,-1.3621,-1.3621,-1.3621,-1.3621,-1.3621,-1.3621,-1.3621,-1.3621,-1.3248,-1.2968,-1.2929,-1.2676,-1.248,-1.2323,-1.1977,-1.1778,-1.1778,-1.1528,-1.1226,-1.0972,-1.0922,-1.082,-1.0565,-1.0257,-0.9932,-0.9614,-0.9465,-0.9256,-0.9008,-0.8738,-0.8474,-0.8275,-0.8474,-0.8573,-0.8679,-0.9347,-0.9658,-0.9769,-1.0198,-1.036,-1.0308,-1.0419,-1.0257,-0.9895,-0.9666,-0.9256,-0.8752,-0.8374,-0.7723,-0.7079,-0.7128,-0.6627,-0.6606,-0.9591,-1.3375,-1.7743,-2.2892,-2.4689,-2.5107,-2.5025,-2.5075,-2.5082,-2.4809,-2.4836,-2.4883,-2.4712,-2.4444,-2.393,-2.2826,-2.1539,-1.9849,-1.7393,-1.3632,-0.9797,-0.6349,0.0,0.0415,0.3831,0.4176,0.4974,0.7226,0.6888,0.6923,0.7771,0.758,0.7345,0.7152,0.766,0.8165,0.8692,0.9486,1.0149,1.0706,1.1038,1.1259,1.1309,1.125,1.146,1.1977,1.2076,1.2332,1.2783,1.2881,1.2881,1.2881,1.2929,1.3104,1.3399,1.4376,1.4903,1.5322,1.6163,1.6522,1.6522,-1.3621,-1.3621,-1.3621,-1.3621,-1.3621,-1.3621,-1.3621,-1.3621,-1.3621,-1.3621,-1.3525,-1.3344,-1.2929,-1.2881,-1.2676,-1.2323,-1.2224,-1.2175,-1.2026,-1.1778,-1.1528,-1.1226,-1.1023,-1.0913,-1.0905,-1.0635,-1.0218,-0.9614,-0.9465,-0.9309,-0.9159,-0.8903,-0.8692,-0.8527,-0.8321,-0.8474,-0.8778,-0.8778,-0.8995,-0.9316,-0.9718,-0.9725,-0.9472,-1.0102,-0.9999,-0.9465,-0.9465,-0.9211,-0.885,-0.7943,-0.7348,-0.6858,-0.6475,-0.7765,-0.9551,-1.0079,-1.4664,-1.9688,-2.0357,-2.2803,-2.5168,-2.5106,-2.5228,-2.5302,-2.5091,-2.5053,-2.5046,-2.5022,-2.4981,-2.4761,-2.4179,-2.253,-2.0637,-1.879,-1.5562,-1.2046,-0.8504,0.0,-0.2047,0.0407,0.2456,0.4046,0.4886,0.5812,0.6526,0.694,0.8082,0.8391,0.7416,0.812,0.8528,0.8399,0.9003,0.9883,1.1106,1.1174,1.146,1.1968,1.146,1.1259,1.136,1.1868,1.2126,1.2234,1.2676,1.2881,1.2929,1.3027,1.3392,1.392,1.4628,1.522,1.5744,1.6293,1.6522,1.6522,-1.3807,-1.3621,-1.3621,-1.3621,-1.3621,-1.3621,-1.3621,-1.3621,-1.3621,-1.3621,-1.3621,-1.343,-1.2978,-1.2881,-1.2783,-1.2431,-1.2323,-1.2323,-1.2431,-1.2076,-1.1778,-1.1528,-1.1276,-1.0913,-1.0454,-1.0344,-1.0028,-0.9614,-0.9562,-0.9361,-0.9113,-0.8962,-0.8903,-0.8896,-0.8626,-0.8784,-0.9249,-0.9242,-0.9256,-0.9263,-0.9932,-0.988,-0.9465,-0.9732,-0.9629,-0.9361,-0.8876,-0.8567,-0.8309,-0.7515,-0.6972,-0.6475,-0.6263,-0.6651,-0.7173,-0.732,-1.3359,-2.0371,-2.222,-2.3985,-2.5293,-2.522,-2.5253,-2.5283,-2.5264,-2.5203,-2.5163,-2.5214,-2.5179,-2.5024,-2.453,-2.3112,-2.1656,-2.0638,-1.8033,-1.4886,-1.1124,-0.8669,-0.5935,-0.2309,0.0,0.1821,0.319,0.4745,0.6144,0.7408,0.7869,0.7978,0.7686,0.8057,0.8319,0.8499,0.9394,1.0144,1.0744,1.136,1.1819,1.2076,1.2116,1.2116,1.2116,1.2421,1.2666,1.29,1.319,1.343,1.3658,1.38,1.4071,1.4433,1.5017,1.5466,1.5876,1.6337,1.6522,1.6522,-1.4542,-1.4252,-1.4252,-1.4252,-1.39,-1.3621,-1.3621,-1.3621,-1.3621,-1.3621,-1.3621,-1.3478,-1.3113,-1.2978,-1.2774,-1.2529,-1.2431,-1.2431,-1.2676,-1.2323,-1.2026,-1.1909,-1.1619,-1.1065,-1.0198,-1.0205,-0.9991,-0.9614,-0.9562,-0.9361,-0.9061,-0.9008,-0.9061,-0.9106,-0.8837,-0.8988,-0.9465,-0.951,-0.9406,-0.9263,-0.9947,-0.9888,-0.9465,-0.9413,-0.9361,-0.9152,-0.8508,-0.8143,-0.7877,-0.7187,-0.6588,-0.6095,-0.5937,-0.5779,-0.5531,-0.4841,-1.1251,-1.9557,-2.4067,-2.5346,-2.5382,-2.5341,-2.5293,-2.5283,-2.5398,-2.5341,-2.5274,-2.5322,-2.5273,-2.5118,-2.4759,-2.3609,-2.2575,-2.2126,0.0,-1.7301,-1.4183,-1.1932,-0.9215,-0.55,-0.2434,-0.0052,0.157,0.379,0.5756,0.7267,0.7315,0.7427,0.7759,0.7871,0.8231,0.8888,0.9858,1.0454,1.06,1.1309,1.1819,1.2076,1.2529,1.2783,1.2881,1.2881,1.3162,1.3621,1.3621,1.3894,1.4294,1.4468,1.4652,1.4926,1.5466,1.582,1.6182,1.6509,1.6723,1.6808,-1.6311,-1.6177,-1.6177,-1.6177,-1.4759,-1.3621,-1.3621,-1.3621,-1.3621,-1.3621,-1.3621,-1.3573,-1.3573,-1.3152,-1.2774,-1.2529,-1.248,-1.2529,-1.2676,-1.2323,-1.2206,-1.2521,-1.2147,-1.156,-1.0753,-1.0753,-1.0387,-0.9614,-0.9458,-0.9361,-0.9159,-0.9061,-0.8962,-0.8804,-0.8533,-0.8633,-0.9008,-0.8784,-0.889,-0.9211,-0.9263,-0.9211,-0.9054,-0.9316,-0.9159,-0.8857,-0.8752,-0.8487,-0.8002,-0.6966,-0.6367,-0.5873,-0.5069,-0.6763,-0.8377,-0.4875,-0.9096,-1.6405,-2.34,-2.5346,-2.5393,-2.5388,-2.5388,-2.5406,-2.5484,-2.5444,-2.5404,-2.5481,-2.5389,-2.5284,-2.5245,-2.4209,-2.3164,-2.2629,0.0,0.0,-1.7891,-1.3569,-1.0364,-1.0004,-0.4356,-0.043,-0.0323,0.2954,0.516,0.5324,0.6558,0.7315,0.7368,0.77,0.8389,0.9474,1.0072,1.0651,1.115,1.0753,1.1057,1.2076,1.2126,1.2431,1.2881,1.2881,1.3162,1.3621,1.3621,1.3894,1.434,1.4571,1.4926,1.5389,1.5656,1.6312,1.7115,1.7157,1.7393,1.7625,-1.6998,-1.6658,-1.6384,-1.6384,-1.5794,-1.5328,-1.5328,-1.5328,-1.5328,-1.5328,-1.6587,-1.7136,-1.6236,-1.5811,-1.5217,-1.4418,-1.4297,-1.4145,-1.4022,-1.3559,-1.2959,-1.2323,-1.166,-1.1158,-1.0804,-1.0863,-1.0446,-0.9614,-1.0023,-0.9864,-0.9218,-0.9446,-0.9515,-0.9397,-0.9023,-0.9269,-0.9827,-0.9332,-0.9171,-0.9325,-0.9412,-0.9165,-0.8752,-0.8961,-0.8561,-0.7958,-0.8068,-0.7635,-0.6912,-0.648,-0.5987,-0.5441,-0.4904,-0.5314,-0.6641,-0.9621,-1.4096,-1.9142,-2.4129,-2.5466,-2.5452,-2.5398,-2.5423,-2.548,-2.5481,-2.547,-2.5476,-2.5495,-2.5423,-2.5359,-2.5302,-2.4617,-2.4025,-2.3863,0.0,-2.1045,-1.9959,-1.6965,-1.4358,-1.2838,-0.8574,-0.4804,-0.2517,0.0,0.2505,0.4933,0.6185,0.6993,0.7261,0.8376,0.9318,1.0077,1.0626,1.0998,1.12,1.1006,1.1108,1.156,1.1918,1.2363,1.2842,1.319,1.3752,1.4547,1.4547,1.4823,1.5232,1.5501,1.5724,1.5957,1.6454,1.6892,1.724,1.7475,1.7679,1.7787,-1.7278,-1.6998,-1.6602,-1.6441,-1.6384,-1.6384,-1.6384,-1.6384,-1.6384,-1.6384,-1.8093,-1.9004,-1.8321,-1.7641,-1.6751,-1.5615,-1.5395,-1.5164,-1.4829,-1.4407,-1.3762,-1.2776,-1.1826,-1.1297,-1.1445,-1.1253,-1.078,-0.9921,-1.0508,-1.0344,-0.9512,-0.9656,-0.9738,-0.9646,-0.9451,-0.9595,-0.9935,-0.9724,-0.9447,-0.9195,-0.9559,-0.9251,-0.8651,-0.8985,-0.8456,-0.7594,-0.7703,-0.7203,-0.6407,-0.6066,-0.5746,-0.5314,-0.4703,-0.5015,-0.68,-1.2825,-1.7262,-2.0985,-2.4625,-2.5576,-2.5517,-2.5468,-2.5487,-2.5499,-2.5526,-2.5534,-2.553,-2.5511,-2.5472,-2.5445,-2.5348,-2.5077,-2.4784,-2.4632,-2.3823,-2.281,-2.1677,-1.9688,-1.7702,-1.6066,-1.2197,-0.8322,-0.4907,-0.2218,0.0757,0.4385,0.6013,0.7245,0.8218,0.896,0.9688,1.0399,1.0771,1.1141,1.146,1.1309,1.1309,1.151,1.2058,1.2589,1.3064,1.36,1.4316,1.5108,1.5108,1.5379,1.5836,1.61,1.62,1.6287,1.6947,1.7352,1.7571,1.7974,1.8291,1.8447,-1.7278,-1.7278,-1.711,-1.6498,-1.6384,-1.6384,-1.6384,-1.6384,-1.6384,-1.6384,-1.7401,-1.8429,-1.9303,-1.8069,-1.6762,-1.5626,-1.5395,-1.5174,-1.484,-1.4704,-1.4483,-1.4141,-1.2813,-1.2308,-1.2795,-1.2159,-1.1382,-1.0587,-1.0963,-1.0736,-1.007,-0.9621,-0.9395,-0.9395,-0.9608,-0.9434,-0.9032,-0.9789,-0.9557,-0.8745,-0.9557,-0.9382,-0.8675,-0.9389,-0.8974,-0.7903,-0.7903,-0.7493,-0.6837,-0.5812,-0.5581,-0.5501,-0.452,-0.646,-0.9825,-1.3532,-1.7282,-2.1033,-2.4625,-2.5589,-2.5605,-2.5602,-2.555,-2.5513,-2.558,-2.5608,-2.5588,-2.5511,-2.5556,-2.557,-2.5437,-2.5505,-2.5386,-2.4717,-2.4197,-2.3713,-2.3192,-2.1249,-1.9916,-1.9999,-1.4876,-1.0245,-0.7372,-0.3222,0.0488,0.3405,0.5941,0.8285,1.0293,0.9406,0.9302,1.0352,1.0407,1.0956,1.2076,1.151,1.151,1.2126,1.2579,1.3064,1.3621,1.4071,1.4593,1.5108,1.5108,1.5379,1.5836,1.61,1.62,1.6287,1.6947,1.7639,1.8246,1.8712,1.9369,1.9884,-1.7278,-1.7278,-1.711,-1.6498,-1.6384,-1.6384,-1.6384,-1.6384,-1.6384,-1.6384,-1.7623,-1.8494,-1.8333,-1.8572,-1.8389,-1.7537,-1.7554,-1.723,-1.6426,-1.5807,-1.5527,-1.5481,-1.3875,-1.2959,-1.2795,-1.2575,-1.2095,-1.1277,-1.1322,-1.1075,-1.0637,-1.0636,-1.0187,-0.9405,-1.001,-0.9916,-0.9369,-0.9612,-0.9363,-0.8965,-0.9509,-0.9058,-0.8269,-0.9022,-0.8586,-0.7609,-0.7726,-0.7259,-0.6473,-0.594,-0.5543,-0.5142,-0.4543,-0.7151,-1.0993,-1.3891,-1.915,-2.4285,-2.5379,-2.5632,-2.5609,-2.5611,-2.5573,-2.5582,-2.5609,-2.5609,-2.5588,-2.5511,-2.5549,-2.557,-2.5485,-2.5459,-2.5401,-2.526,-2.4755,-2.4379,-2.4299,-2.2083,-2.0518,-2.0668,-1.6845,-1.2351,-0.7695,-0.5031,-0.1602,0.3236,0.5941,0.7964,0.9259,0.9703,1.0233,1.0956,1.0939,1.1342,1.2076,1.1918,1.1918,1.2076,1.2264,1.2725,1.3569,1.405,1.4801,1.5724,1.5647,1.5869,1.6306,1.6509,1.6752,1.7034,1.7814,1.8355,1.875,1.9169,1.9603,1.997,-1.7278,-1.7278,-1.7166,-1.6828,-1.6545,-1.6705,-1.7611,-1.7346,-1.7134,-1.7301,-1.817,-1.8655,-1.8278,-1.8934,-1.9093,-1.8387,-1.8116,-1.7843,-1.7301,-1.6503,-1.6171,-1.6353,-1.5127,-1.4044,-1.3313,-1.3199,-1.2628,-1.1623,-1.169,-1.1503,-1.0967,-1.0939,-1.0656,-1.0177,-1.0412,-1.0295,-1.004,-0.9862,-0.9472,-0.9005,-0.9406,-0.9064,-0.8361,-0.8777,-0.8274,-0.7394,-0.7389,-0.6674,-0.5767,-0.5774,-0.5359,-0.5118,-0.649,-0.9735,-1.3671,-1.6946,-2.1866,-2.6216,-2.6203,-2.5935,-2.5636,-2.564,-2.5628,-2.5615,-2.5626,-2.5629,-2.5623,-2.5551,-2.5573,-2.5585,-2.5545,-2.5512,-2.5498,-2.5527,-2.5067,-2.4702,-2.4755,-2.2959,-2.1721,-2.1884,-1.918,-1.5324,-1.0308,-0.7405,-0.2929,0.3969,0.5734,0.7276,0.9127,0.9577,1.0218,1.115,1.1592,1.1999,1.2353,1.2783,1.2793,1.2431,1.2608,1.3064,1.3841,1.4387,1.513,1.5988,1.6238,1.6454,1.6637,1.7105,1.7422,1.7666,1.8408,1.8893,1.9288,1.9717,2.0065,2.0339,-1.7278,-1.7278,-1.739,-1.7545,-1.7088,-1.7401,-1.9475,-1.8845,-1.8267,-1.8655,-1.8881,-1.8934,-1.8804,-1.9198,-1.9146,-1.8441,-1.7733,-1.7412,-1.7711,-1.692,-1.6524,-1.6818,-1.6285,-1.5391,-1.4145,-1.3837,-1.3114,-1.1802,-1.2097,-1.1849,-1.1185,-1.0807,-1.087,-1.1178,-1.0674,-1.0604,-1.0717,-1.0421,-0.9792,-0.9017,-0.9396,-0.9204,-0.8635,-0.8613,-0.8021,-0.7181,-0.699,-0.6001,-0.4878,-0.5282,-0.5068,-0.5308,-0.9527,-1.3442,-1.729,-2.1496,-2.4793,-2.7102,-2.7109,-2.6463,-2.5813,-2.5816,-2.5707,-2.5614,-2.5676,-2.5691,-2.5667,-2.5617,-2.5602,-2.5605,-2.5586,-2.5604,-2.5605,-2.5604,-2.5179,-2.485,-2.4784,-2.3892,-2.3295,-2.3412,-2.1562,-1.8609,-1.4387,-0.9692,-0.3426,0.5061,0.5362,0.6474,0.946,0.9224,0.971,1.1301,1.2276,1.2812,1.2812,1.3815,1.3894,1.3065,1.3478,1.3931,1.4514,1.4994,1.5579,1.6225,1.6912,1.712,1.7063,1.7854,1.821,1.8302,1.8817,1.9325,1.9814,2.0277,2.0613,2.086,-1.7278,-1.7278,-1.7854,-1.9643,-1.9475,-1.9214,-1.9695,-1.9121,-1.8602,-1.8709,-1.8881,-1.8987,-1.8987,-1.9303,-1.946,-1.9198,-1.8614,-1.8236,-1.803,-1.7523,-1.7088,-1.6807,-1.657,-1.5989,-1.4932,-1.4264,-1.3726,-1.3235,-1.2089,-1.1545,-1.1655,-1.1296,-1.0863,-1.0301,-1.0421,-1.0295,-1.0047,-1.0047,-0.9472,-0.8705,-0.9518,-0.8935,-0.7591,-0.7967,-0.7767,-0.7181,-0.7003,-0.6067,-0.4929,-0.435,-0.4417,-0.5403,-0.9771,-1.4923,-1.9851,-2.2162,-2.5264,-2.7949,-2.794,-2.7303,-2.6644,-2.6718,-2.6152,-2.5623,-2.5683,-2.5662,-2.5621,-2.5604,-2.5598,-2.5576,-2.5531,-2.5556,-2.5605,-2.5605,-2.55,-2.5421,-2.5402,-2.4801,-2.436,-2.4385,-2.2196,-1.9447,-1.6338,-0.8658,-0.1656,0.3704,0.5085,0.6706,0.9015,0.9387,1.0452,1.2374,1.2667,1.2812,1.2812,1.3815,1.4247,1.4143,1.4154,1.4767,1.5954,1.5978,1.665,1.7892,1.7932,1.8168,1.8531,1.8783,1.9074,1.9369,1.9639,1.996,2.0277,2.0663,2.0974,2.1214,-1.7278,-1.7278,-1.8018,-2.0283,-2.0435,-2.0169,-1.9965,-1.9604,-1.9344,-1.9226,-1.9344,-1.9396,-1.9396,-1.95,-1.9512,-1.9328,-1.8881,-1.8452,-1.8139,-1.7579,-1.7134,-1.6807,-1.6524,-1.6171,-1.5778,-1.4864,-1.4076,-1.3295,-1.2035,-1.1428,-1.1476,-1.1303,-1.0989,-1.0618,-1.0364,-1.0295,-1.0225,-0.9722,-0.9151,-0.8517,-0.8818,-0.8361,-0.7591,-0.7521,-0.7186,-0.6793,-0.6675,-0.5873,-0.4668,-0.3618,-0.3699,-0.5324,-1.2069,-1.7356,-2.1781,-2.5562,-2.7692,-2.8827,-2.8817,-2.8186,-2.7539,-2.7557,-2.718,-2.6604,-2.5866,-2.5671,-2.5642,-2.5613,-2.5595,-2.5571,-2.5517,-2.5522,-2.5549,-2.5541,-2.5545,-2.5549,-2.5544,-2.5064,-2.4697,-2.4704,-2.3102,-1.9328,-1.2484,-0.6695,-0.103,0.4626,0.5761,0.7031,0.8924,0.9227,1.0639,1.3426,1.4089,1.4437,1.4437,1.556,1.6213,1.6346,1.4971,1.5028,1.6426,1.6255,1.7057,1.8612,1.8898,1.9243,1.9652,2.0159,2.0475,2.0669,2.0911,2.1162,2.1423,2.1589,2.177,2.1965,-1.7278,-1.759,-1.8441,-2.0182,-2.0599,-2.0549,-2.0182,-2.008,-2.0029,-1.9798,-1.9798,-1.9798,-1.9798,-1.9656,-1.9512,-1.9275,-1.8893,-1.8506,-1.8139,-1.7512,-1.7078,-1.6864,-1.6343,-1.6181,-1.6431,-1.5332,-1.4195,-1.3009,-1.2166,-1.1553,-1.1247,-1.1122,-1.1122,-1.124,-1.0364,-1.0225,-1.0458,-0.9524,-0.8823,-0.8382,-0.7927,-0.7792,-0.7727,-0.7007,-0.6544,-0.6207,-0.6145,-0.5348,-0.4212,-0.3019,-0.2958,-0.4981,-1.3762,-1.8997,-2.3078,-2.9041,-3.0279,-2.9719,-2.9706,-2.9065,-2.8412,-2.8427,-2.8248,-2.7737,-2.6409,-2.5994,-2.5832,-2.5621,-2.5583,-2.5585,-2.5507,-2.5493,-2.55,-2.5489,-2.5481,-2.5492,-2.5503,-2.5114,-2.482,-2.4826,-2.398,-1.8967,-0.7709,-0.5223,-0.1133,0.6548,0.7373,0.8249,0.9947,0.9947,1.1396,1.4699,1.5712,1.6182,1.6182,1.7464,1.821,1.8363,1.6071,1.566,1.6946,1.6837,1.769,1.922,1.9921,2.0309,2.0621,2.1434,2.1773,2.1802,2.2061,2.2295,2.2522,2.2574,2.266,2.2746,-1.7278,-1.891,-2.0118,-1.9734,-2.008,-2.036,-2.0233,-2.008,-1.9978,-1.9811,-1.9798,-1.9798,-1.9798,-1.9656,-1.9565,-1.9368,-1.9223,-1.8851,-1.8139,-1.803,-1.7634,-1.7011,-1.6275,-1.6104,-1.6581,-1.5099,-1.4145,-1.3846,-1.2757,-1.2097,-1.1864,-1.1178,-1.0989,-1.124,-1.0364,-0.9786,-0.9524,-0.9454,-0.8882,-0.8052,-0.8107,-0.7722,-0.7012,-0.6408,-0.5951,-0.5491,-0.515,-0.4348,-0.3282,-0.2554,-0.2491,-0.3967,-1.0465,-1.6838,-2.3062,-2.8986,-3.0628,-3.0531,-3.0529,-2.9892,-2.9244,-2.9305,-2.8652,-2.7969,-2.7811,-2.7179,-2.6428,-2.5673,-2.5561,-2.5553,-2.5429,-2.5453,-2.55,-2.5489,-2.5444,-2.5443,-2.556,-2.5411,-2.5312,-2.5314,-2.4365,-1.9342,-0.8187,-0.6422,-0.1729,0.851,1.0454,1.2051,1.4069,1.382,1.4577,1.6823,1.6459,1.6182,1.6182,1.7464,1.821,1.8401,1.7866,1.8129,1.9096,1.9286,1.9867,2.0716,2.118,2.1444,2.1628,2.1927,2.2051,2.2079,2.2346,2.2479,2.2548,2.2813,2.3076,2.33,-1.8139,-1.8869,-1.9592,-2.0067,-2.0131,-2.008,-2.0182,-2.0131,-2.0029,-1.985,-1.9798,-1.9798,-1.9798,-1.9656,-1.9565,-1.9512,-1.9328,-1.9011,-1.853,-1.8259,-1.7854,-1.7301,-1.6786,-1.656,-1.657,-1.5816,-1.4932,-1.4025,-1.2931,-1.2027,-1.1303,-1.1178,-1.0933,-1.0548,-1.0364,-0.9849,-0.9145,-0.9017,-0.8501,-0.7857,-0.8047,-0.7591,-0.6811,-0.6732,-0.6145,-0.5226,-0.4087,-0.322,-0.2619,-0.2287,-0.5724,-1.0243,-1.1364,-1.865,-2.7338,-2.9946,-3.0697,-3.0711,-3.0697,-3.0393,-3.0086,-3.0153,-2.9768,-2.9303,-2.8912,-2.8534,-2.7981,-2.7071,-2.6555,-2.6235,-2.6137,-2.5747,-2.544,-2.5445,-2.541,-2.543,-2.552,-2.5481,-2.5351,-2.5097,-2.4578,-1.9307,-0.6688,-0.5189,-0.0442,1.0608,1.2805,1.4034,1.4951,1.5581,1.6859,1.8925,1.9038,1.9095,1.9095,2.0099,2.0695,2.0801,2.071,2.0352,1.9763,1.9828,2.0473,2.1582,2.179,2.2056,2.2326,2.2678,2.2838,2.2863,2.3287,2.3464,2.3464,2.361,2.3649,2.361]}]]